[[{"header":{"parameterUnit":"m.s-1","parameterCategory":1,"la1":31.0,"la2":29.5877,"lo1":-88.7671,"lo2":-86.6584,"dy":0.0162,"dx":0.0185,"nx":115,"ny":88,"refTime":"2024-08-09T18:00:00:Z","depth":0,"parameterNumber":2,"parameterNumberName":"U-component_of_WINDS"},"data":[0.0,0.0,0.0,0.0,0.0,0.0,0.0,0.0,0.0,0.0,0.0,0.0,0.0,0.0,0.0,0.0,0.0,0.0,0.0,0.0,0.0,0.0,0.0,0.0,0.0,0.0,0.0,0.0,0.0,0.0,0.0,0.0,0.0,0.0,0.0,0.0,0.0,0.0,0.0,0.0,0.0,0.0,0.0,0.0,0.0,0.0,0.0,0.0,0.0,0.0,0.0,0.0,0.0,0.0,0.0,0.0,0.0,0.0,0.0,0.0,0.0,0.0,0.0,0.0,0.0,0.0,0.0,0.0,0.0,0.0,0.0,0.0,0.0,0.0,0.0,0.0,0.0,0.0,0.0,0.0,0.0,0.0,0.0,0.0,0.0,0.0,0.0,0.0,0.0,0.0,0.0,0.0,0.0,0.0,0.0,0.0,0.0,0.0,0.0,0.0,0.0,0.0,0.0,0.0,0.0,0.0,0.0,0.0,0.0,0.0,0.0,0.0,0.0,0.0,0.0,0.0,0.0,0.0,0.0,0.0,0.0,0.0,0.0,0.0,0.0,0.0,0.0,0.0,0.0,0.0,0.0,0.0,0.0,0.0,0.0,0.0,0.0,0.0,0.0,0.0,0.0,0.0,0.0,0.0,0.0,0.0,0.0,0.0,0.0,0.0,0.0,0.0,0.0,0.0,0.0,0.0,0.0,0.0,0.0,0.0,0.0,0.0,0.0,0.0,0.0,0.0,0.0,0.0,0.0,0.0,0.0,0.0,0.0,0.0,0.0,0.0,0.0,0.0,0.0,0.0,0.0,0.0,0.0,0.0,0.0,0.0,0.0,0.0,0.0,0.0,0.0,0.0,0.0,0.0,0.0,0.0,0.0,0.0,0.0,0.0,0.0,0.0,0.0,0.0,0.0,0.0,0.0,0.0,0.0,0.0,0.0,0.0,0.0,0.0,0.0,0.0,0.0,0.0,0.0,0.0,0.0,0.0,0.0,0.0,0.0,0.0,0.0,0.0,0.0,0.0,0.0,0.0,0.0,0.0,0.0,0.0,0.0,0.0,0.0,0.0,0.0,0.0,0.0,0.0,0.0,0.0,0.0,0.0,0.0,0.0,0.0,0.0,0.0,0.0,0.0,0.0,0.0,0.0,0.0,0.0,0.0,0.0,0.0,0.0,0.0,0.0,0.0,0.0,0.0,0.0,0.0,0.0,0.0,0.0,0.0,0.0,0.0,0.0,0.0,0.0,0.0,0.0,0.0,0.0,0.0,0.0,0.0,0.0,0.0,0.0,0.0,0.0,0.0,0.0,0.0,0.0,0.0,0.0,0.0,0.0,0.0,0.0,0.0,0.0,0.0,0.0,0.0,0.0,0.0,0.0,0.0,0.0,0.0,0.0,0.0,0.0,0.0,0.0,0.0,0.0,0.0,0.0,0.0,0.0,0.0,0.0,0.0,0.0,0.0,0.0,0.0,0.0,0.0,0.0,0.0,0.0,0.0,0.0,0.0,0.0,0.0,0.0,0.0,0.0,0.0,0.0,0.0,0.0,0.0,0.0,0.0,0.0,0.0,0.0,0.0,0.0,0.0,0.0,0.0,0.0,0.0,0.0,0.0,0.0,0.0,0.0,0.0,0.0,0.0,0.0,0.0,0.0,0.0,0.0,0.0,0.0,0.0,0.0,0.0,0.0,0.0,0.0,0.0,0.0,0.0,0.0,0.0,0.0,0.0,0.0,0.0,0.0,0.0,0.0,0.0,0.0,0.0,0.0,0.0,0.0,0.0,0.0,0.0,0.0,0.0,0.0,0.0,0.0,0.0,0.0,0.0,0.0,0.0,0.0,0.0,0.0,0.0,0.0,0.0,0.0,0.0,0.0,0.0,0.0,0.0,0.0,0.0,0.0,0.0,0.0,0.0,0.0,0.0,0.0,0.0,0.0,0.0,0.0,0.0,0.0,0.0,0.0,0.0,0.0,0.0,0.0,0.0,0.0,0.0,0.0,0.0,0.0,0.0,0.0,0.0,0.0,0.0,0.0,0.0,0.0,0.0,0.0,0.0,0.0,0.0,0.0,0.0,0.0,0.0,0.0,0.0,0.0,0.0,0.0,0.0,0.0,0.0,0.0,0.0,0.0,0.0,0.0,0.0,0.0,0.0,0.0,0.0,0.0,0.0,0.0,0.0,0.0,0.0,0.0,0.0,0.0,0.0,0.0,0.0,0.0,0.0,0.0,0.0,0.0,0.0,0.0,0.0,0.0,0.0,0.0,0.0,0.0,0.0,0.0,0.0,0.0,0.0,0.0,0.0,0.0,0.0,0.0,0.0,0.0,0.0,0.0,0.0,0.0,0.0,0.0,0.0,0.0,0.0,0.0,0.0,0.0,0.0,0.0,0.0,0.0,0.0,0.0,0.0,0.0,0.0,0.0,0.0,0.0,0.0,0.0,0.0,0.0,0.0,0.0,0.0,0.0,0.0,0.0,0.0,0.0,0.0,0.0,0.0,0.0,0.0,0.0,0.0,0.0,0.0,0.0,0.0,0.0,0.0,0.0,0.0,0.0,0.0,0.0,0.0,0.0,0.0,0.0,0.0,0.0,0.0,0.0,0.0,0.0,0.0,0.0,0.0,0.0,0.0,0.0,0.0,0.0,0.0,0.0,0.0,0.0,0.0,0.0,0.0,0.0,0.0,0.0,0.0,0.0,0.0,0.0,0.0,0.0,0.0,0.0,0.0,0.0,0.0,0.0,0.0,0.0,0.0,0.0,0.0,0.0,0.0,0.0,0.0,0.0,0.0,0.0,0.0,0.0,0.0,0.0,0.0,0.0,0.0,0.0,0.0,0.0,0.0,0.0,0.0,0.0,0.0,0.0,0.0,0.0,0.0,0.0,0.0,0.0,0.0,0.0,0.0,0.0,0.0,0.0,0.0,0.0,0.0,0.0,0.0,0.0,0.0,0.0,0.0,0.0,0.0,0.0,0.0,0.0,0.0,0.0,0.0,0.0,0.0,0.0,0.0,0.0,0.0,0.0,0.0,0.0,0.0,0.0,0.0,0.0,0.0,0.0,0.0,0.0,0.0,0.0,0.0,0.0,0.0,0.0,0.0,0.0,0.0,0.0,0.0,0.0,0.0,0.0,0.0,0.0,0.0,0.0,0.0,0.0,0.0,0.0,0.0,0.0,0.0,0.0,0.0,0.0,0.0,0.0,0.0,0.0,0.0,0.0,0.0,0.0,0.0,0.0,0.0,0.0,0.0,0.0,0.0,0.0,0.0,0.0,0.0,0.0,0.0,0.0,0.0,0.0,0.0,0.0,0.0,0.0,0.0,0.0,0.0,0.0,0.0,0.0,0.0,0.0,0.0,0.0,0.0,0.0,0.0,0.0,0.0,0.0,0.0,0.0,0.0,0.0,0.0,0.0,0.0,0.0,0.0,0.0,0.0,0.0,0.0,0.0,0.0,0.0,0.0,0.0,0.0,0.0,0.0,0.0,0.0,0.0,0.0,0.0,0.0,0.0,0.0,0.0,0.0,0.0,0.0,0.0,0.0,0.0,0.0,0.0,0.0,0.0,0.0,0.0,0.0,0.0,0.0,0.0,0.0,0.0,0.0,0.0,0.0,0.0,0.0,0.0,0.0,0.0,0.0,0.0,0.0,0.0,0.0,0.0,0.0,0.0,0.0,0.0,0.0,0.0,0.0,0.0,0.0,0.0,0.0,0.0,0.0,0.0,0.0,0.0,0.0,0.0,0.0,0.0,0.0,0.0,0.0,0.0,0.0,0.0,0.0,0.0,0.0,0.0,0.0,0.0,0.0,0.0,0.0,0.0,0.0,0.0,0.0,0.0,0.0,0.0,0.0,0.0,0.0,0.0,0.0,0.0,0.0,0.0,0.0,0.0,0.0,0.0,0.0,0.0,0.0,0.0,0.0,0.0,0.0,0.0,0.0,0.0,0.0,0.0,0.0,0.0,0.0,0.0,0.0,0.0,0.0,0.0,0.0,0.0,0.0,0.0,0.0,0.0,0.0,0.0,0.0,0.0,0.0,0.0,0.0,0.0,0.0,0.0,0.0,0.0,0.0,0.0,0.0,0.0,0.0,0.0,0.0,0.0,0.0,0.0,0.0,0.0,0.0,0.0,0.0,0.0,0.0,0.0,0.0,0.0,0.0,0.0,0.0,0.0,0.0,0.0,0.0,0.0,0.0,0.0,0.0,0.0,0.0,0.0,0.0,0.0,0.0,0.0,0.0,0.0,0.0,0.0,0.0,0.0,0.0,0.0,0.0,0.0,-1.9207,0.0,0.0,0.0,0.0,0.0,0.0,0.0,0.0,0.0,0.0,0.0,0.0,0.0,0.0,0.0,0.0,0.0,0.0,0.0,0.0,0.0,0.0,0.0,0.0,0.0,0.0,0.0,0.0,0.0,0.0,0.0,0.0,0.0,0.0,0.0,0.0,0.0,0.0,0.0,0.0,0.0,0.0,0.0,0.0,0.0,0.0,0.0,0.0,0.0,0.0,0.0,0.0,0.0,0.0,0.0,0.0,0.0,0.0,0.0,0.0,0.0,0.0,0.0,0.0,0.0,0.0,0.0,0.0,0.0,0.0,0.0,0.0,0.0,0.0,0.0,0.0,0.0,0.0,0.0,0.0,0.0,0.0,0.0,0.0,0.0,0.0,0.0,0.0,0.0,0.0,0.0,0.0,0.0,0.0,0.0,0.0,0.0,0.0,0.0,0.0,0.0,0.0,0.0,0.0,0.0,0.0,0.0,0.0,0.0,0.0,-2.151,-2.1639,-2.0488,-1.9791,-1.9672,0.0,0.0,0.0,0.0,0.0,0.0,0.0,0.0,0.0,0.0,0.0,0.0,0.0,0.0,0.0,0.0,0.0,0.0,0.0,0.0,0.0,0.0,0.0,0.0,0.0,0.0,0.0,0.0,0.0,0.0,0.0,0.0,0.0,0.0,0.0,0.0,0.0,0.0,0.0,0.0,0.0,0.0,0.0,0.0,0.0,0.0,0.0,0.0,0.0,0.0,0.0,0.0,0.0,0.0,0.0,0.0,0.0,0.0,0.0,0.0,0.0,0.0,0.0,0.0,0.0,0.0,0.0,0.0,0.0,0.0,0.0,0.0,0.0,0.0,0.0,0.0,0.0,0.0,0.0,0.0,0.0,0.0,0.0,0.0,0.0,0.0,0.0,0.0,0.0,0.0,0.0,0.0,0.0,0.0,0.0,0.0,0.0,0.0,0.0,0.0,0.0,0.0,0.0,0.0,0.0,0.0,0.0,0.0,0.0,0.0,0.0,0.0,-2.128,-2.0475,-2.0327,0.0,0.0,0.0,0.0,0.0,0.0,0.0,0.0,0.0,0.0,0.0,0.0,0.0,0.0,0.0,0.0,0.0,0.0,0.0,0.0,0.0,0.0,0.0,0.0,0.0,0.0,0.0,0.0,0.0,0.0,0.0,0.0,0.0,0.0,0.0,0.0,0.0,0.0,0.0,0.0,0.0,0.0,0.0,0.0,0.0,0.0,0.0,0.0,0.0,0.0,0.0,0.0,0.0,0.0,0.0,0.0,0.0,0.0,0.0,0.0,0.0,0.0,0.0,0.0,0.0,0.0,0.0,0.0,0.0,0.0,0.0,0.0,0.0,0.0,0.0,0.0,0.0,0.0,0.0,0.0,0.0,0.0,0.0,0.0,0.0,0.0,0.0,0.0,0.0,0.0,0.0,0.0,0.0,0.0,0.0,0.0,0.0,0.0,0.0,0.0,0.0,0.0,0.0,0.0,0.0,0.0,0.0,0.0,0.0,0.0,-2.2496,-2.5216,-2.4015,0.0,-2.121,0.0,0.0,0.0,0.0,0.0,0.0,0.0,0.0,0.0,0.0,0.0,0.0,0.0,0.0,0.0,0.0,0.0,0.0,0.0,0.0,0.0,0.0,0.0,0.0,0.0,0.0,0.0,0.0,0.0,0.0,0.0,0.0,0.0,0.0,0.0,0.0,0.0,0.0,0.0,0.0,0.0,0.0,0.0,0.0,0.0,0.0,0.0,0.0,0.0,0.0,0.0,0.0,0.0,0.0,0.0,0.0,0.0,0.0,0.0,0.0,0.0,0.0,0.0,0.0,0.0,0.0,0.0,0.0,0.0,0.0,0.0,0.0,0.0,0.0,0.0,0.0,0.0,0.0,0.0,0.0,0.0,0.0,0.0,0.0,0.0,0.0,0.0,0.0,0.0,0.0,0.0,0.0,0.0,0.0,0.0,0.0,0.0,0.0,0.0,0.0,0.0,0.0,0.0,0.0,0.0,0.0,0.0,0.0,0.0,0.0,0.0,-2.4995,-2.3901,-2.2547,0.0,0.0,0.0,0.0,0.0,0.0,0.0,0.0,0.0,0.0,0.0,0.0,0.0,0.0,0.0,0.0,0.0,0.0,0.0,0.0,0.0,0.0,0.0,0.0,0.0,0.0,0.0,0.0,0.0,0.0,0.0,0.0,0.0,0.0,0.0,0.0,0.0,0.0,0.0,0.0,0.0,0.0,0.0,0.0,0.0,0.0,0.0,0.0,0.0,0.0,0.0,0.0,0.0,0.0,0.0,0.0,0.0,0.0,0.0,0.0,0.0,0.0,0.0,0.0,0.0,0.0,0.0,0.0,0.0,0.0,0.0,0.0,0.0,0.0,0.0,0.0,0.0,0.0,0.0,0.0,0.0,0.0,0.0,0.0,0.0,0.0,0.0,0.0,0.0,0.0,0.0,0.0,0.0,0.0,0.0,0.0,0.0,0.0,0.0,0.0,0.0,0.0,0.0,0.0,0.0,0.0,0.0,0.0,0.0,0.0,-2.1938,0.0,-2.4763,-2.4016,-2.2629,-2.0726,0.0,0.0,0.0,0.0,0.0,0.0,0.0,0.0,0.0,0.0,0.0,0.0,0.0,0.0,0.0,0.0,0.0,0.0,0.0,0.0,0.0,0.0,0.0,0.0,0.0,0.0,0.0,0.0,0.0,0.0,0.0,0.0,0.0,0.0,0.0,0.0,0.0,0.0,0.0,0.0,0.0,0.0,0.0,0.0,0.0,0.0,0.0,0.0,0.0,0.0,0.0,0.0,0.0,0.0,0.0,0.0,0.0,0.0,0.0,0.0,0.0,0.0,0.0,0.0,0.0,0.0,0.0,0.0,0.0,0.0,0.0,0.0,0.0,0.0,0.0,0.0,0.0,0.0,0.0,0.0,0.0,0.0,0.0,0.0,0.0,0.0,0.0,0.0,0.0,0.0,0.0,0.0,0.0,0.0,0.0,0.0,0.0,0.0,0.0,0.0,0.0,0.0,0.0,0.0,0.0,0.0,0.0,0.0,0.0,-2.3197,-2.3353,-2.5679,-2.5135,-2.34,0.0,0.0,0.0,0.0,0.0,0.0,0.0,0.0,0.0,0.0,0.0,0.0,0.0,0.0,0.0,0.0,0.0,0.0,0.0,0.0,0.0,0.0,0.0,0.0,0.0,0.0,0.0,0.0,0.0,0.0,0.0,0.0,0.0,0.0,0.0,0.0,0.0,0.0,0.0,0.0,0.0,0.0,0.0,0.0,0.0,0.0,0.0,0.0,0.0,0.0,0.0,0.0,0.0,0.0,0.0,0.0,0.0,0.0,0.0,0.0,0.0,0.0,0.0,0.0,0.0,0.0,0.0,0.0,0.0,0.0,0.0,0.0,0.0,0.0,0.0,0.0,0.0,0.0,0.0,0.0,0.0,0.0,0.0,0.0,0.0,0.0,0.0,0.0,0.0,0.0,0.0,0.0,0.0,0.0,0.0,0.0,0.0,0.0,0.0,0.0,0.0,0.0,0.0,0.0,0.0,0.0,0.0,0.0,0.0,-2.0352,-2.1951,-2.4377,-2.7524,-2.477,-2.2757,0.0,0.0,0.0,0.0,0.0,0.0,0.0,0.0,0.0,0.0,0.0,0.0,0.0,0.0,0.0,0.0,0.0,0.0,0.0,0.0,0.0,0.0,0.0,0.0,0.0,0.0,0.0,0.0,0.0,0.0,0.0,0.0,0.0,0.0,0.0,0.0,0.0,0.0,0.0,0.0,0.0,0.0,0.0,0.0,0.0,0.0,0.0,0.0,0.0,0.0,0.0,0.0,0.0,0.0,0.0,0.0,0.0,0.0,0.0,0.0,0.0,0.0,0.0,0.0,0.0,0.0,0.0,0.0,0.0,0.0,0.0,0.0,0.0,0.0,0.0,0.0,0.0,0.0,0.0,0.0,0.0,0.0,0.0,0.0,0.0,0.0,0.0,0.0,0.0,0.0,0.0,0.0,0.0,0.0,0.0,0.0,0.0,0.0,0.0,0.0,0.0,0.0,0.0,0.0,0.0,0.0,0.0,0.0,0.0,-1.9452,0.0,-2.5305,0.0,-2.4087,-2.1907,0.0,0.0,0.0,0.0,0.0,0.0,0.0,0.0,0.0,0.0,0.0,0.0,0.0,0.0,0.0,0.0,0.0,0.0,0.0,0.0,0.0,0.0,0.0,0.0,0.0,0.0,0.0,0.0,0.0,0.0,0.0,0.0,0.0,0.0,0.0,0.0,0.0,0.0,0.0,0.0,0.0,0.0,0.0,0.0,0.0,0.0,0.0,0.0,0.0,0.0,0.0,0.0,0.0,0.0,0.0,0.0,0.0,0.0,0.0,0.0,0.0,0.0,0.0,0.0,0.0,0.0,0.0,0.0,0.0,0.0,0.0,0.0,0.0,0.0,0.0,0.0,0.0,0.0,0.0,0.0,0.0,0.0,0.0,0.0,0.0,0.0,0.0,0.0,0.0,0.0,0.0,0.0,0.0,0.0,0.0,0.0,0.0,0.0,0.0,0.0,0.0,0.0,0.0,0.0,0.0,0.0,0.0,0.0,-1.8811,-2.3064,-2.5399,-2.5887,-2.4415,-2.3257,-2.0981,0.0,0.0,0.0,0.0,0.0,0.0,0.0,0.0,0.0,0.0,0.0,0.0,0.0,0.0,0.0,0.0,0.0,0.0,0.0,0.0,0.0,0.0,0.0,0.0,0.0,0.0,0.0,0.0,0.0,0.0,0.0,0.0,0.0,0.0,0.0,0.0,0.0,0.0,0.0,0.0,0.0,0.0,0.0,0.0,0.0,0.0,0.0,0.0,0.0,0.0,0.0,0.0,0.0,0.0,0.0,0.0,0.0,0.0,0.0,0.0,0.0,0.0,0.0,0.0,0.0,0.0,0.0,0.0,0.0,0.0,0.0,0.0,0.0,0.0,0.0,0.0,0.0,0.0,0.0,0.0,0.0,0.0,0.0,0.0,0.0,0.0,0.0,0.0,0.0,0.0,0.0,0.0,0.0,0.0,0.0,0.0,0.0,0.0,0.0,0.0,0.0,0.0,0.0,0.0,0.0,0.0,0.0,0.0,0.0,-2.2168,-2.3623,-2.5054,-2.6241,-2.2921,-2.1162,0.0,0.0,0.0,0.0,0.0,0.0,0.0,0.0,0.0,0.0,0.0,0.0,0.0,0.0,0.0,0.0,0.0,0.0,0.0,0.0,0.0,0.0,0.0,0.0,0.0,0.0,0.0,0.0,0.0,0.0,0.0,0.0,0.0,0.0,0.0,0.0,0.0,0.0,0.0,0.0,0.0,0.0,0.0,0.0,0.0,0.0,0.0,0.0,0.0,0.0,0.0,0.0,0.0,0.0,0.0,0.0,0.0,0.0,0.0,0.0,0.0,0.0,0.0,0.0,0.0,0.0,0.0,0.0,0.0,0.0,0.0,0.0,0.0,0.0,0.0,0.0,0.0,0.0,0.0,0.0,0.0,0.0,0.0,0.0,0.0,0.0,0.0,0.0,0.0,0.0,0.0,0.0,0.0,0.0,0.0,0.0,0.0,0.0,0.0,0.0,0.0,0.0,0.0,0.0,0.0,0.0,0.0,0.0,0.0,-2.3484,-2.4838,-2.6149,-2.7365,-2.3768,-2.1886,-2.2074,0.0,0.0,0.0,0.0,0.0,0.0,0.0,0.0,0.0,0.0,0.0,0.0,0.0,0.0,0.0,0.0,0.0,0.0,0.0,0.0,0.0,0.0,0.0,0.0,0.0,0.0,0.0,0.0,0.0,0.0,0.0,0.0,0.0,0.0,0.0,0.0,0.0,0.0,0.0,0.0,0.0,0.0,0.0,0.0,0.0,0.0,0.0,0.0,0.0,0.0,0.0,0.0,0.0,0.0,0.0,0.0,0.0,0.0,0.0,0.0,0.0,0.0,0.0,0.0,0.0,0.0,0.0,0.0,0.0,0.0,0.0,0.0,0.0,0.0,0.0,0.0,0.0,0.0,0.0,0.0,0.0,0.0,0.0,0.0,0.0,0.0,0.0,0.0,0.0,0.0,0.0,0.0,0.0,0.0,0.0,0.0,0.0,0.0,0.0,0.0,0.0,0.0,0.0,0.0,0.0,0.0,0.0,0.0,-2.6426,-2.8458,-2.8889,-2.7673,-2.5503,-2.3148,0.0,0.0,0.0,0.0,0.0,0.0,0.0,0.0,0.0,0.0,0.0,0.0,0.0,0.0,0.0,0.0,0.0,0.0,0.0,0.0,0.0,0.0,0.0,0.0,0.0,0.0,0.0,0.0,0.0,0.0,0.0,0.0,0.0,0.0,0.0,0.0,0.0,0.0,0.0,0.0,0.0,0.0,0.0,0.0,0.0,0.0,0.0,0.0,0.0,0.0,0.0,0.0,0.0,0.0,0.0,0.0,0.0,0.0,0.0,0.0,0.0,0.0,0.0,0.0,0.0,0.0,0.0,0.0,0.0,0.0,0.0,0.0,0.0,0.0,0.0,0.0,0.0,0.0,0.0,0.0,0.0,0.0,0.0,0.0,0.0,0.0,0.0,0.0,0.0,0.0,0.0,0.0,0.0,0.0,0.0,0.0,0.0,0.0,0.0,0.0,0.0,0.0,0.0,0.0,0.0,0.0,0.0,0.0,0.0,-2.7134,-2.9566,-3.0705,-3.0274,-2.6919,-2.4487,0.0,0.0,0.0,0.0,0.0,0.0,0.0,0.0,0.0,0.0,0.0,0.0,0.0,0.0,0.0,0.0,0.0,0.0,0.0,0.0,0.0,0.0,0.0,0.0,0.0,0.0,0.0,0.0,0.0,0.0,0.0,0.0,0.0,0.0,0.0,0.0,0.0,0.0,0.0,0.0,0.0,0.0,0.0,0.0,0.0,0.0,0.0,0.0,0.0,0.0,0.0,0.0,0.0,0.0,0.0,0.0,0.0,0.0,0.0,0.0,0.0,0.0,0.0,0.0,0.0,0.0,0.0,0.0,0.0,0.0,0.0,0.0,0.0,0.0,0.0,0.0,0.0,0.0,0.0,0.0,0.0,0.0,0.0,0.0,0.0,0.0,0.0,0.0,0.0,0.0,0.0,0.0,0.0,0.0,0.0,0.0,0.0,0.0,0.0,0.0,0.0,0.0,0.0,0.0,0.0,0.0,0.0,0.0,-2.6457,-2.8227,-3.0582,-3.184,-3.1824,-2.8719,-2.618,0.0,0.0,0.0,0.0,0.0,0.0,0.0,0.0,0.0,0.0,0.0,0.0,0.0,0.0,0.0,0.0,0.0,0.0,0.0,0.0,0.0,0.0,0.0,0.0,0.0,0.0,0.0,0.0,0.0,0.0,0.0,0.0,0.0,0.0,0.0,0.0,0.0,0.0,0.0,0.0,0.0,0.0,0.0,0.0,0.0,0.0,0.0,0.0,0.0,0.0,0.0,0.0,0.0,0.0,0.0,0.0,0.0,0.0,0.0,0.0,0.0,0.0,0.0,0.0,0.0,0.0,0.0,0.0,0.0,0.0,0.0,0.0,0.0,0.0,0.0,0.0,0.0,0.0,0.0,0.0,0.0,0.0,0.0,0.0,0.0,0.0,0.0,0.0,0.0,0.0,0.0,0.0,0.0,0.0,0.0,0.0,0.0,0.0,0.0,0.0,0.0,0.0,0.0,0.0,0.0,0.0,0.0,0.0,-2.8057,-2.9396,-3.1366,-3.2398,-3.2336,-3.0458,-2.7818,0.0,0.0,0.0,0.0,0.0,0.0,0.0,0.0,0.0,0.0,0.0,0.0,0.0,0.0,0.0,0.0,0.0,0.0,0.0,0.0,0.0,0.0,0.0,0.0,0.0,0.0,0.0,0.0,0.0,0.0,0.0,0.0,0.0,0.0,0.0,0.0,0.0,0.0,0.0,0.0,0.0,0.0,0.0,0.0,0.0,0.0,0.0,0.0,0.0,0.0,0.0,0.0,0.0,0.0,0.0,0.0,0.0,0.0,0.0,0.0,0.0,0.0,0.0,0.0,0.0,0.0,0.0,0.0,0.0,0.0,0.0,0.0,0.0,0.0,0.0,0.0,0.0,0.0,0.0,0.0,0.0,0.0,0.0,0.0,0.0,0.0,0.0,0.0,0.0,0.0,0.0,0.0,0.0,0.0,0.0,0.0,0.0,0.0,0.0,0.0,0.0,0.0,0.0,0.0,0.0,0.0,0.0,0.0,-2.8057,-2.9387,-3.1366,-3.2398,-3.2382,-3.0458,-2.8049,0.0,0.0,0.0,0.0,0.0,0.0,0.0,0.0,0.0,0.0,0.0,0.0,0.0,0.0,0.0,0.0,0.0,0.0,0.0,0.0,0.0,0.0,0.0,0.0,0.0,0.0,0.0,0.0,0.0,0.0,0.0,0.0,0.0,0.0,0.0,0.0,0.0,0.0,0.0,0.0,0.0,0.0,0.0,0.0,0.0,0.0,0.0,0.0,-1.8275,0.0,0.0,0.0,0.0,0.0,0.0,0.0,0.0,0.0,0.0,0.0,0.0,0.0,0.0,0.0,0.0,0.0,0.0,0.0,0.0,0.0,0.0,0.0,0.0,0.0,0.0,0.0,0.0,0.0,0.0,0.0,0.0,0.0,0.0,0.0,0.0,0.0,0.0,0.0,0.0,0.0,0.0,0.0,0.0,0.0,0.0,0.0,0.0,0.0,0.0,0.0,0.0,0.0,0.0,0.0,0.0,0.0,0.0,0.0,-2.8996,-3.032,-3.1674,-3.237,-3.2269,-3.0646,-2.8514,0.0,0.0,0.0,0.0,0.0,0.0,0.0,0.0,0.0,0.0,0.0,0.0,0.0,0.0,0.0,0.0,0.0,0.0,0.0,0.0,0.0,0.0,0.0,0.0,0.0,0.0,0.0,0.0,0.0,0.0,0.0,0.0,0.0,0.0,0.0,0.0,0.0,0.0,0.0,0.0,0.0,0.0,0.0,0.0,0.0,0.0,0.0,0.0,0.0,0.0,0.0,0.0,0.0,0.0,0.0,0.0,0.0,0.0,0.0,0.0,0.0,0.0,0.0,0.0,0.0,0.0,0.0,0.0,0.0,0.0,0.0,0.0,0.0,0.0,0.0,0.0,0.0,0.0,0.0,0.0,0.0,0.0,0.0,0.0,0.0,0.0,0.0,0.0,0.0,0.0,0.0,0.0,0.0,0.0,0.0,0.0,0.0,0.0,0.0,0.0,0.0,0.0,0.0,0.0,0.0,0.0,0.0,-2.7218,-2.9771,-3.142,-3.2093,-3.233,-3.2148,-3.0865,-2.8864,-2.61,0.0,0.0,0.0,0.0,0.0,0.0,0.0,0.0,0.0,0.0,0.0,0.0,0.0,0.0,0.0,0.0,0.0,0.0,0.0,0.0,0.0,0.0,0.0,0.0,0.0,0.0,0.0,0.0,0.0,0.0,0.0,0.0,0.0,0.0,0.0,0.0,0.0,0.0,-1.6036,-1.7578,0.0,0.0,0.0,0.0,0.0,0.0,0.0,0.0,-1.9957,0.0,0.0,0.0,0.0,0.0,0.0,0.0,0.0,0.0,0.0,0.0,0.0,0.0,0.0,0.0,0.0,0.0,0.0,0.0,0.0,0.0,0.0,0.0,0.0,0.0,0.0,0.0,0.0,0.0,0.0,0.0,0.0,0.0,0.0,0.0,0.0,0.0,0.0,0.0,0.0,0.0,0.0,0.0,0.0,0.0,0.0,0.0,0.0,0.0,0.0,0.0,0.0,0.0,0.0,0.0,0.0,-2.639,-2.6704,-2.8449,-3.1807,-3.2117,-3.2163,-3.2007,-3.0718,-2.8475,-2.5273,0.0,0.0,0.0,0.0,0.0,0.0,0.0,0.0,0.0,0.0,0.0,0.0,0.0,0.0,0.0,0.0,0.0,0.0,0.0,0.0,0.0,0.0,0.0,0.0,0.0,0.0,0.0,0.0,0.0,0.0,0.0,0.0,0.0,0.0,0.0,0.0,0.0,0.0,0.0,-2.0165,-2.0806,0.0,0.0,0.0,0.0,0.0,0.0,0.0,0.0,-2.0287,0.0,0.0,0.0,0.0,0.0,0.0,0.0,0.0,0.0,0.0,0.0,0.0,0.0,0.0,0.0,0.0,0.0,0.0,0.0,0.0,0.0,0.0,0.0,0.0,0.0,0.0,0.0,0.0,0.0,0.0,0.0,0.0,0.0,0.0,0.0,0.0,0.0,0.0,0.0,0.0,0.0,0.0,0.0,0.0,0.0,0.0,0.0,0.0,0.0,0.0,0.0,0.0,0.0,0.0,0.0,-2.5414,-2.7313,-2.9444,-3.1918,-3.2066,-3.187,-3.1336,-2.9414,-2.7049,0.0,0.0,0.0,0.0,0.0,0.0,0.0,0.0,0.0,0.0,0.0,0.0,0.0,0.0,0.0,0.0,0.0,0.0,0.0,0.0,0.0,0.0,0.0,0.0,0.0,0.0,0.0,0.0,0.0,0.0,0.0,0.0,0.0,0.0,0.0,0.0,0.0,0.0,0.0,0.0,-2.0556,-2.121,-2.1524,0.0,0.0,0.0,0.0,0.0,0.0,-2.0875,-2.1017,0.0,0.0,0.0,0.0,0.0,0.0,0.0,0.0,0.0,0.0,0.0,0.0,0.0,0.0,0.0,0.0,0.0,0.0,0.0,0.0,0.0,0.0,0.0,0.0,0.0,0.0,0.0,0.0,0.0,0.0,0.0,0.0,0.0,0.0,0.0,0.0,0.0,0.0,0.0,0.0,0.0,0.0,0.0,0.0,0.0,0.0,0.0,0.0,0.0,0.0,0.0,0.0,0.0,0.0,0.0,-2.3888,-2.7254,-2.9875,-3.1578,-3.1607,-3.1306,-3.0714,-2.8273,-2.5822,0.0,0.0,0.0,0.0,0.0,0.0,0.0,0.0,0.0,0.0,0.0,0.0,0.0,0.0,0.0,0.0,0.0,0.0,0.0,0.0,0.0,0.0,0.0,0.0,0.0,0.0,0.0,0.0,0.0,0.0,0.0,0.0,0.0,0.0,0.0,0.0,0.0,0.0,0.0,0.0,0.0,-2.1799,-2.2453,-2.227,0.0,0.0,0.0,0.0,-2.1537,-2.2023,0.0,0.0,0.0,0.0,0.0,0.0,0.0,0.0,0.0,0.0,0.0,0.0,0.0,0.0,0.0,0.0,0.0,0.0,0.0,0.0,0.0,0.0,0.0,0.0,0.0,0.0,0.0,0.0,0.0,0.0,0.0,0.0,0.0,0.0,0.0,0.0,0.0,0.0,0.0,0.0,0.0,0.0,0.0,0.0,0.0,0.0,0.0,0.0,0.0,0.0,0.0,0.0,0.0,0.0,0.0,0.0,-2.2877,-2.4682,-2.7255,-3.0471,-3.0265,-3.019,-3.049,-2.8569,-2.5887,0.0,0.0,0.0,0.0,0.0,0.0,0.0,0.0,0.0,0.0,0.0,0.0,0.0,0.0,0.0,0.0,0.0,0.0,0.0,0.0,0.0,0.0,0.0,0.0,0.0,0.0,0.0,0.0,0.0,0.0,0.0,0.0,0.0,0.0,0.0,0.0,0.0,0.0,0.0,0.0,0.0,-2.4168,-2.325,-2.3511,-2.3785,0.0,0.0,-2.3317,-2.4338,-2.4128,0.0,0.0,0.0,0.0,0.0,0.0,0.0,0.0,0.0,0.0,0.0,0.0,0.0,0.0,0.0,0.0,0.0,0.0,0.0,0.0,0.0,0.0,0.0,0.0,0.0,0.0,0.0,0.0,0.0,0.0,0.0,0.0,0.0,0.0,0.0,0.0,0.0,0.0,0.0,0.0,0.0,0.0,0.0,0.0,0.0,0.0,0.0,0.0,0.0,0.0,0.0,0.0,0.0,0.0,0.0,-2.027,-2.277,-2.5221,-2.761,-2.9864,-2.9796,-2.96,-2.9415,-2.6767,-2.4186,0.0,0.0,0.0,0.0,0.0,0.0,0.0,0.0,0.0,0.0,0.0,0.0,0.0,0.0,0.0,0.0,0.0,0.0,0.0,0.0,0.0,0.0,0.0,0.0,0.0,0.0,0.0,0.0,0.0,0.0,0.0,0.0,0.0,0.0,0.0,0.0,0.0,0.0,0.0,0.0,0.0,0.0,-2.4138,-2.4713,0.0,0.0,0.0,-2.4416,-2.4913,0.0,0.0,0.0,0.0,0.0,0.0,0.0,0.0,0.0,0.0,0.0,0.0,0.0,0.0,0.0,0.0,0.0,0.0,0.0,0.0,0.0,0.0,0.0,0.0,0.0,0.0,0.0,0.0,0.0,0.0,0.0,0.0,0.0,0.0,0.0,0.0,0.0,0.0,0.0,0.0,0.0,0.0,0.0,0.0,0.0,0.0,0.0,0.0,0.0,0.0,0.0,0.0,0.0,0.0,0.0,0.0,0.0,-2.254,-2.5556,-2.7839,-2.928,-2.9187,-2.8873,-2.8308,-2.542,0.0,0.0,0.0,0.0,0.0,0.0,0.0,0.0,0.0,0.0,0.0,0.0,0.0,0.0,0.0,0.0,0.0,0.0,0.0,0.0,0.0,0.0,0.0,0.0,0.0,0.0,0.0,-1.073,0.0,0.0,0.0,0.0,0.0,0.0,0.0,0.0,0.0,0.0,0.0,0.0,0.0,0.0,-2.3579,-2.5018,-2.568,-2.5929,0.0,0.0,-2.5424,-2.5437,-2.504,-2.423,0.0,0.0,0.0,0.0,0.0,0.0,0.0,0.0,0.0,0.0,0.0,0.0,0.0,0.0,0.0,0.0,0.0,0.0,0.0,0.0,0.0,0.0,0.0,0.0,0.0,0.0,0.0,0.0,0.0,0.0,0.0,0.0,0.0,0.0,0.0,0.0,0.0,0.0,0.0,0.0,0.0,0.0,0.0,0.0,0.0,0.0,0.0,0.0,0.0,0.0,0.0,0.0,0.0,0.0,0.0,-2.1789,-2.4388,-2.6707,-2.8562,-2.8064,-2.772,-2.763,-2.5621,-2.3039,0.0,0.0,0.0,0.0,0.0,0.0,0.0,0.0,0.0,0.0,0.0,0.0,0.0,0.0,0.0,0.0,0.0,0.0,0.0,0.0,0.0,0.0,0.0,0.0,0.0,0.0,0.0,0.0,0.0,0.0,0.0,0.0,0.0,0.0,0.0,0.0,0.0,0.0,0.0,0.0,0.0,-2.5027,-2.568,-2.6255,-2.6791,0.0,0.0,-2.6601,-2.6588,-2.6549,-2.5576,-2.2858,0.0,0.0,0.0,0.0,0.0,0.0,0.0,0.0,0.0,0.0,0.0,0.0,0.0,0.0,0.0,0.0,0.0,0.0,0.0,0.0,0.0,0.0,0.0,0.0,0.0,0.0,0.0,0.0,0.0,0.0,0.0,0.0,0.0,0.0,0.0,0.0,0.0,0.0,0.0,0.0,0.0,0.0,0.0,0.0,0.0,0.0,0.0,0.0,0.0,0.0,0.0,0.0,0.0,-1.9268,-2.168,-2.4283,-2.6378,-2.7899,-2.7735,-2.7405,-2.7001,-2.5162,-2.2943,0.0,0.0,0.0,0.0,0.0,0.0,0.0,0.0,0.0,0.0,0.0,0.0,0.0,0.0,0.0,0.0,0.0,0.0,0.0,0.0,0.0,0.0,0.0,0.0,0.0,0.0,0.0,0.0,-1.3016,-1.3657,-1.4154,0.0,0.0,0.0,0.0,0.0,0.0,0.0,0.0,0.0,0.0,-2.4896,-2.6164,-2.6831,0.0,0.0,-2.7307,-2.7196,-2.7196,-2.634,-2.5031,-2.3197,-2.2126,0.0,0.0,0.0,0.0,0.0,0.0,0.0,0.0,0.0,0.0,0.0,0.0,0.0,0.0,0.0,0.0,0.0,0.0,0.0,0.0,0.0,0.0,0.0,0.0,0.0,0.0,0.0,0.0,0.0,0.0,0.0,0.0,0.0,0.0,0.0,0.0,0.0,0.0,0.0,0.0,0.0,0.0,0.0,0.0,0.0,0.0,0.0,0.0,0.0,0.0,0.0,0.0,-1.9208,-2.168,-2.4283,-2.6243,-2.7555,-2.7405,-2.6912,-2.6094,-2.4476,-2.2486,0.0,0.0,0.0,0.0,0.0,0.0,0.0,0.0,0.0,0.0,0.0,0.0,0.0,0.0,0.0,0.0,0.0,0.0,0.0,0.0,0.0,0.0,0.0,0.0,0.0,0.0,0.0,0.0,-1.3529,-1.4046,-1.4271,0.0,0.0,0.0,0.0,0.0,0.0,0.0,0.0,0.0,0.0,-2.5184,-2.6713,-2.7275,-2.7503,-2.7503,-2.7503,-2.7372,-2.7046,-2.6151,-2.5057,-2.3694,0.0,0.0,0.0,0.0,0.0,0.0,0.0,0.0,0.0,0.0,0.0,0.0,0.0,0.0,0.0,0.0,0.0,0.0,0.0,0.0,0.0,0.0,0.0,0.0,0.0,0.0,0.0,0.0,0.0,0.0,-1.5568,0.0,0.0,0.0,0.0,0.0,0.0,0.0,0.0,0.0,0.0,0.0,0.0,0.0,0.0,0.0,0.0,0.0,0.0,0.0,0.0,0.0,0.0,-1.9675,-2.168,-2.4283,-2.6228,-2.751,-2.6971,-2.6085,-2.4946,-2.3624,-2.1633,-1.8966,0.0,0.0,0.0,0.0,0.0,0.0,0.0,0.0,0.0,0.0,0.0,0.0,0.0,0.0,0.0,0.0,0.0,0.0,0.0,0.0,0.0,0.0,0.0,0.0,0.0,0.0,-1.3336,-1.3975,-1.4156,0.0,0.0,0.0,0.0,0.0,0.0,0.0,0.0,0.0,0.0,-2.5049,-2.6171,-2.7294,-2.749,-2.7503,-2.7503,-2.7503,-2.7124,-2.6067,-2.6282,-2.6073,0.0,0.0,0.0,0.0,0.0,0.0,0.0,0.0,0.0,0.0,0.0,0.0,0.0,0.0,0.0,0.0,0.0,0.0,0.0,0.0,0.0,0.0,0.0,0.0,0.0,0.0,0.0,-1.9299,-1.8719,0.0,0.0,0.0,0.0,0.0,0.0,0.0,0.0,0.0,0.0,0.0,-2.29,-2.3183,0.0,0.0,0.0,0.0,0.0,0.0,0.0,0.0,0.0,0.0,0.0,0.0,-1.9899,-2.2343,-2.4507,-2.589,-2.6463,-2.6247,-2.5369,-2.3749,-2.2947,-2.1399,-1.8954,0.0,0.0,0.0,0.0,0.0,0.0,0.0,0.0,0.0,0.0,0.0,0.0,0.0,0.0,0.0,0.0,0.0,0.0,0.0,0.0,0.0,0.0,0.0,0.0,0.0,-1.3275,0.0,0.0,0.0,0.0,0.0,0.0,0.0,0.0,0.0,0.0,0.0,-2.308,-2.5001,-2.5903,-2.6661,-2.7398,-2.7503,-2.7503,0.0,0.0,0.0,0.0,0.0,0.0,0.0,0.0,0.0,0.0,0.0,0.0,0.0,0.0,-2.4142,-2.1941,-2.1074,-2.0729,-2.088,0.0,0.0,0.0,0.0,0.0,0.0,0.0,0.0,0.0,0.0,0.0,0.0,0.0,0.0,-2.1225,0.0,-1.9784,0.0,0.0,0.0,0.0,0.0,0.0,0.0,0.0,-2.3565,-2.4732,-2.5506,-2.5591,-2.5153,0.0,-2.3674,-2.1959,0.0,0.0,0.0,0.0,0.0,0.0,0.0,0.0,-2.0483,-2.2673,-2.4401,-2.5467,-2.585,-2.5459,-2.4476,-2.2927,-2.1958,-2.0777,-1.9287,-1.7774,-1.6702,0.0,0.0,0.0,0.0,0.0,0.0,0.0,0.0,0.0,0.0,0.0,0.0,0.0,0.0,0.0,0.0,0.0,0.0,0.0,0.0,0.0,0.0,0.0,-1.3374,0.0,0.0,0.0,0.0,0.0,0.0,0.0,0.0,0.0,-2.1342,-2.2929,-2.4567,-2.6025,-2.6642,-2.715,-2.753,0.0,0.0,0.0,0.0,0.0,0.0,0.0,-2.6517,-2.6603,-2.6186,-2.5649,-2.5259,-2.5986,-2.6383,-2.5699,0.0,0.0,-2.3834,-2.3124,-2.2888,-2.3018,-2.3056,-2.2951,-2.2703,-2.2937,-2.3088,0.0,0.0,0.0,0.0,0.0,0.0,0.0,0.0,-2.2951,-2.3125,0.0,-2.2058,0.0,0.0,0.0,0.0,0.0,-2.3009,0.0,0.0,-2.7177,-2.8128,-2.7965,-2.7252,-2.6886,-2.6871,-2.666,-2.5555,-2.3535,-2.0468,0.0,0.0,0.0,0.0,0.0,0.0,-2.1425,-2.2787,-2.4124,-2.5125,-2.5756,-2.4639,-2.349,-2.234,-2.0733,-1.9852,-1.9786,-1.8754,-1.7852,-1.7225,-1.5591,0.0,0.0,0.0,0.0,0.0,0.0,0.0,0.0,0.0,0.0,0.0,0.0,0.0,0.0,0.0,0.0,0.0,0.0,0.0,0.0,-1.291,0.0,0.0,0.0,0.0,0.0,0.0,0.0,0.0,0.0,0.0,-2.2904,-2.4425,-2.5917,-2.6883,0.0,0.0,0.0,0.0,-2.7696,-2.8058,-2.8274,-2.8412,-2.8412,-2.8856,-2.893,-2.82,0.0,0.0,-2.6499,-2.6956,-2.7056,-2.5405,-2.59,-2.6487,-2.6411,-2.546,-2.4983,-2.541,-2.4732,-2.4305,-2.4687,-2.477,-2.482,-3.0666,0.0,0.0,0.0,0.0,-2.6589,-2.6912,-2.7875,-2.7091,-2.63,-2.5487,-2.5124,0.0,0.0,0.0,0.0,0.0,0.0,-2.5341,-2.7276,-2.7838,-2.854,-2.9416,-2.9078,-2.8695,-2.8212,-2.7605,-2.6776,-2.5689,-2.3849,-2.1615,-1.9181,0.0,0.0,0.0,0.0,-2.2757,-2.4051,-2.5375,-2.559,-2.4615,-2.4258,-2.3153,-2.1237,-2.0708,-2.0425,-2.0425,-1.9732,-1.8858,-1.7878,-1.695,0.0,0.0,0.0,0.0,0.0,0.0,0.0,0.0,0.0,0.0,0.0,0.0,0.0,0.0,0.0,0.0,0.0,0.0,0.0,-1.3493,-1.3758,-1.4488,0.0,0.0,0.0,0.0,0.0,0.0,0.0,0.0,0.0,-2.5832,-2.6314,-2.6814,0.0,0.0,-2.8158,-2.7844,-2.8081,-2.8335,-2.8466,0.0,0.0,0.0,-2.8347,-2.8283,-2.8418,-2.8515,-2.8356,-2.785,-2.7569,-2.7236,-2.6697,-2.6537,-2.6487,-2.6474,-2.626,-2.6084,-2.6185,-2.5984,-2.5845,-2.5984,-2.6021,-2.6021,-3.4945,-3.2391,-3.0922,-3.0309,-3.0249,-2.9324,-2.9412,-3.0102,-2.9465,-2.8889,-2.8374,-2.8104,-2.6919,-2.5087,-2.4548,0.0,0.0,0.0,-2.7306,-2.9317,-2.9132,-2.9478,-3.0154,-3.0117,-2.9609,-2.8722,-2.8225,-2.766,-2.6976,-2.6183,-2.4537,-2.2113,0.0,0.0,-2.1291,-2.2712,-2.3947,-2.4955,-2.5624,-2.5329,-2.4134,-2.3217,-2.2079,-2.0763,-2.0699,-2.0594,-2.0347,-1.9982,-1.9277,-1.8153,-1.7525,-1.6258,0.0,0.0,0.0,0.0,0.0,0.0,0.0,0.0,0.0,0.0,0.0,-1.22,0.0,0.0,0.0,0.0,-1.2838,-1.3882,-1.5281,-1.5776,0.0,0.0,0.0,0.0,0.0,0.0,0.0,-2.4764,-2.5649,-2.6578,-2.777,-2.7824,-2.7891,-2.8196,-2.8443,-2.8505,-2.8259,0.0,-2.8656,-2.8813,-2.8912,-2.9038,-2.9242,-2.9061,-2.8935,-2.9169,-2.9073,-2.8873,-2.8621,-2.822,-2.7871,-2.7632,-2.7344,-2.7077,-2.6864,-2.6826,-2.6738,-2.6537,-2.6487,-2.6487,-2.6487,-2.6487,-2.6487,-3.8075,-3.777,-3.4286,-3.2645,-3.2252,-3.1519,-3.1077,-3.0798,-3.0674,-3.094,-3.1413,-3.0782,-3.0109,-2.9387,-2.8196,0.0,-2.8649,-2.9108,-2.9942,-3.1043,-3.0862,-3.0709,-3.0582,-3.0582,-2.9939,-2.8757,-2.8697,-2.8323,-2.769,-2.7615,-2.6971,-2.5764,-2.4537,-2.3834,-2.3729,-2.4395,-2.5053,-2.5666,-2.5326,-2.4801,-2.4094,-2.1911,-2.0725,-2.062,-2.0646,-2.0347,-1.976,-1.9734,-1.9224,-1.8153,-1.7565,-1.6493,-1.4851,0.0,0.0,0.0,0.0,0.0,0.0,0.0,0.0,0.0,0.0,0.0,0.0,0.0,0.0,0.0,-1.5374,0.0,-1.7498,-1.853,0.0,0.0,0.0,-2.1446,-2.2619,-2.4073,-2.5435,-2.6562,0.0,0.0,-2.8888,0.0,-2.8988,-2.8963,-2.8795,-2.874,-2.8888,-2.877,-2.8826,-2.9212,-2.9413,-2.9704,-3.0087,-3.0164,-3.0113,-2.9961,-2.9946,-2.9553,-2.9101,-2.8863,-2.8662,-2.826,-2.8134,-2.7908,-2.7381,-2.7278,-2.714,-2.6587,-2.6487,-2.6487,-2.6487,-2.6487,-2.6487,-3.9563,-3.9469,-3.8007,-3.6812,-3.5819,-3.5187,-3.4632,-3.4113,-3.3116,-3.249,-3.2105,-3.1443,-3.0797,-3.014,-2.9817,-2.9997,-3.0547,-3.0674,-3.1046,-3.1585,-3.1571,-3.1443,-3.1256,-3.1256,-3.0838,-3.0058,-2.9564,-2.8996,-2.8353,-2.7839,-2.7435,-2.7136,-2.6806,-2.5884,-2.447,-2.554,-2.6198,-2.6348,-2.6767,-2.6025,-2.4148,-2.2276,-2.0897,-2.0035,-2.0009,-1.9734,-1.9146,-1.912,-1.8806,-1.814,-1.7957,-1.7303,-1.6042,-1.4746,0.0,0.0,0.0,0.0,0.0,0.0,0.0,0.0,0.0,-1.5422,-1.3173,0.0,-1.6619,0.0,-1.7953,-1.8932,-1.9208,-1.9887,0.0,0.0,-2.3376,-2.413,-2.6465,-2.6716,-2.7118,-2.8222,-2.8574,-2.895,-2.9528,-2.9578,-2.9591,-2.9578,-2.9542,-2.9353,-2.9001,-2.9252,-2.9542,-2.9605,-2.9668,-2.9795,-2.9908,-2.9946,-2.9921,-2.9869,-2.983,-2.9741,-2.9603,-2.9176,-2.8838,-2.87,-2.8373,-2.7934,-2.7454,-2.7329,-2.7128,-2.6637,-2.6487,-2.6487,-2.6487,-2.6487,-2.6487,-4.0113,-4.0062,-3.9673,-3.9076,-3.8355,-3.7138,-3.6152,-3.5343,-3.4613,-3.3929,-3.3303,-3.2625,-3.1921,-3.1278,-3.1225,-3.137,-3.1625,-3.1518,-3.1591,-3.1799,-3.1698,-3.1597,-3.1496,-3.1496,-3.1152,-3.0507,-3.0148,-2.9505,-2.8607,-2.8244,-2.7899,-2.76,-2.7585,-2.7046,-2.6019,-2.6686,-2.6922,-2.6646,-2.6242,-2.5289,-2.3726,-2.2246,-2.108,-2.0242,-2.0203,-1.9669,-1.8584,-1.8757,-1.8532,-1.7748,-1.7695,-1.7303,-1.6441,-1.5698,-1.4772,0.0,0.0,0.0,0.0,0.0,0.0,0.0,0.0,0.0,0.0,0.0,-1.8568,0.0,-2.0112,-2.1129,-2.1631,-2.264,-2.3998,-2.5737,-2.5862,-2.6527,-2.8261,-2.8197,-2.8348,-2.9214,-2.9276,-2.944,-2.9741,-2.9779,-2.9779,-2.9779,-2.9779,-2.9679,-2.9402,-2.9603,-2.9779,-2.9779,-2.9779,-2.9779,-2.9779,-2.9779,-2.9779,-2.9779,-2.9779,-2.9779,-2.9779,-2.9528,-2.9315,-2.9289,-2.9063,-2.8687,-2.8134,-2.7808,-2.7505,-2.7002,-2.6663,-2.6512,-2.6487,-2.6487,-2.6487,-4.0113,-4.0113,-4.0113,-4.0045,-3.9868,-3.8094,-3.6773,-3.5768,-3.5505,-3.5073,-3.4459,-3.3842,-3.3167,-3.2536,-3.2397,-3.2295,-3.2163,-3.194,-3.1813,-3.1784,-3.1597,-3.1496,-3.1496,-3.1496,-3.1197,-3.0642,-3.0552,-2.9939,-2.8861,-2.8682,-2.8319,-2.775,-2.7645,-2.7585,-2.7585,-2.7585,-2.7306,-2.6695,-2.5116,-2.3986,-2.3323,-2.2205,-2.1315,-2.0738,-2.0568,-1.9732,-1.8192,-1.8545,-1.8336,-1.7382,-1.7382,-1.7173,-1.6637,-1.6611,-1.6068,0.0,-1.5302,0.0,0.0,0.0,0.0,0.0,0.0,0.0,0.0,-1.9974,-2.0627,-2.1081,-2.2146,-2.3251,-2.423,-2.5707,-2.6851,-2.7431,-2.7921,-2.8423,-2.8963,-2.9001,-2.9239,-2.9729,-2.9779,-2.9779,-2.9779,-2.9779,-2.9779,-2.9779,-2.9779,-2.9767,-2.9779,-2.9779,-2.9779,-2.9779,-2.9779,-2.9779,-2.9779,-2.9779,-2.9779,-2.9779,-2.9779,-2.9779,-2.9779,-2.9779,-2.9767,-2.9767,-2.9729,-2.9528,-2.9001,-2.8511,-2.8009,-2.7381,-2.6939,-2.6612,-2.6512,-2.6487,-2.6487,-4.0113,-4.0113,-4.0113,-3.9799,-3.9348,-3.8977,-3.84,-3.7645,-3.6131,-3.5116,-3.4505,-3.4366,-3.3875,-3.3229,-3.3185,-3.2808,-3.2206,-3.2053,-3.1927,-3.1799,-3.1597,-3.1496,-3.1496,-3.1496,-3.1436,-3.1271,-3.0776,-3.0387,-3.0118,-2.9101,-2.8532,-2.8382,-2.7869,-2.7585,-2.7585,0.0,0.0,0.0,-2.5901,-2.497,-2.3946,-2.2816,-2.1734,-2.0725,-1.9758,0.0,-1.8153,-1.8192,-1.8166,-1.7957,-1.8349,0.0,0.0,0.0,0.0,0.0,0.0,0.0,0.0,0.0,0.0,0.0,-2.0103,-2.0038,-2.0402,-2.2498,-2.374,-2.3452,-2.4789,-2.5795,-2.6009,-2.67,-2.7519,-2.8499,-2.8675,-2.8988,-2.9541,-2.9616,-2.9679,-2.9767,-2.9779,-2.9779,-2.9779,-2.9779,-2.9779,-2.9779,-2.9779,-2.9779,-2.9779,-2.9779,-2.9779,-2.9779,-2.9779,-2.9779,-2.9779,-2.9779,-2.9779,-2.9779,-2.9779,-2.9779,-2.9779,-2.9779,-2.9779,-2.9779,-2.9779,-2.9616,-2.9063,-2.88,-2.8411,-2.7482,-2.7241,-2.7027,-2.6587,-2.6487,-2.6487,-4.0113,0.0,-4.0113,-3.9747,0.0,-3.8892,-3.8407,-3.7793,-3.6861,-3.5885,-3.4998,-3.4998,-3.4398,-3.3398,-3.3312,-3.2903,-3.2191,-3.1996,-3.187,-3.1799,-3.1597,-3.1496,-3.1496,-3.1496,-3.1496,-3.1481,-3.1152,-3.0808,-3.0492,-2.9864,-2.922,-2.8592,-2.8248,-2.7929,-2.76,-2.7585,-2.7163,-2.6256,-2.5687,-2.4968,-2.4111,-2.3247,-2.227,-2.1145,0.0,0.0,0.0,0.0,0.0,0.0,0.0,0.0,0.0,0.0,0.0,-1.8509,-1.9183,-1.9616,-1.9679,-2.0075,-2.0759,-2.1849,-2.2464,-2.2686,-2.2363,-2.4092,-2.5209,-2.5267,-2.6034,-2.6612,-2.6889,-2.7369,-2.8021,-2.8787,-2.9151,-2.949,-2.9729,-2.9779,-2.9779,-2.9779,-2.9779,-2.9779,-2.9779,-2.9779,-2.9779,-2.9779,-2.9779,-2.9779,-2.9779,-2.9779,-2.9779,-2.9779,-2.9779,-2.9779,-2.9779,-2.9779,-2.9779,-2.9779,-2.9779,-2.9779,-2.9779,-2.9779,-2.9779,-2.9779,-2.9779,-2.9666,-2.9428,-2.9088,-2.87,-2.8185,-2.7645,-2.7278,-2.6939,-2.6688,-2.6487,-4.0113,-4.0113,-4.0113,-3.9747,-3.9135,-3.8673,-3.8055,-3.7371,0.0,0.0,0.0,-3.5676,-3.4968,-3.3783,-3.3545,-3.3073,-3.2402,-3.2029,-3.1841,-3.1813,-3.1597,-3.1496,-3.1496,-3.1496,-3.1496,-3.1496,-3.1496,-3.1212,-3.0687,-3.0567,-2.9924,-2.8861,-2.8667,-2.8274,-2.763,-2.7585,-2.7008,-2.5837,-2.5384,-2.482,-2.4128,-2.3524,-2.2752,-2.1825,-2.1616,-2.0832,-1.9433,-1.9839,-1.9878,-1.9407,-1.946,-1.9473,-1.9407,-2.0399,-2.0961,-2.0883,-2.1812,-2.244,-2.2544,-2.2421,-2.2583,-2.3228,-2.4369,-2.4779,-2.4167,-2.5134,-2.5984,-2.6461,-2.6487,-2.6763,-2.7356,-2.7821,-2.8373,-2.8976,-2.9503,-2.9779,-2.9779,-2.9779,-2.9779,-2.9779,-2.9779,-2.9779,-2.9779,-2.9779,-2.9779,-2.9779,-2.9779,-2.9779,-2.9779,-2.9779,-2.9779,-2.9779,-2.9779,-2.9779,-2.9779,-2.9779,-2.9779,-2.9779,-2.9779,-2.9779,-2.9779,-2.9779,-2.9779,-2.9779,-2.9779,-2.9779,-2.9754,-2.9428,-2.8976,-2.8787,-2.8072,-2.7356,-2.7178,-2.6813,-2.6499,-4.0113,-4.0113,-4.0113,-3.9747,-3.9189,-3.9125,-3.8423,-3.7371,-3.6846,-3.6523,-3.6353,-3.6338,-3.5907,-3.5183,-3.4583,-3.3908,-3.3187,-3.2353,-3.1968,0.0,-3.1655,-3.1496,-3.1496,-3.1496,-3.1496,-3.1496,-3.1496,-3.1451,-3.1301,-3.0791,-3.0133,-2.9472,-2.8876,-2.8248,-2.7645,-2.7585,-2.7008,-2.5837,-2.5742,-2.5175,-2.4128,-2.3524,-2.3117,-2.2921,-2.1994,-2.1394,-2.1133,-2.1224,-2.1224,-2.1159,-2.1642,-2.1681,-2.1185,-2.1773,-2.193,-2.1459,-2.2022,-2.261,-2.3054,-2.2953,-2.3289,-2.4219,-2.4884,-2.509,-2.4745,-2.5745,-2.6399,-2.6487,-2.6487,-2.6927,-2.7833,-2.8059,-2.8524,-2.9478,-2.9729,-2.9779,-2.9779,-2.9779,-2.9779,-2.9779,-2.9779,-2.9779,-2.9779,-2.9779,-2.9779,-2.9779,-2.9779,-2.9779,-2.9779,-2.9779,-2.9779,-2.9779,-2.9779,-2.9779,-2.9779,-2.9779,-2.9779,-2.9779,-2.9779,-2.9779,-2.9779,-2.9779,-2.9779,-2.9779,-2.9779,-2.9779,-2.9779,-2.9754,-2.9302,-2.8624,-2.8134,-2.7708,-2.6977,-2.6637,-2.6499,-4.0113,-4.0113,-4.0113,-3.9747,-3.9135,-3.8507,-3.7738,-3.6922,-3.6647,-3.6492,-3.6492,-3.6492,-3.6107,-3.546,-3.4813,-3.4091,-3.3367,-3.2497,-3.2107,-3.2094,-3.1783,-3.167,-3.1655,-3.1539,-3.1496,-3.1496,-3.1496,-3.1496,-3.1466,-3.1182,-3.0539,-2.9606,-2.8588,-2.7914,-2.7615,-2.7585,-2.7163,-2.631,-2.5946,-2.5258,-2.4141,-2.3851,-2.355,-2.3195,-2.266,-2.2296,-2.2008,-2.2008,-2.1995,-2.1969,-2.223,-2.2269,-2.2034,-2.2518,-2.2714,-2.2479,-2.2988,-2.342,-2.3681,-2.3621,-2.3884,-2.458,-2.5086,-2.5467,-2.5586,-2.6303,-2.6726,-2.6624,-2.6624,-2.7009,-2.7984,-2.8109,-2.8561,-2.9679,-2.9779,-2.9779,-2.9779,-2.9779,-2.9779,-2.9779,-2.9779,-2.9779,-2.9779,-2.9779,-2.9779,-2.9779,-2.9779,-2.9779,-2.9779,-2.9779,-2.9779,-2.9779,-2.9779,-2.9779,-2.9779,-2.9779,-2.9779,-2.9779,-2.9779,-2.9779,-2.9779,-2.9779,-2.9779,-2.9779,-2.9779,-2.9779,-2.9779,-2.9779,-2.9528,-2.9214,-2.8448,-2.7896,-2.7431,-2.6964,-2.6512,-4.0113,-4.0113,-4.0113,-3.9731,-3.9125,-3.8055,-3.7268,-3.6723,-3.6585,-3.6492,-3.6492,-3.6492,-3.6199,-3.5691,-3.4874,-3.4197,-3.3554,-3.2658,-3.2191,-3.2163,-3.1968,-3.1813,-3.1784,-3.1626,-3.1539,-3.1496,-3.1496,-3.1496,-3.1496,-3.1496,-3.0913,-2.9774,-2.8483,-2.7809,-2.7824,-2.7675,-2.7306,-2.6736,-2.6244,-2.5453,-2.4374,-2.4171,-2.3861,-2.3443,-2.342,-2.3182,-2.2791,-2.2792,-2.2779,-2.2794,-2.2779,-2.2765,-2.2805,-2.3197,-2.342,-2.343,-2.3835,-2.4125,-2.4125,-2.4243,-2.4484,-2.4909,-2.5449,-2.5987,-2.6438,-2.6855,-2.6977,-2.676,-2.6692,-2.7101,-2.7967,-2.8146,-2.8549,-2.9654,-2.9818,-2.9779,-2.9779,-2.9779,-2.9779,-2.9779,-2.9779,-2.9779,-2.9779,-2.9779,-2.9779,-2.9779,-2.9779,-2.9779,-2.9779,-2.9779,-2.9779,-2.9779,-2.9779,-2.9779,-2.9779,-2.9779,-2.9779,-2.9779,-2.9779,-2.9779,-2.9779,-2.9779,-2.9779,-2.9779,-2.9779,-2.9779,-2.9779,-2.9779,-2.9628,-2.9264,-2.8561,-2.8009,-2.7582,-2.704,-2.6512,-4.0113,-4.0113,-4.0113,-3.9747,-3.9135,-3.849,-3.7883,-3.7268,-3.6754,-3.6492,-3.6492,-3.6492,-3.6461,-3.6261,-3.5075,-3.4428,-3.4229,-3.2872,-3.2191,-3.2191,-3.2053,-3.1927,-3.1813,-3.1784,-3.1683,-3.1511,-3.1496,-3.1496,-3.1496,-3.1481,-3.1107,-3.0342,-2.9146,-2.8502,-2.8457,-2.7914,-2.7321,-2.6709,-2.6642,-2.6055,-2.4977,-2.439,-2.4086,-2.4018,-2.4034,-2.4008,-2.389,-2.3939,-2.3955,-2.3955,-2.3929,-2.3942,-2.3942,-2.3979,-2.4021,-2.3992,-2.4086,-2.4125,-2.4151,-2.4626,-2.5118,-2.5662,-2.6211,-2.6772,-2.7254,-2.7384,-2.7235,-2.6863,-2.6726,-2.7208,-2.8174,-2.8243,-2.8685,-2.9846,-2.9908,-2.9779,-2.9779,-2.9779,-2.9779,-2.9779,-2.9779,-2.9779,-2.9779,-2.9779,-2.9779,-2.9779,-2.9779,-2.9779,-2.9779,-2.9779,-2.9779,-2.9779,-2.9779,-2.9779,-2.9779,-2.9779,-2.9779,-2.9779,-2.9779,-2.9779,-2.9779,-2.9779,-2.9779,-2.9779,-2.9779,-2.9779,-2.9779,-2.9754,-2.944,-2.88,-2.8273,-2.7795,-2.6977,-2.6587,-2.6487,-4.0113,-4.0113,-4.0113,-3.9747,-3.9206,-3.8947,-3.8266,-3.7371,-3.7148,-3.6831,-3.6523,-3.6492,-3.6492,-3.6415,-3.5106,-3.4489,-3.4382,-3.2988,-3.233,-3.2315,-3.2206,-3.2053,-3.1912,-3.1813,-3.1698,-3.1511,-3.1496,-3.1496,-3.1436,-3.1092,-3.0776,-3.0447,-2.9609,-2.9175,-2.9131,-2.8517,-2.807,-2.7794,-2.7083,-2.6472,-2.5947,-2.5104,-2.4649,-2.4591,-2.4287,-2.4125,-2.4125,-2.4125,-2.4125,-2.4125,-2.4125,-2.4125,-2.4125,-2.4125,-2.4125,-2.4125,-2.4125,-2.424,-2.4596,-2.4874,-2.5398,-2.6255,-2.6575,-2.6922,-2.7425,-2.7503,-2.7369,-2.7134,-2.7053,-2.7494,-2.8377,-2.8497,-2.8881,-2.9859,-3.0011,-2.9934,-2.9792,-2.9779,-2.9779,-2.9779,-2.9779,-2.9779,-2.9779,-2.9779,-2.9779,-2.9779,-2.9779,-2.9779,-2.9779,-2.9779,-2.9779,-2.9779,-2.9779,-2.9779,-2.9779,-2.9779,-2.9779,-2.9779,-2.9779,-2.9779,-2.9779,-2.9779,-2.9779,-2.9779,-2.9779,-2.9779,-2.9779,-2.9754,-2.9515,-2.8662,-2.7858,-2.7404,-2.6637,-2.6487,-2.6487,-4.0113,-4.0113,-4.0113,-3.9747,-3.9206,-3.9028,-3.8367,-3.7447,-3.7238,-3.6892,-3.6523,-3.6492,-3.6492,-3.6322,-3.529,-3.469,-3.4351,-3.3213,-3.2567,-3.2413,-3.2287,-3.2191,-3.2038,-3.1927,-3.1756,-3.1597,-3.1539,-3.1496,-3.1451,-3.1032,-3.0791,-3.0702,-3.0148,-2.9834,-2.9774,-2.919,-2.8771,-2.8525,-2.7653,-2.7135,-2.6843,-2.5974,-2.5328,-2.5005,-2.4591,-2.4258,-2.4125,-2.4125,-2.4125,-2.4125,-2.4125,-2.4125,-2.4125,-2.4125,-2.4125,-2.4109,-2.4269,-2.453,-2.4979,-2.5293,-2.5816,-2.6588,-2.6837,-2.7079,-2.7398,-2.7503,-2.7469,-2.7356,-2.7369,-2.7734,-2.8627,-2.8726,-2.9153,-3.0088,-3.0228,-3.0113,-3.0011,-2.9946,-2.9908,-2.9895,-2.9818,-2.9779,-2.9779,-2.9779,-2.9779,-2.9779,-2.9779,-2.9779,-2.9779,-2.9779,-2.9779,-2.9779,-2.9779,-2.9779,-2.9779,-2.9779,-2.9779,-2.9779,-2.9779,-2.9779,-2.9779,-2.9779,-2.9779,-2.9779,-2.9779,-2.9767,-2.9729,-2.9704,-2.9239,-2.8549,-2.7745,-2.7027,-2.6587,-2.6499,-2.6487,-4.0113,-4.0113,-4.0113,-3.9773,-3.9179,-3.8657,-3.8055,-3.7431,-3.6877,-3.6554,-3.6523,-3.6492,-3.6492,-3.6445,-3.5768,-3.5106,-3.4459,-3.366,-3.2967,-3.2444,-3.2398,-3.2315,-3.2191,-3.2081,-3.1912,-3.1756,-3.1612,-3.1496,-3.1496,-3.1466,-3.1451,-3.1391,-3.0763,-3.0462,-3.0387,-2.9849,-2.9235,-2.8745,-2.8528,-2.8196,-2.7593,-2.6948,-2.6125,-2.5146,-2.4935,-2.4664,-2.4171,-2.4125,-2.4125,-2.4125,-2.4125,-2.4125,-2.4125,-2.4125,-2.4125,-2.4161,-2.4652,-2.4966,-2.5175,-2.5986,-2.6627,-2.6784,-2.7157,-2.7451,-2.7477,-2.7503,-2.7503,-2.7503,-2.7469,-2.7905,-2.8792,-2.8856,-2.9248,-3.0377,-3.0482,-3.0368,-3.0368,-3.0152,-3.0075,-3.0049,-2.9908,-2.9792,-2.9779,-2.9779,-2.9779,-2.9779,-2.9779,-2.9779,-2.9779,-2.9779,-2.9779,-2.9779,-2.9779,-2.9779,-2.9779,-2.9779,-2.9779,-2.9779,-2.9779,-2.9779,-2.9779,-2.9779,-2.9779,-2.9779,-2.9779,-2.9754,-2.9691,-2.9239,-2.8511,-2.7821,-2.7216,-2.66,-2.6512,-2.6499,-2.6487,-4.0113,-4.0113,-4.0113,-3.9969,-3.9773,-3.9532,-3.8903,-3.7998,-3.7767,-3.7193,-3.6569,-3.6492,-3.6492,-3.6492,-3.6245,-3.5522,-3.4505,-3.3721,-3.3044,-3.2444,-3.2398,-3.2315,-3.2191,-3.2135,-3.2025,-3.1813,-3.1742,-3.1626,-3.1496,-3.1496,-3.1496,-3.1481,-3.1271,-3.1122,-3.1017,-3.0507,-3.0028,-2.9789,-2.9445,-2.8891,-2.8293,-2.8036,-2.7171,-2.5605,-2.5188,-2.4734,-2.4112,-2.4125,-2.4125,-2.4125,-2.4125,-2.4125,-2.4125,-2.4125,-2.4295,-2.4635,-2.4887,-2.5319,-2.6012,-2.647,-2.6876,-2.7196,-2.7359,-2.7503,-2.7503,-2.7503,-2.7503,-2.7503,-2.7503,-2.7978,-2.8877,-2.9132,-2.9359,-2.9986,-3.039,-3.0457,-3.0267,-3.0113,-3.0049,-2.9946,-2.983,-2.9779,-2.9779,-2.9779,-2.9779,-2.9779,-2.9779,-2.9779,-2.9779,-2.9779,-2.9779,-2.9779,-2.9779,-2.9779,-2.9779,-2.9779,-2.9779,-2.9779,-2.9779,-2.9779,-2.9779,-2.9779,-2.9779,-2.9691,-2.9716,-2.9553,-2.9377,-2.8536,-2.7808,-2.748,-2.6801,-2.6549,-2.6487,-2.6487,-2.6487,-4.0113,-4.0113,-4.0113,-4.0113,-4.007,-3.9876,-3.9242,-3.8322,-3.8096,-3.746,-3.6631,-3.6492,-3.6492,-3.6492,-3.6492,-3.5753,-3.4551,-3.3952,-3.326,-3.2459,-3.2398,-3.2342,-3.2259,-3.2178,-3.2038,-3.1855,-3.1756,-3.1641,-3.1511,-3.1496,-3.1496,-3.1496,-3.1496,-3.1496,-3.1406,-3.1032,-3.0761,-3.0477,-3.0073,-2.9592,-2.8996,-2.8921,-2.8135,-2.6651,-2.6048,-2.5272,-2.421,-2.4125,-2.4125,-2.4125,-2.4125,-2.4125,-2.4125,-2.4295,-2.4557,-2.4966,-2.5358,-2.5869,-2.6575,-2.6876,-2.7118,-2.7451,-2.7503,-2.7503,-2.7503,-2.7503,-2.7503,-2.7503,-2.7516,-2.7968,-2.8739,-2.9157,-2.9516,-2.9984,-3.0414,-3.0495,-3.0228,-3.0152,-2.9998,-2.9856,-2.9792,-2.9779,-2.9779,-2.9779,-2.9779,-2.9779,-2.9779,-2.9779,-2.9779,-2.9779,-2.9779,-2.9779,-2.9779,-2.9779,-2.9779,-2.9779,-2.9779,-2.9779,-2.9779,-2.9779,-2.9716,-2.9729,-2.9654,-2.9603,-2.9465,-2.9277,-2.8737,-2.7871,-2.7394,-2.7128,-2.6826,-2.6512,-2.6487,-2.6487,-2.6487,-4.0113,-4.0113,-4.0113,-4.0113,-4.002,-3.9575,-3.892,-3.8294,-3.7738,-3.7178,-3.6554,-3.6492,-3.6492,-3.6492,-3.6492,-3.5768,-3.4751,-3.4459,-3.3673,-3.2475,-3.2398,-3.2398,-3.2342,-3.215,-3.2025,-3.1955,-3.1655,-3.1496,-3.1496,-3.1496,-3.1496,-3.1496,-3.1496,-3.1496,-3.1496,-3.1406,-3.1137,-3.0688,-3.0537,-3.0193,-2.9669,-2.9579,-2.8983,-2.7797,-2.7595,-2.657,-2.4419,-2.422,-2.4204,-2.4148,-2.4125,-2.4125,-2.4243,-2.4622,-2.5005,-2.5254,-2.6065,-2.6614,-2.6784,-2.7196,-2.7411,-2.7503,-2.7503,-2.7503,-2.7503,-2.7503,-2.7503,-2.7503,-2.7529,-2.779,-2.8438,-2.8974,-2.9608,-3.0477,-3.0545,-3.0444,-3.0368,-3.0216,-2.9998,-2.9869,-2.9779,-2.9779,-2.9779,-2.9779,-2.9779,-2.9779,-2.9779,-2.9779,-2.9779,-2.9779,-2.9779,-2.9779,-2.9779,-2.9779,-2.9779,-2.9779,-2.9779,-2.9779,-2.9779,-2.9767,-2.9603,-2.9541,-2.9252,-2.9139,-2.8938,-2.8725,-2.826,-2.7469,-2.709,-2.6788,-2.6575,-2.6487,-2.6487,-2.6487,-2.6487,-4.0113,-4.0113,-4.0113,-4.0113,-4.007,-3.9876,-3.9252,-3.8351,-3.8067,-3.746,-3.6631,-3.6492,-3.6492,-3.6492,-3.6476,-3.5999,-3.5198,-3.4705,-3.375,-3.2598,-3.2413,-3.237,-3.2274,-3.2163,-3.2053,-3.187,-3.1626,-3.1496,-3.1496,-3.1496,-3.1496,-3.1496,-3.1496,-3.1496,-3.1496,-3.1496,-3.1361,-3.1212,-3.1182,-3.0881,-3.0283,-3.0208,-2.9624,-2.8568,-2.8382,-2.7783,-2.6684,-2.5421,-2.4743,-2.473,-2.4334,-2.4282,-2.4648,-2.49,-2.5371,-2.6091,-2.647,-2.6883,-2.7223,-2.7406,-2.7503,-2.7503,-2.7503,-2.7503,-2.7503,-2.7503,-2.7503,-2.7503,-2.7516,-2.7889,-2.8778,-2.9051,-2.9447,-3.0223,-3.049,-3.0533,-3.0368,-3.0126,-2.9908,-2.983,-2.9779,-2.9779,-2.9779,-2.9779,-2.9779,-2.9779,-2.9779,-2.9779,-2.9779,-2.9779,-2.9779,-2.9779,-2.9779,-2.9779,-2.9779,-2.9779,-2.9779,-2.9779,-2.9779,-2.9603,-2.944,-2.9289,-2.8988,-2.8624,-2.8411,-2.8097,-2.762,-2.7228,-2.6813,-2.6625,-2.6524,-2.6487,-2.6487,-2.6487,-2.6487,-4.0113,-4.0113,-4.0113,-4.0113,-4.0113,-4.0113,-3.9418,-3.839,-3.8306,-3.7621,-3.6662,-3.6492,-3.6492,-3.6492,-3.6492,-3.6138,-3.5491,-3.4797,-3.3889,-3.2844,-3.2459,-3.2342,-3.2274,-3.2203,-3.2066,-3.1813,-3.1655,-3.1568,-3.1496,-3.1496,-3.1496,-3.1496,-3.1496,-3.1496,-3.1496,-3.1496,-3.1496,-3.1496,-3.1481,-3.1301,-3.0986,-3.0868,-3.0389,-2.955,-2.9363,-2.9059,-2.8384,-2.7078,-2.6143,-2.5674,-2.509,-2.4949,-2.5262,-2.5528,-2.5973,-2.6536,-2.6883,-2.717,-2.7451,-2.749,-2.7503,-2.7503,-2.7503,-2.7503,-2.7503,-2.7503,-2.7503,-2.7503,-2.7503,-2.7902,-2.8739,-2.9077,-2.9428,-2.9999,-3.0386,-3.0508,-3.0305,-3.0075,-2.9895,-2.9818,-2.9779,-2.9779,-2.9779,-2.9779,-2.9779,-2.9779,-2.9779,-2.9779,-2.9779,-2.9779,-2.9779,-2.9779,-2.9779,-2.9779,-2.9779,-2.9779,-2.9779,-2.9779,-2.9779,-2.9478,-2.9202,-2.9051,-2.8838,-2.8222,-2.7871,-2.7607,-2.7216,-2.6889,-2.6537,-2.6487,-2.6487,-2.6487,-2.6487,-2.6487,-2.6487,-4.0113,-4.0113,-4.0113,-4.0113,-4.0113,-4.0113,-3.9418,-3.8418,-3.8306,-3.7605,-3.6693,-3.6492,-3.6492,-3.6492,-3.6492,-3.6168,-3.5507,-3.4813,-3.4181,-3.3413,-3.2798,-3.2355,-3.2342,-3.2203,-3.2038,-3.1841,-3.1784,-3.1698,-3.1568,-3.1511,-3.1496,-3.1496,-3.1496,-3.1496,-3.1496,-3.1496,-3.1496,-3.1496,-3.1496,-3.1481,-3.1436,-3.1451,-3.1189,-3.0527,-3.0468,-3.02,-2.9649,-2.8874,-2.7936,-2.6914,-2.6008,-2.5675,-2.591,-2.6386,-2.6627,-2.6811,-2.7249,-2.7398,-2.749,-2.7503,-2.7503,-2.7503,-2.7503,-2.7503,-2.7503,-2.7503,-2.7503,-2.7503,-2.7503,-2.7738,-2.8386,-2.8843,-2.9431,-2.9999,-3.0298,-3.0343,-3.0113,-3.0049,-2.9934,-2.9818,-2.9779,-2.9779,-2.9779,-2.9779,-2.9779,-2.9779,-2.9779,-2.9779,-2.9779,-2.9779,-2.9779,-2.9779,-2.9779,-2.9779,-2.9779,-2.9779,-2.9779,-2.9729,-2.9616,-2.9189,-2.8737,-2.8561,-2.831,-2.7695,-2.7356,-2.7128,-2.6889,-2.6625,-2.6487,-2.6487,-2.6487,-2.6487,-2.6487,-2.6487,-2.6487,-4.0113,-4.0113,-4.0113,-4.0113,-4.0113,-4.0113,-3.9401,-3.8362,-3.8306,-3.7621,-3.6693,-3.6492,-3.6492,-3.6492,-3.6492,-3.6368,-3.5953,-3.5013,-3.4459,-3.4073,-3.2949,-3.2388,-3.2247,-3.2122,-3.201,-3.194,-3.1841,-3.1756,-3.1698,-3.1568,-3.1496,-3.1496,-3.1496,-3.1496,-3.1496,-3.1496,-3.1496,-3.1496,-3.1496,-3.1496,-3.1496,-3.1496,-3.1453,-3.1292,-3.1219,-3.1117,-3.0866,-2.9883,-2.8502,-2.6927,-2.6158,-2.6033,-2.6399,-2.6654,-2.687,-2.7203,-2.7372,-2.7503,-2.7503,-2.7503,-2.7503,-2.7503,-2.7503,-2.7503,-2.7503,-2.7503,-2.7503,-2.7503,-2.7503,-2.7745,-2.8255,-2.859,-2.9091,-2.992,-3.0261,-3.0267,-2.9998,-2.9856,-2.9869,-2.9792,-2.9779,-2.9779,-2.9779,-2.9779,-2.9779,-2.9779,-2.9779,-2.9779,-2.9779,-2.9779,-2.9779,-2.9779,-2.9779,-2.9779,-2.9779,-2.9779,-2.9754,-2.9691,-2.9377,-2.8787,-2.8197,-2.7645,-2.7304,-2.6801,-2.6914,-2.6751,-2.6663,-2.6499,-2.6487,-2.6487,-2.6487,-2.6487,-2.6487,-2.6487,-2.6487,-4.0113,-4.0113,-4.0113,-4.0113,-4.0113,-4.0113,-3.9401,-3.8446,-3.8278,-3.7621,-3.6677,-3.6492,-3.6492,-3.6492,-3.6492,-3.6492,-3.6307,-3.5121,-3.452,-3.4258,-3.3057,-3.2432,-3.2302,-3.2191,-3.2122,-3.1996,-3.1927,-3.1813,-3.167,-3.1568,-3.1496,-3.1496,-3.1496,-3.1496,-3.1496,-3.1496,-3.1496,-3.1496,-3.1496,-3.1496,-3.1496,-3.1496,-3.1496,-3.1496,-3.1496,-3.1409,-3.0999,-3.0042,-2.8954,-2.7951,-2.709,-2.67,-2.6974,-2.704,-2.7183,-2.749,-2.7503,-2.7503,-2.7503,-2.7503,-2.7503,-2.7503,-2.7503,-2.7503,-2.7503,-2.7503,-2.7503,-2.7503,-2.7503,-2.7659,-2.802,-2.8438,-2.9073,-2.9701,-3.0186,-3.0279,-3.0049,-2.9998,-2.9908,-2.983,-2.9779,-2.9779,-2.9779,-2.9779,-2.9779,-2.9779,-2.9779,-2.9779,-2.9779,-2.9779,-2.9779,-2.9779,-2.9779,-2.9779,-2.9754,-2.9741,-2.9365,-2.9302,-2.88,-2.826,-2.7745,-2.7077,-2.6813,-2.6562,-2.6512,-2.6487,-2.6487,-2.6487,-2.6487,-2.6487,-2.6487,-2.6487,-2.6487,-2.6487,-2.6487,-4.0087,-3.9995,-4.007,-4.0113,-4.0113,-4.007,-3.9401,-3.8446,-3.8306,-3.7605,-3.6693,-3.6492,-3.6492,-3.6492,-3.6492,-3.6492,-3.6399,-3.5121,-3.4412,-3.3842,-3.2995,-3.2398,-3.2398,-3.237,-3.2274,-3.2094,-3.2025,-3.1855,-3.1683,-3.1553,-3.1496,-3.1496,-3.1496,-3.1496,-3.1496,-3.1496,-3.1496,-3.1496,-3.1496,-3.1496,-3.1496,-3.1496,-3.1496,-3.1496,-3.1496,-3.1278,-3.0748,-3.0056,-2.9572,-2.9583,-2.8274,-2.7498,-2.7451,-2.7477,-2.7477,-2.749,-2.7503,-2.7503,-2.7503,-2.7503,-2.7503,-2.7503,-2.7503,-2.7503,-2.7503,-2.7503,-2.7503,-2.7503,-2.7503,-2.7529,-2.7673,-2.8516,-2.8993,-2.9323,-2.9816,-3.0215,-3.0253,-3.0139,-2.9998,-2.983,-2.9779,-2.9779,-2.9779,-2.9779,-2.9779,-2.9779,-2.9779,-2.9779,-2.9779,-2.9779,-2.9779,-2.9779,-2.9779,-2.9779,-2.9741,-2.9691,-2.9164,-2.875,-2.8084,-2.7557,-2.7341,-2.6851,-2.6637,-2.6487,-2.6487,-2.6487,-2.6487,-2.6487,-2.6487,-2.6487,-2.6487,-2.6487,-2.6487,-2.6487,-2.6487,-3.9841,-3.9435,-3.9901,-4.0113,-4.0113,-4.007,-3.9401,-3.8322,-3.8278,-3.7592,-3.6693,-3.6492,-3.6492,-3.6492,-3.6492,-3.6492,-3.6261,-3.5059,-3.3981,-3.2857,-3.2613,-3.2398,-3.2398,-3.2398,-3.237,-3.2247,-3.2094,-3.1968,-3.1855,-3.164,-3.1496,-3.1511,-3.1539,-3.1496,-3.1496,-3.1496,-3.1496,-3.1496,-3.1496,-3.1496,-3.1496,-3.1496,-3.1496,-3.1496,-3.1496,-3.1453,-3.1219,-3.0644,-3.0299,-2.9842,-2.8615,-2.759,-2.7556,-2.757,-2.7523,-2.7503,-2.7503,-2.7503,-2.7503,-2.7503,-2.7503,-2.7503,-2.7503,-2.7503,-2.7503,-2.7503,-2.7503,-2.7503,-2.7503,-2.7503,-2.7568,-2.798,-2.8416,-2.8676,-2.9102,-2.9502,-2.9491,-2.9732,-2.9831,-2.9818,-2.9779,-2.9779,-2.9779,-2.9779,-2.9779,-2.9779,-2.9779,-2.9779,-2.9779,-2.9779,-2.9779,-2.9779,-2.9616,-2.9566,-2.944,-2.9227,-2.8612,-2.816,-2.7544,-2.7128,-2.6864,-2.6725,-2.6549,-2.6487,-2.6487,-2.6487,-2.6487,-2.6487,-2.6487,-2.6487,-2.6487,-2.6487,-2.6487,-2.6487,-2.6487,-3.9082,-3.8821,-3.9135,-3.9269,-3.9252,-3.9242,-3.8739,-3.7982,-3.7883,-3.7356,-3.6631,-3.6492,-3.6492,-3.6492,-3.6476,-3.6338,-3.5737,-3.4599,-3.3413,-3.2598,-3.2398,-3.2398,-3.2398,-3.2398,-3.2385,-3.2287,-3.2163,-3.2081,-3.1968,-3.1811,-3.1712,-3.1641,-3.1641,-3.1597,-3.1496,-3.1496,-3.1496,-3.1496,-3.1496,-3.1496,-3.1496,-3.1496,-3.1496,-3.1496,-3.1467,-3.138,-3.0955,-3.0718,-3.0178,-2.9487,-2.8565,-2.7973,-2.7973,-2.7941,-2.7809,-2.7556,-2.7503,-2.7503,-2.7503,-2.7503,-2.7503,-2.7503,-2.7503,-2.7503,-2.7503,-2.7503,-2.7503,-2.7503,-2.7503,-2.7503,-2.7529,-2.7978,-2.8161,-2.823,-2.8708,-2.8977,-2.8971,-2.9378,-2.9779,-2.9779,-2.9779,-2.9779,-2.9779,-2.9754,-2.9754,-2.9729,-2.9741,-2.9754,-2.9779,-2.9779,-2.9779,-2.9716,-2.9465,-2.9289,-2.9126,-2.8699,-2.7959,-2.7544,-2.7178,-2.6851,-2.6637,-2.6562,-2.6499,-2.6487,-2.6487,-2.6487,-2.6487,-2.6487,-2.6487,-2.6487,-2.6487,-2.6487,-2.6487,-2.6487,-2.6487,-3.825,-3.8181,-3.8266,-3.8306,-3.8306,-3.8334,-3.801,-3.746,-3.7401,-3.7118,-3.6585,-3.6492,-3.6492,-3.6492,-3.6492,-3.6107,-3.5167,-3.4121,-3.3075,-3.2475,-3.2398,-3.2398,-3.2398,-3.2398,-3.2385,-3.2247,-3.2191,-3.2122,-3.2081,-3.1996,-3.1883,-3.1841,-3.1784,-3.1727,-3.1597,-3.1496,-3.1496,-3.1496,-3.1496,-3.1496,-3.1496,-3.1496,-3.1496,-3.1496,-3.1496,-3.1278,-3.0896,-3.0554,-3.004,-2.8917,-2.8725,-2.8597,-2.8481,-2.832,-2.8137,-2.7536,-2.7503,-2.7503,-2.7503,-2.7503,-2.7503,-2.7503,-2.7503,-2.7503,-2.7503,-2.7503,-2.7503,-2.7503,-2.7503,-2.7503,-2.7529,-2.7741,-2.7958,-2.8036,-2.8392,-2.8536,-2.8513,-2.8988,-2.934,-2.9603,-2.9541,-2.9515,-2.9628,-2.9666,-2.9679,-2.9666,-2.9666,-2.9628,-2.9616,-2.9541,-2.939,-2.9277,-2.8963,-2.8599,-2.8411,-2.8285,-2.7532,-2.7118,-2.6788,-2.6675,-2.6512,-2.6499,-2.6487,-2.6487,-2.6487,-2.6487,-2.6487,-2.6487,-2.6487,-2.6487,-2.6487,-2.6487,-2.6487,-2.6487,-2.6487,-3.801,-3.7608,-3.8096,-3.8306,-3.8278,-3.8278,-3.7895,-3.746,-3.7342,-3.7074,-3.6554,-3.6492,-3.6492,-3.6492,-3.6492,-3.5845,-3.4767,-3.3721,-3.2982,-3.2475,-3.2398,-3.2398,-3.2398,-3.2398,-3.2398,-3.2342,-3.2274,-3.2191,-3.215,-3.2066,-3.2025,-3.194,-3.187,-3.1784,-3.1683,-3.1597,-3.1496,-3.1496,-3.1496,-3.1496,-3.1496,-3.1496,-3.1496,-3.1496,-3.1496,-3.1409,-3.1219,-3.0807,-3.0389,-3.0147,-2.9642,-2.9079,-2.8597,-2.8091,-2.7743,-2.7623,-2.7523,-2.7523,-2.759,-2.7536,-2.7503,-2.7503,-2.7503,-2.7503,-2.7503,-2.7503,-2.7503,-2.7503,-2.7503,-2.7503,-2.7503,-2.7504,-2.7301,-2.7306,-2.7487,-2.7668,-2.77,-2.8094,-2.8612,-2.8888,-2.9026,-2.9164,-2.9227,-2.9239,-2.9139,-2.9089,-2.9076,-2.8925,-2.8775,-2.8674,-2.8536,-2.8423,-2.8298,-2.7921,-2.7582,-2.7519,-2.7216,-2.6876,-2.66,-2.66,-2.6499,-2.6487,-2.6487,-2.6487,-2.6487,-2.6487,-2.6487,-2.6487,-2.6487,-2.6487,-2.6487,-2.6487,-2.6487,-2.6487,-2.6487,-3.7193,-3.6983,-3.7252,-3.7356,-3.7356,-3.7356,-3.7193,-3.6968,-3.6922,-3.6785,-3.6554,-3.6492,-3.6492,-3.6492,-3.6492,-3.5768,-3.4536,-3.3321,-3.2721,-3.2413,-3.2398,-3.2398,-3.2398,-3.2398,-3.2398,-3.2398,-3.2315,-3.2287,-3.2287,-3.2247,-3.215,-3.201,-3.1912,-3.1826,-3.1655,-3.1539,-3.1496,-3.1496,-3.1496,-3.1496,-3.1496,-3.1496,-3.1496,-3.1496,-3.1496,-3.1496,-3.1438,-3.1278,-3.0822,-3.048,-3.0194,-2.9687,-2.9016,-2.839,-2.7993,-2.7941,-2.7689,-2.7676,-2.7842,-2.7756,-2.7503,-2.7503,-2.7503,-2.7503,-2.7503,-2.7503,-2.7503,-2.7503,-2.7503,-2.7503,-2.7503,-2.7335,-2.7281,-2.7286,-2.7267,-2.7236,-2.7272,-2.7584,-2.7891,-2.8134,-2.8323,-2.8499,-2.8662,-2.8637,-2.8536,-2.8474,-2.8461,-2.8285,-2.8021,-2.7946,-2.7871,-2.7858,-2.7795,-2.7431,-2.7118,-2.704,-2.6989,-2.6675,-2.6487,-2.6487,-2.6487,-2.6487,-2.6487,-2.6487,-2.6487,-2.6487,-2.6487,-2.6487,-2.6487,-2.6487,-2.6487,-2.6487,-2.6487,-2.6487,-2.6487,-3.6492,-3.6492,-3.6492,-3.6492,-3.6492,-3.6492,-3.6523,-3.6492,-3.6523,-3.6523,-3.6492,-3.6492,-3.6492,-3.6399,-3.6045,-3.5383,-3.4212,-3.2921,-3.2475,-3.2413,-3.2398,-3.2398,-3.2398,-3.2398,-3.2398,-3.2398,-3.2398,-3.2398,-3.2398,-3.237,-3.2274,-3.215,-3.2038,-3.1868,-3.1683,-3.1568,-3.1524,-3.1496,-3.1496,-3.1496,-3.1496,-3.1496,-3.1496,-3.1496,-3.1496,-3.1496,-3.1467,-3.1204,-3.094,-3.0524,-3.0147,-2.9766,-2.9254,-2.8661,-2.8384,-2.8384,-2.7842,-2.7908,-2.7941,-2.7855,-2.7503,-2.7503,-2.7503,-2.7503,-2.7503,-2.7503,-2.7503,-2.7503,-2.7503,-2.7503,-2.7503,-2.7469,-2.7403,-2.7315,-2.7214,-2.7138,-2.6994,-2.7097,-2.7208,-2.744,-2.7656,-2.7908,-2.8172,-2.8047,-2.7946,-2.7946,-2.7934,-2.7695,-2.7469,-2.7469,-2.7467,-2.7444,-2.7318,-2.7014,-2.6776,-2.6688,-2.6663,-2.6587,-2.6487,-2.6487,-2.6487,-2.6487,-2.6487,-2.6487,-2.6487,-2.6487,-2.6487,-2.6487,-2.6487,-2.6487,-2.6487,-2.6487,-2.6487,-2.6487,-2.6487,-3.6492,-3.6492,-3.6492,-3.6492,-3.6492,-3.6492,-3.6492,-3.6492,-3.6492,-3.6492,-3.6492,-3.6492,-3.6476,-3.6215,-3.526,-3.4382,-3.3506,-3.2829,-3.2398,-3.2398,-3.2398,-3.2398,-3.2398,-3.2398,-3.2398,-3.2398,-3.2398,-3.2398,-3.2398,-3.2398,-3.237,-3.2259,-3.2066,-3.1925,-3.1798,-3.1597,-3.1496,-3.1496,-3.1496,-3.1496,-3.1496,-3.1496,-3.1496,-3.1496,-3.1496,-3.1496,-3.1438,-3.1117,-3.0718,-3.0524,-2.9439,-2.8839,-2.85,-2.7973,-2.8039,-2.8105,-2.7941,-2.7536,-2.7723,-2.759,-2.7503,-2.7503,-2.7503,-2.7503,-2.7503,-2.7503,-2.7503,-2.7503,-2.7503,-2.7503,-2.7469,-2.7403,-2.7281,-2.7146,-2.7032,-2.6829,-2.6687,-2.6772,-2.6845,-2.681,-2.7077,-2.7457,-2.7808,-2.757,-2.7369,-2.7381,-2.7331,-2.7118,-2.7014,-2.704,-2.7027,-2.704,-2.704,-2.6738,-2.6637,-2.6512,-2.6487,-2.6487,-2.6487,-2.6487,-2.6487,-2.6487,-2.6487,-2.6487,-2.6487,-2.6487,-2.6487,-2.6487,-2.6487,-2.6487,-2.6487,-2.6487,-2.6487,-2.6487,-2.6487,-3.6492,-3.6492,-3.6492,-3.6492,-3.6492,-3.6492,-3.6492,-3.6492,-3.6492,-3.6492,-3.6492,-3.6492,-3.6338,-3.5768,-3.489,-3.4135,-3.3367,-3.269,-3.2398,-3.2398,-3.2398,-3.2398,-3.2398,-3.2398,-3.2398,-3.2398,-3.2398,-3.2398,-3.2398,-3.2315,-3.2259,-3.2163,-3.1996,-3.1798,-3.1798,-3.1597,-3.1511,-3.1496,-3.1496,-3.1496,-3.1496,-3.1496,-3.1496,-3.1496,-3.1496,-3.1496,-3.1409,-3.1278,-3.1073,-3.0999,-3.0374,-3.0222,-2.9934,-2.9331,-2.8794,-2.8889,-2.8059,-2.7743,-2.7973,-2.7689,-2.7536,-2.7503,-2.7503,-2.7503,-2.7503,-2.7503,-2.7503,-2.7503,-2.7503,-2.7503,-2.7503,-2.7436,-2.7335,-2.7167,-2.6964,-2.6794,-2.6624,-2.6521,-2.6549,-2.6499,-2.6524,-2.6977,-2.7304,-2.7128,-2.6964,-2.6964,-2.6952,-2.6826,-2.6713,-2.6688,-2.6663,-2.6612,-2.6612,-2.6537,-2.6537,-2.6487,-2.6487,-2.6487,-2.6487,-2.6487,-2.6487,-2.6487,-2.6487,-2.6487,-2.6487,-2.6487,-2.6487,-2.6487,-2.6487,-2.6487,-2.6487,-2.6487,-2.6487,-2.6487,-2.6487,-3.6492,-3.6492,-3.6492,-3.6492,-3.6492,-3.6492,-3.6492,-3.6492,-3.6492,-3.6492,-3.643,-3.6292,-3.5876,-3.5213,-3.4475,-3.3737,-3.309,-3.2613,-3.2444,-3.2398,-3.2398,-3.2398,-3.2398,-3.2398,-3.2398,-3.2398,-3.2398,-3.2398,-3.237,-3.2302,-3.2163,-3.2109,-3.2053,-3.1855,-3.1712,-3.1655,-3.1655,-3.1612,-3.1524,-3.1496,-3.1496,-3.1496,-3.1496,-3.1496,-3.1496,-3.1496,-3.1496,-3.1467,-3.1482,-3.1424,-3.1131,-3.0881,-3.0733,-2.9687,-2.9016,-2.8857,-2.8059,-2.7689,-2.7842,-2.7743,-2.7523,-2.7503,-2.7503,-2.7503,-2.7503,-2.7503,-2.7503,-2.7503,-2.7503,-2.7503,-2.7503,-2.7503,-2.7403,-2.7281,-2.7146,-2.693,-2.676,-2.6624,-2.6521,-2.6487,-2.6487,-2.6487,-2.6688,-2.66,-2.6537,-2.6512,-2.6487,-2.6487,-2.6487,-2.6487,-2.6487,-2.6487,-2.6487,-2.6487,-2.6487,-2.6487,-2.6487,-2.6487,-2.6487,-2.6487,-2.6487,-2.6487,-2.6487,-2.6487,-2.6487,-2.6487,-2.6487,-2.6487,-2.6487,-2.6487,-2.6487,-2.6487,-2.6487,-2.6487,-2.6487,-3.6492,-3.6492,-3.6492,-3.6492,-3.6492,-3.6492,-3.6492,-3.6492,-3.6492,-3.6476,-3.6307,-3.583,-3.5198,-3.4536,-3.3875,-3.3213,-3.249,-3.2413,-3.2398,-3.2398,-3.2398,-3.2398,-3.2398,-3.2398,-3.2398,-3.2398,-3.2398,-3.2398,-3.237,-3.2302,-3.2302,-3.233,-3.215,-3.2081,-3.1968,-3.1898,-3.1813,-3.1727,-3.1612,-3.1524,-3.1496,-3.1496,-3.1496,-3.1496,-3.1496,-3.1496,-3.1496,-3.1496,-3.1496,-3.1482,-3.1131,-3.0748,-3.0554,-2.9563,-2.8967,-2.8565,-2.7993,-2.7656,-2.7623,-2.7623,-2.7523,-2.7503,-2.7503,-2.7503,-2.7503,-2.7503,-2.7503,-2.7503,-2.7503,-2.7503,-2.7503,-2.7503,-2.7436,-2.7302,-2.718,-2.6998,-2.6794,-2.6679,-2.6589,-2.6521,-2.6487,-2.6487,-2.6487,-2.6487,-2.6487,-2.6487,-2.6487,-2.6487,-2.6487,-2.6487,-2.6487,-2.6487,-2.6487,-2.6487,-2.6487,-2.6487,-2.6487,-2.6487,-2.6487,-2.6487,-2.6487,-2.6487,-2.6487,-2.6487,-2.6487,-2.6487,-2.6487,-2.6487,-2.6487,-2.6487,-2.6487,-2.6487,-2.6487,-2.6487,-2.6487,-3.6492,-3.6492,-3.6492,-3.6492,-3.6492,-3.6492,-3.6492,-3.6492,-3.6492,-3.623,-3.583,-3.5183,-3.4505,-3.3891,-3.3583,-3.3029,-3.2459,-3.2398,-3.2398,-3.2398,-3.2398,-3.2398,-3.2398,-3.2398,-3.2398,-3.2398,-3.2398,-3.2398,-3.2398,-3.233,-3.2342,-3.2315,-3.2219,-3.2094,-3.2025,-3.1996,-3.1927,-3.1813,-3.1713,-3.1641,-3.1496,-3.1496,-3.1496,-3.1496,-3.1496,-3.1496,-3.1496,-3.1496,-3.1496,-3.1438,-3.1219,-3.094,-3.0524,-2.958,-2.903,-2.8565,-2.7973,-2.7623,-2.7523,-2.7523,-2.7503,-2.7503,-2.7503,-2.7503,-2.7503,-2.7503,-2.7503,-2.7503,-2.7503,-2.7503,-2.7503,-2.7503,-2.7469,-2.7302,-2.718,-2.6998,-2.6829,-2.6692,-2.6589,-2.6521,-2.6487,-2.6487,-2.6487,-2.6487,-2.6487,-2.6487,-2.6487,-2.6487,-2.6487,-2.6487,-2.6487,-2.6487,-2.6487,-2.6487,-2.6487,-2.6487,-2.6487,-2.6487,-2.6487,-2.6487,-2.6487,-2.6487,-2.6487,-2.6487,-2.6487,-2.6487,-2.6487,-2.6487,-2.6487,-2.6487,-2.6487,-2.6487,-2.6487,-2.6487,-2.6487,-3.6492,-3.6492,-3.6492,-3.6492,-3.6492,-3.6492,-3.6492,-3.6461,-3.6261,-3.5814,-3.5167,-3.4489,-3.3935,-3.346,-3.3121,-3.289,-3.2475,-3.2398,-3.2398,-3.2398,-3.2398,-3.2398,-3.2398,-3.2398,-3.2398,-3.2398,-3.2398,-3.2398,-3.2398,-3.2398,-3.2398,-3.2342,-3.2203,-3.2135,-3.2038,-3.1968,-3.1898,-3.1828,-3.1742,-3.167,-3.1511,-3.1496,-3.1496,-3.1496,-3.1496,-3.1496,-3.1496,-3.1496,-3.1496,-3.1496,-3.1409,-3.1234,-3.0748,-3.0178,-2.9625,-2.8998,-2.8338,-2.7842,-2.7776,-2.759,-2.7536,-2.7503,-2.7503,-2.7503,-2.7503,-2.7503,-2.7503,-2.7503,-2.7503,-2.7503,-2.7503,-2.7469,-2.7403,-2.7281,-2.7113,-2.6943,-2.6794,-2.6658,-2.6589,-2.6533,-2.6499,-2.6487,-2.6487,-2.6487,-2.6487,-2.6487,-2.6487,-2.6487,-2.6487,-2.6487,-2.6487,-2.6487,-2.6487,-2.6487,-2.6487,-2.6487,-2.6487,-2.6487,-2.6487,-2.6487,-2.6487,-2.6487,-2.6487,-2.6487,-2.6487,-2.6487,-2.6487,-2.6487,-2.6487,-2.6487,-2.6487,-2.6487,-2.6487,-2.6487,-2.6487,-3.6476,-3.6492,-3.6445,-3.6445,-3.6353,-3.6461,-3.6461,-3.6261,-3.5676,-3.509,-3.4459,-3.3737,-3.3413,-3.3183,-3.2767,-3.2521,-3.2444,-3.2398,-3.2398,-3.2398,-3.2398,-3.2398,-3.2398,-3.2398,-3.2398,-3.2398,-3.2398,-3.2398,-3.2398,-3.2398,-3.2398,-3.2336,-3.2235,-3.2195,-3.2148,-3.194,-3.1813,-3.1784,-3.1641,-3.1597,-3.1511,-3.1496,-3.1496,-3.1496,-3.1496,-3.1496,-3.1496,-3.1496,-3.1496,-3.1496,-3.1496,-3.138,-3.1117,-3.0644,-3.0269,-3.0056,-2.9062,-2.8532,-2.8417,-2.7855,-2.7556,-2.7503,-2.7503,-2.7503,-2.7503,-2.7503,-2.7503,-2.7503,-2.7503,-2.7503,-2.7469,-2.7403,-2.7369,-2.7302,-2.7146,-2.699,-2.6841,-2.6692,-2.6636,-2.6533,-2.6487,-2.6487,-2.6487,-2.6487,-2.6487,-2.6487,-2.6487,-2.6487,-2.6487,-2.6487,-2.6487,-2.6487,-2.6487,-2.6487,-2.6487,-2.6487,-2.6487,-2.6487,-2.6487,-2.6487,-2.6487,-2.6487,-2.6487,-2.6487,-2.6487,-2.6487,-2.6487,-2.6487,-2.6487,-2.6487,-2.6487,-2.6487,-2.6487,-2.6386,-2.6248,-3.5704,-3.5333,-3.569,-3.5598,-3.529,-3.566,-3.5845,-3.566,-3.4675,-3.3967,-3.3688,-3.3029,-3.2736,-3.2628,-3.2582,-3.2398,-3.2398,-3.2398,-3.2398,-3.2398,-3.2398,-3.2398,-3.2398,-3.2398,-3.2398,-3.2398,-3.2398,-3.2398,-3.2398,-3.2398,-3.2398,-3.2351,-3.1951,-3.197,-3.2192,-3.2191,-3.215,-3.1968,-3.1855,-3.1726,-3.1524,-3.1496,-3.1496,-3.1496,-3.1496,-3.1496,-3.1481,-3.1481,-3.1406,-3.1421,-3.1406,-3.1261,-3.0999,-3.054,-3.0359,-3.0056,-2.9174,-2.8967,-2.85,-2.7908,-2.7536,-2.7477,-2.749,-2.749,-2.7503,-2.7503,-2.7503,-2.7503,-2.7503,-2.7503,-2.7469,-2.7469,-2.7436,-2.739,-2.7302,-2.7113,-2.6977,-2.6794,-2.6658,-2.6555,-2.6487,-2.6487,-2.6487,-2.6487,-2.6487,-2.6487,-2.6487,-2.6487,-2.6487,-2.6487,-2.6487,-2.6487,-2.6487,-2.6487,-2.6487,-2.6487,-2.6487,-2.6487,-2.6487,-2.6487,-2.6487,-2.6487,-2.6487,-2.6487,-2.6487,-2.6487,-2.6461,-2.6461,-2.6487,-2.6487,-2.6323,-2.6172,-2.6072,-2.585,-2.5649,-3.5067,-3.4697,-3.5012,-3.4921,-3.4597,-3.4982,-3.5014,-3.4645,-3.3783,-3.329,-3.2982,-3.2582,-3.2413,-3.2413,-3.2398,-3.2398,-3.2398,-3.2398,-3.2398,-3.2398,-3.2398,-3.2398,-3.2398,-3.2398,-3.2398,-3.2398,-3.2398,-3.2398,-3.2398,-3.2398,-3.2244,-3.189,-3.1413,-3.1251,-3.1501,-3.1591,-3.1878,-3.1775,-3.1798,-3.1683,-3.1524,-3.1496,-3.1496,-3.1496,-3.1496,-3.1496,-3.1436,-3.1331,-3.1152,-3.1152,-3.1095,-3.095,-3.0646,-3.0631,-3.0436,-3.0056,-2.93,-2.8871,-2.8143,-2.7809,-2.7445,-2.7196,-2.7359,-2.7477,-2.7503,-2.7503,-2.7503,-2.7503,-2.7477,-2.749,-2.749,-2.749,-2.7436,-2.739,-2.7235,-2.7079,-2.6909,-2.6726,-2.6658,-2.6521,-2.6487,-2.6487,-2.6487,-2.6487,-2.6487,-2.6487,-2.6487,-2.6487,-2.6487,-2.6487,-2.6487,-2.6487,-2.6487,-2.6487,-2.6487,-2.6487,-2.6487,-2.6487,-2.6487,-2.6487,-2.6487,-2.6487,-2.6487,-2.6487,-2.6487,-2.6474,-2.6436,-2.6399,-2.6223,-2.6034,-2.5845,-2.5686,-2.5586,-2.5435,-2.5259,-3.456,-3.4428,-3.4459,-3.4443,-3.4412,-3.4351,-3.4012,-3.3413,-3.3367,-3.2982,-3.2413,-3.2444,-3.2398,-3.2398,-3.2398,-3.2398,-3.2398,-3.2398,-3.2398,-3.2398,-3.2398,-3.2398,-3.2398,-3.2398,-3.2398,-3.2398,-3.2398,-3.2398,-3.2398,-3.2398,-3.209,-3.1551,-3.094,-3.0821,-3.0838,-3.0838,-3.1235,-3.1416,-3.1515,-3.1461,-3.1451,-3.1391,-3.1301,-3.1241,-3.1182,-3.1122,-3.0972,-3.0776,-3.0552,-3.0492,-3.0464,-3.0449,-3.0644,-3.1092,-3.0925,-3.0434,-2.9376,-2.8634,-2.7912,-2.7749,-2.7125,-2.6824,-2.7053,-2.7294,-2.7294,-2.7137,-2.7137,-2.7242,-2.7327,-2.7398,-2.7477,-2.739,-2.7302,-2.7167,-2.6998,-2.6863,-2.6726,-2.6624,-2.6589,-2.6521,-2.6533,-2.6499,-2.6487,-2.6487,-2.6487,-2.6487,-2.6487,-2.6487,-2.6487,-2.6487,-2.6487,-2.6487,-2.6487,-2.6487,-2.6487,-2.6487,-2.6487,-2.6487,-2.6487,-2.6487,-2.6487,-2.6487,-2.6487,-2.6487,-2.6487,-2.6424,-2.6223,-2.5984,-2.5699,-2.5511,-2.5285,-2.5109,-2.4983,-2.5121,-2.5034,-3.3743,-3.3187,-3.3563,-3.3429,-3.3057,-3.3041,-3.2875,-3.269,-3.269,-3.2536,-3.2398,-3.2398,-3.2398,-3.2398,-3.2398,-3.2398,-3.2398,-3.2398,-3.2398,-3.2398,-3.2398,-3.2398,-3.2398,-3.2398,-3.2398,-3.2398,-3.2398,-3.2398,-3.2382,-3.2382,-3.2321,-3.2013,-3.0786,-3.0622,-3.0416,-3.0143,-3.0475,-3.0812,-3.0958,-3.1116,-3.115,-3.0972,-3.0868,-3.0733,-3.0462,-3.0372,-3.0208,-3.0028,-2.9849,-2.9849,-2.9849,-2.9849,-2.9921,-3.0447,-3.0682,-3.1131,-3.036,-2.9532,-2.8536,-2.7877,-2.7173,-2.6298,-2.6282,-2.6237,-2.6276,-2.638,-2.6511,-2.6791,-2.7027,-2.7131,-2.7255,-2.7267,-2.7291,-2.7222,-2.7061,-2.6896,-2.6786,-2.676,-2.6692,-2.6555,-2.6555,-2.6499,-2.6487,-2.6487,-2.6487,-2.6487,-2.6487,-2.6487,-2.6487,-2.6487,-2.6487,-2.6487,-2.6487,-2.6487,-2.6487,-2.6487,-2.6487,-2.6487,-2.6487,-2.6487,-2.6487,-2.6487,-2.6487,-2.6487,-2.6487,-2.621,-2.5824,-2.5598,-2.5385,-2.4958,-2.4695,-2.4519,-2.4431,-2.4582,-2.4506,-3.3161,-3.2671,-3.2884,-3.2767,-3.2444,-3.2398,-3.2398,-3.2398,-3.2398,-3.2398,-3.2398,-3.2398,-3.2398,-3.2398,-3.2398,-3.2398,-3.2398,-3.2398,-3.2398,-3.2398,-3.2398,-3.2398,-3.2398,-3.2398,-3.2398,-3.2398,-3.2398,-3.2398,-3.229,-3.2028,-3.189,-3.1397,-3.0474,-3.0186,-2.9771,-2.9266,-2.9352,-2.9864,-3.0274,-3.0554,-3.0573,-3.0415,-3.0223,-3.0058,-2.9696,-2.9606,-2.9475,-2.9412,-2.9232,-2.919,-2.919,-2.919,-2.9241,-2.9582,-2.9801,-2.9972,-2.9183,-2.8458,-2.769,-2.7157,-2.6419,-2.5809,-2.5484,-2.5354,-2.544,-2.5584,-2.5955,-2.6295,-2.6556,-2.6837,-2.7,-2.7163,-2.7287,-2.741,-2.7206,-2.7048,-2.6971,-2.6905,-2.6794,-2.6624,-2.6555,-2.6521,-2.6487,-2.6487,-2.6487,-2.6487,-2.6487,-2.6487,-2.6487,-2.6487,-2.6487,-2.6487,-2.6487,-2.6487,-2.6487,-2.6487,-2.6487,-2.6487,-2.6487,-2.6487,-2.6487,-2.6487,-2.6474,-2.6487,-2.6487,-2.6109,-2.5611,-2.5347,-2.5084,-2.4575,-2.4098,-2.3873,-2.3879,-2.4079,-2.3866,-3.2816,-3.2578,-3.2468,-3.2428,-3.2398,-3.2398,-3.2398,-3.2398,-3.2398,-3.2398,-3.2398,-3.2398,-3.2398,-3.2398,-3.2398,-3.2398,-3.2398,-3.2398,-3.2398,-3.2398,-3.2398,-3.2398,-3.2398,-3.2398,-3.2275,-3.2305,-3.2228,-3.2028,-3.1951,-3.1613,-3.1043,-3.0371,-2.9817,-2.9438,-2.902,-2.8627,-2.8711,-2.9083,-2.9444,-2.9674,-2.9816,-2.9717,-2.9532,-2.9517,-2.9397,-2.9322,-2.9175,-2.8906,-2.8517,-2.8517,-2.8517,-2.8517,-2.8702,-2.8766,-2.8814,-2.8711,-2.828,-2.7583,-2.7099,-2.6533,-2.5743,-2.5197,-2.4913,-2.4713,-2.4792,-2.4958,-2.5341,-2.5707,-2.5999,-2.6224,-2.6413,-2.6772,-2.6994,-2.7077,-2.7017,-2.7002,-2.7056,-2.693,-2.6726,-2.6589,-2.6521,-2.6487,-2.6487,-2.6487,-2.6487,-2.6487,-2.6487,-2.6487,-2.6487,-2.6487,-2.6487,-2.6487,-2.6487,-2.6487,-2.6487,-2.6487,-2.6487,-2.6487,-2.6487,-2.6487,-2.6487,-2.6474,-2.6461,-2.6323,-2.616,-2.5845,-2.5423,-2.5046,-2.4569,-2.4023,-2.3584,-2.3271,-2.3308,-2.3615,-2.3552,-3.2881,-3.2578,-3.2453,-3.2398,-3.2398,-3.2398,-3.2398,-3.2398,-3.2398,-3.2398,-3.2398,-3.2398,-3.2398,-3.2398,-3.2398,-3.2398,-3.2398,-3.2398,-3.2398,-3.2398,-3.2398,-3.2305,-3.2351,-3.2244,-3.2059,-3.1751,-3.1567,-3.1428,-3.112,-3.0812,-3.0612,-3.0309,-2.971,-2.9177,-2.8891,-2.8569,-2.8443,-2.8599,-2.8632,-2.9059,-2.9482,-2.9211,-2.8963,-2.8719,-2.8532,-2.8274,-2.8154,-2.8034,-2.7869,-2.7839,-2.7839,-2.8109,-2.8551,-2.8568,-2.8857,-2.9077,-2.8351,-2.7556,-2.6815,-2.621,-2.5496,-2.4734,-2.4406,-2.4256,-2.4282,-2.4452,-2.4713,-2.5066,-2.5406,-2.5631,-2.5918,-2.6302,-2.6628,-2.6726,-2.6789,-2.6917,-2.7035,-2.6897,-2.6658,-2.6589,-2.6521,-2.6487,-2.6487,-2.6487,-2.6487,-2.6487,-2.6487,-2.6487,-2.6487,-2.6487,-2.6487,-2.6487,-2.6487,-2.6487,-2.6487,-2.6487,-2.6487,-2.6487,-2.6487,-2.6487,-2.6487,-2.6474,-2.6424,-2.5975,-2.5686,-2.541,-2.5021,-2.4443,-2.3954,-2.3534,-2.3346,-2.3145,-2.3095,-2.3308,-2.3258,-3.3569,-3.3361,-3.2938,-3.2562,-3.2295,-3.2353,-3.2398,-3.2398,-3.2398,-3.2398,-3.2398,-3.2398,-3.2398,-3.2398,-3.2398,-3.2398,-3.2398,-3.2398,-3.2398,-3.2398,-3.2305,-3.2163,-3.209,-3.1921,-3.1474,-3.1105,-3.0982,-3.0751,-3.034,-3.0371,-3.034,-2.9956,-2.9479,-2.9243,-2.9002,-2.8556,-2.8348,-2.8314,-2.8128,-2.8435,-2.8996,-2.8553,-2.8271,-2.7989,-2.7839,-2.7585,-2.7585,-2.7585,-2.76,-2.76,-2.763,-2.7735,-2.8038,-2.8087,-2.8308,-2.8345,-2.8003,-2.7498,-2.683,-2.6176,-2.5501,-2.48,-2.4505,-2.4618,-2.4138,-2.4308,-2.4321,-2.4648,-2.5057,-2.531,-2.5349,-2.5654,-2.5968,-2.6108,-2.6181,-2.6271,-2.658,-2.6726,-2.6589,-2.6521,-2.6487,-2.6487,-2.6487,-2.6487,-2.6487,-2.6487,-2.6487,-2.6474,-2.6474,-2.6487,-2.6487,-2.6487,-2.6487,-2.6487,-2.6487,-2.6487,-2.6487,-2.6487,-2.6487,-2.6487,-2.6487,-2.6474,-2.6348,-2.5824,-2.5398,-2.5071,-2.4632,-2.4054,-2.3678,-2.3333,-2.3208,-2.3108,-2.3095,-2.3095,-2.3108,-3.3909,-3.3851,-3.3216,-3.2568,-3.2113,-3.228,-3.2398,-3.2398,-3.2398,-3.2398,-3.2398,-3.2398,-3.2398,-3.2398,-3.2398,-3.2398,-3.2398,-3.2398,-3.2398,-3.2198,-3.2198,-3.1767,-3.1413,-3.1228,-3.0812,-3.0412,-3.0151,-3.0063,-2.9894,-2.9863,-2.9633,-2.931,-2.9141,-2.9012,-2.8581,-2.8372,-2.8348,-2.8235,-2.8113,-2.8014,-2.7886,-2.7675,-2.7725,-2.767,-2.7585,-2.7585,-2.7585,-2.7585,-2.7585,-2.7585,-2.7585,-2.7645,-2.769,-2.7764,-2.7735,-2.7742,-2.7357,-2.6953,-2.6584,-2.6168,-2.5619,-2.5203,-2.5132,-2.4835,-2.439,-2.4213,-2.4255,-2.4308,-2.4687,-2.4831,-2.4883,-2.5066,-2.5349,-2.5569,-2.5613,-2.5839,-2.6222,-2.6539,-2.6517,-2.6449,-2.6449,-2.6449,-2.6348,-2.6348,-2.6373,-2.6386,-2.6424,-2.6449,-2.6461,-2.6474,-2.6487,-2.6487,-2.6487,-2.6487,-2.6487,-2.6487,-2.6487,-2.6487,-2.6487,-2.6487,-2.6436,-2.6285,-2.6021,-2.5561,-2.5159,-2.4682,-2.428,-2.3747,-2.3409,-2.317,-2.3133,-2.3095,-2.3095,-2.3095,-2.3095,-3.2023,-3.1517,-3.1638,-3.1688,-3.1661,-3.2172,-3.2398,-3.2398,-3.2425,-3.2398,-3.2398,-3.2398,-3.2398,-3.2398,-3.2398,-3.2398,-3.2382,-3.2351,-3.1979,-3.167,-3.1613,-3.1166,-3.072,-3.0402,-3.0109,-2.9694,-2.9243,-2.8889,-2.9181,-2.9002,-2.8796,-2.8673,-2.8642,-2.8565,-2.8519,-2.8372,-2.8348,-2.821,-2.8088,-2.798,-2.788,-2.774,-2.7675,-2.765,-2.7585,-2.7585,-2.7585,-2.7585,-2.7585,-2.7585,-2.7585,-2.7585,-2.7585,-2.7585,-2.7585,-2.7509,-2.7074,-2.6919,-2.6669,-2.6256,-2.5797,-2.5577,-2.5425,-2.5188,-2.4821,-2.462,-2.4489,-2.4125,-2.4344,-2.4285,-2.4376,-2.4749,-2.5062,-2.511,-2.5173,-2.5701,-2.616,-2.6269,-2.6285,-2.6285,-2.6285,-2.6084,-2.5762,-2.5787,-2.5812,-2.5871,-2.5921,-2.6009,-2.6461,-2.6487,-2.6474,-2.6474,-2.6474,-2.6487,-2.6487,-2.6487,-2.6487,-2.6487,-2.6424,-2.6323,-2.6172,-2.5946,-2.5598,-2.5096,-2.4594,-2.4104,-2.3684,-2.3446,-2.3321,-2.3133,-2.312,-2.3095,-2.3095,-2.3095,-2.3095]},{"header":{"parameterUnit":"m.s-1","parameterCategory":1,"la1":31.0,"la2":29.5877,"lo1":-88.7671,"lo2":-86.6584,"dy":0.0162,"dx":0.0185,"nx":115,"ny":88,"refTime":"2024-08-09T18:00:00:Z","depth":0,"parameterNumber":3,"parameterNumberName":"V-component_of_WINDS"},"data":[0.0,0.0,0.0,0.0,0.0,0.0,0.0,0.0,0.0,0.0,0.0,0.0,0.0,0.0,0.0,0.0,0.0,0.0,0.0,0.0,0.0,0.0,0.0,0.0,0.0,0.0,0.0,0.0,0.0,0.0,0.0,0.0,0.0,0.0,0.0,0.0,0.0,0.0,0.0,0.0,0.0,0.0,0.0,0.0,0.0,0.0,0.0,0.0,0.0,0.0,0.0,0.0,0.0,0.0,0.0,0.0,0.0,0.0,0.0,0.0,0.0,0.0,0.0,0.0,0.0,0.0,0.0,0.0,0.0,0.0,0.0,0.0,0.0,0.0,0.0,0.0,0.0,0.0,0.0,0.0,0.0,0.0,0.0,0.0,0.0,0.0,0.0,0.0,0.0,0.0,0.0,0.0,0.0,0.0,0.0,0.0,0.0,0.0,0.0,0.0,0.0,0.0,0.0,0.0,0.0,0.0,0.0,0.0,0.0,0.0,0.0,0.0,0.0,0.0,0.0,0.0,0.0,0.0,0.0,0.0,0.0,0.0,0.0,0.0,0.0,0.0,0.0,0.0,0.0,0.0,0.0,0.0,0.0,0.0,0.0,0.0,0.0,0.0,0.0,0.0,0.0,0.0,0.0,0.0,0.0,0.0,0.0,0.0,0.0,0.0,0.0,0.0,0.0,0.0,0.0,0.0,0.0,0.0,0.0,0.0,0.0,0.0,0.0,0.0,0.0,0.0,0.0,0.0,0.0,0.0,0.0,0.0,0.0,0.0,0.0,0.0,0.0,0.0,0.0,0.0,0.0,0.0,0.0,0.0,0.0,0.0,0.0,0.0,0.0,0.0,0.0,0.0,0.0,0.0,0.0,0.0,0.0,0.0,0.0,0.0,0.0,0.0,0.0,0.0,0.0,0.0,0.0,0.0,0.0,0.0,0.0,0.0,0.0,0.0,0.0,0.0,0.0,0.0,0.0,0.0,0.0,0.0,0.0,0.0,0.0,0.0,0.0,0.0,0.0,0.0,0.0,0.0,0.0,0.0,0.0,0.0,0.0,0.0,0.0,0.0,0.0,0.0,0.0,0.0,0.0,0.0,0.0,0.0,0.0,0.0,0.0,0.0,0.0,0.0,0.0,0.0,0.0,0.0,0.0,0.0,0.0,0.0,0.0,0.0,0.0,0.0,0.0,0.0,0.0,0.0,0.0,0.0,0.0,0.0,0.0,0.0,0.0,0.0,0.0,0.0,0.0,0.0,0.0,0.0,0.0,0.0,0.0,0.0,0.0,0.0,0.0,0.0,0.0,0.0,0.0,0.0,0.0,0.0,0.0,0.0,0.0,0.0,0.0,0.0,0.0,0.0,0.0,0.0,0.0,0.0,0.0,0.0,0.0,0.0,0.0,0.0,0.0,0.0,0.0,0.0,0.0,0.0,0.0,0.0,0.0,0.0,0.0,0.0,0.0,0.0,0.0,0.0,0.0,0.0,0.0,0.0,0.0,0.0,0.0,0.0,0.0,0.0,0.0,0.0,0.0,0.0,0.0,0.0,0.0,0.0,0.0,0.0,0.0,0.0,0.0,0.0,0.0,0.0,0.0,0.0,0.0,0.0,0.0,0.0,0.0,0.0,0.0,0.0,0.0,0.0,0.0,0.0,0.0,0.0,0.0,0.0,0.0,0.0,0.0,0.0,0.0,0.0,0.0,0.0,0.0,0.0,0.0,0.0,0.0,0.0,0.0,0.0,0.0,0.0,0.0,0.0,0.0,0.0,0.0,0.0,0.0,0.0,0.0,0.0,0.0,0.0,0.0,0.0,0.0,0.0,0.0,0.0,0.0,0.0,0.0,0.0,0.0,0.0,0.0,0.0,0.0,0.0,0.0,0.0,0.0,0.0,0.0,0.0,0.0,0.0,0.0,0.0,0.0,0.0,0.0,0.0,0.0,0.0,0.0,0.0,0.0,0.0,0.0,0.0,0.0,0.0,0.0,0.0,0.0,0.0,0.0,0.0,0.0,0.0,0.0,0.0,0.0,0.0,0.0,0.0,0.0,0.0,0.0,0.0,0.0,0.0,0.0,0.0,0.0,0.0,0.0,0.0,0.0,0.0,0.0,0.0,0.0,0.0,0.0,0.0,0.0,0.0,0.0,0.0,0.0,0.0,0.0,0.0,0.0,0.0,0.0,0.0,0.0,0.0,0.0,0.0,0.0,0.0,0.0,0.0,0.0,0.0,0.0,0.0,0.0,0.0,0.0,0.0,0.0,0.0,0.0,0.0,0.0,0.0,0.0,0.0,0.0,0.0,0.0,0.0,0.0,0.0,0.0,0.0,0.0,0.0,0.0,0.0,0.0,0.0,0.0,0.0,0.0,0.0,0.0,0.0,0.0,0.0,0.0,0.0,0.0,0.0,0.0,0.0,0.0,0.0,0.0,0.0,0.0,0.0,0.0,0.0,0.0,0.0,0.0,0.0,0.0,0.0,0.0,0.0,0.0,0.0,0.0,0.0,0.0,0.0,0.0,0.0,0.0,0.0,0.0,0.0,0.0,0.0,0.0,0.0,0.0,0.0,0.0,0.0,0.0,0.0,0.0,0.0,0.0,0.0,0.0,0.0,0.0,0.0,0.0,0.0,0.0,0.0,0.0,0.0,0.0,0.0,0.0,0.0,0.0,0.0,0.0,0.0,0.0,0.0,0.0,0.0,0.0,0.0,0.0,0.0,0.0,0.0,0.0,0.0,0.0,0.0,0.0,0.0,0.0,0.0,0.0,0.0,0.0,0.0,0.0,0.0,0.0,0.0,0.0,0.0,0.0,0.0,0.0,0.0,0.0,0.0,0.0,0.0,0.0,0.0,0.0,0.0,0.0,0.0,0.0,0.0,0.0,0.0,0.0,0.0,0.0,0.0,0.0,0.0,0.0,0.0,0.0,0.0,0.0,0.0,0.0,0.0,0.0,0.0,0.0,0.0,0.0,0.0,0.0,0.0,0.0,0.0,0.0,0.0,0.0,0.0,0.0,0.0,0.0,0.0,0.0,0.0,0.0,0.0,0.0,0.0,0.0,0.0,0.0,0.0,0.0,0.0,0.0,0.0,0.0,0.0,0.0,0.0,0.0,0.0,0.0,0.0,0.0,0.0,0.0,0.0,0.0,0.0,0.0,0.0,0.0,0.0,0.0,0.0,0.0,0.0,0.0,0.0,0.0,0.0,0.0,0.0,0.0,0.0,0.0,0.0,0.0,0.0,0.0,0.0,0.0,0.0,0.0,0.0,0.0,0.0,0.0,0.0,0.0,0.0,0.0,0.0,0.0,0.0,0.0,0.0,0.0,0.0,0.0,0.0,0.0,0.0,0.0,0.0,0.0,0.0,0.0,0.0,0.0,0.0,0.0,0.0,0.0,0.0,0.0,0.0,0.0,0.0,0.0,0.0,0.0,0.0,0.0,0.0,0.0,0.0,0.0,0.0,0.0,0.0,0.0,0.0,0.0,0.0,0.0,0.0,0.0,0.0,0.0,0.0,0.0,0.0,0.0,0.0,0.0,0.0,0.0,0.0,0.0,0.0,0.0,0.0,0.0,0.0,0.0,0.0,0.0,0.0,0.0,0.0,0.0,0.0,0.0,0.0,0.0,0.0,0.0,0.0,0.0,0.0,0.0,0.0,0.0,0.0,0.0,0.0,0.0,0.0,0.0,0.0,0.0,0.0,0.0,0.0,0.0,0.0,0.0,0.0,0.0,0.0,0.0,0.0,0.0,0.0,0.0,0.0,0.0,0.0,0.0,0.0,0.0,0.0,0.0,0.0,0.0,0.0,0.0,0.0,0.0,0.0,0.0,0.0,0.0,0.0,0.0,0.0,0.0,0.0,0.0,0.0,0.0,0.0,0.0,0.0,0.0,0.0,0.0,0.0,0.0,0.0,0.0,0.0,0.0,0.0,0.0,0.0,0.0,0.0,0.0,0.0,0.0,0.0,0.0,0.0,0.0,0.0,0.0,0.0,0.0,0.0,0.0,0.0,0.0,0.0,0.0,0.0,0.0,0.0,0.0,0.0,0.0,0.0,0.0,0.0,0.0,0.0,0.0,0.0,0.0,0.0,0.0,0.0,0.0,0.0,0.0,0.0,0.0,0.0,0.0,0.0,0.0,0.0,0.0,0.0,0.0,0.0,0.0,0.0,0.0,0.0,0.0,0.0,0.0,0.0,0.0,0.0,0.0,0.0,0.0,0.0,0.0,0.0,0.0,0.0,0.0,0.0,0.0,0.0,0.0,0.0,0.0,0.0,0.0,0.0,-1.0429,0.0,0.0,0.0,0.0,0.0,0.0,0.0,0.0,0.0,0.0,0.0,0.0,0.0,0.0,0.0,0.0,0.0,0.0,0.0,0.0,0.0,0.0,0.0,0.0,0.0,0.0,0.0,0.0,0.0,0.0,0.0,0.0,0.0,0.0,0.0,0.0,0.0,0.0,0.0,0.0,0.0,0.0,0.0,0.0,0.0,0.0,0.0,0.0,0.0,0.0,0.0,0.0,0.0,0.0,0.0,0.0,0.0,0.0,0.0,0.0,0.0,0.0,0.0,0.0,0.0,0.0,0.0,0.0,0.0,0.0,0.0,0.0,0.0,0.0,0.0,0.0,0.0,0.0,0.0,0.0,0.0,0.0,0.0,0.0,0.0,0.0,0.0,0.0,0.0,0.0,0.0,0.0,0.0,0.0,0.0,0.0,0.0,0.0,0.0,0.0,0.0,0.0,0.0,0.0,0.0,0.0,0.0,0.0,0.0,0.0,-1.2893,-1.2714,-1.2128,-1.1542,-1.0961,0.0,0.0,0.0,0.0,0.0,0.0,0.0,0.0,0.0,0.0,0.0,0.0,0.0,0.0,0.0,0.0,0.0,0.0,0.0,0.0,0.0,0.0,0.0,0.0,0.0,0.0,0.0,0.0,0.0,0.0,0.0,0.0,0.0,0.0,0.0,0.0,0.0,0.0,0.0,0.0,0.0,0.0,0.0,0.0,0.0,0.0,0.0,0.0,0.0,0.0,0.0,0.0,0.0,0.0,0.0,0.0,0.0,0.0,0.0,0.0,0.0,0.0,0.0,0.0,0.0,0.0,0.0,0.0,0.0,0.0,0.0,0.0,0.0,0.0,0.0,0.0,0.0,0.0,0.0,0.0,0.0,0.0,0.0,0.0,0.0,0.0,0.0,0.0,0.0,0.0,0.0,0.0,0.0,0.0,0.0,0.0,0.0,0.0,0.0,0.0,0.0,0.0,0.0,0.0,0.0,0.0,0.0,0.0,0.0,0.0,0.0,0.0,-1.3233,-1.264,-1.2093,0.0,0.0,0.0,0.0,0.0,0.0,0.0,0.0,0.0,0.0,0.0,0.0,0.0,0.0,0.0,0.0,0.0,0.0,0.0,0.0,0.0,0.0,0.0,0.0,0.0,0.0,0.0,0.0,0.0,0.0,0.0,0.0,0.0,0.0,0.0,0.0,0.0,0.0,0.0,0.0,0.0,0.0,0.0,0.0,0.0,0.0,0.0,0.0,0.0,0.0,0.0,0.0,0.0,0.0,0.0,0.0,0.0,0.0,0.0,0.0,0.0,0.0,0.0,0.0,0.0,0.0,0.0,0.0,0.0,0.0,0.0,0.0,0.0,0.0,0.0,0.0,0.0,0.0,0.0,0.0,0.0,0.0,0.0,0.0,0.0,0.0,0.0,0.0,0.0,0.0,0.0,0.0,0.0,0.0,0.0,0.0,0.0,0.0,0.0,0.0,0.0,0.0,0.0,0.0,0.0,0.0,0.0,0.0,0.0,0.0,-1.2988,-1.4449,-1.4825,0.0,-1.4205,0.0,0.0,0.0,0.0,0.0,0.0,0.0,0.0,0.0,0.0,0.0,0.0,0.0,0.0,0.0,0.0,0.0,0.0,0.0,0.0,0.0,0.0,0.0,0.0,0.0,0.0,0.0,0.0,0.0,0.0,0.0,0.0,0.0,0.0,0.0,0.0,0.0,0.0,0.0,0.0,0.0,0.0,0.0,0.0,0.0,0.0,0.0,0.0,0.0,0.0,0.0,0.0,0.0,0.0,0.0,0.0,0.0,0.0,0.0,0.0,0.0,0.0,0.0,0.0,0.0,0.0,0.0,0.0,0.0,0.0,0.0,0.0,0.0,0.0,0.0,0.0,0.0,0.0,0.0,0.0,0.0,0.0,0.0,0.0,0.0,0.0,0.0,0.0,0.0,0.0,0.0,0.0,0.0,0.0,0.0,0.0,0.0,0.0,0.0,0.0,0.0,0.0,0.0,0.0,0.0,0.0,0.0,0.0,0.0,0.0,0.0,-1.558,-1.4935,-1.4226,0.0,0.0,0.0,0.0,0.0,0.0,0.0,0.0,0.0,0.0,0.0,0.0,0.0,0.0,0.0,0.0,0.0,0.0,0.0,0.0,0.0,0.0,0.0,0.0,0.0,0.0,0.0,0.0,0.0,0.0,0.0,0.0,0.0,0.0,0.0,0.0,0.0,0.0,0.0,0.0,0.0,0.0,0.0,0.0,0.0,0.0,0.0,0.0,0.0,0.0,0.0,0.0,0.0,0.0,0.0,0.0,0.0,0.0,0.0,0.0,0.0,0.0,0.0,0.0,0.0,0.0,0.0,0.0,0.0,0.0,0.0,0.0,0.0,0.0,0.0,0.0,0.0,0.0,0.0,0.0,0.0,0.0,0.0,0.0,0.0,0.0,0.0,0.0,0.0,0.0,0.0,0.0,0.0,0.0,0.0,0.0,0.0,0.0,0.0,0.0,0.0,0.0,0.0,0.0,0.0,0.0,0.0,0.0,0.0,0.0,-1.5183,0.0,-1.69,-1.5447,-1.4243,-1.3556,0.0,0.0,0.0,0.0,0.0,0.0,0.0,0.0,0.0,0.0,0.0,0.0,0.0,0.0,0.0,0.0,0.0,0.0,0.0,0.0,0.0,0.0,0.0,0.0,0.0,0.0,0.0,0.0,0.0,0.0,0.0,0.0,0.0,0.0,0.0,0.0,0.0,0.0,0.0,0.0,0.0,0.0,0.0,0.0,0.0,0.0,0.0,0.0,0.0,0.0,0.0,0.0,0.0,0.0,0.0,0.0,0.0,0.0,0.0,0.0,0.0,0.0,0.0,0.0,0.0,0.0,0.0,0.0,0.0,0.0,0.0,0.0,0.0,0.0,0.0,0.0,0.0,0.0,0.0,0.0,0.0,0.0,0.0,0.0,0.0,0.0,0.0,0.0,0.0,0.0,0.0,0.0,0.0,0.0,0.0,0.0,0.0,0.0,0.0,0.0,0.0,0.0,0.0,0.0,0.0,0.0,0.0,0.0,0.0,-1.5869,-1.6466,-1.8785,-1.6874,-1.5709,0.0,0.0,0.0,0.0,0.0,0.0,0.0,0.0,0.0,0.0,0.0,0.0,0.0,0.0,0.0,0.0,0.0,0.0,0.0,0.0,0.0,0.0,0.0,0.0,0.0,0.0,0.0,0.0,0.0,0.0,0.0,0.0,0.0,0.0,0.0,0.0,0.0,0.0,0.0,0.0,0.0,0.0,0.0,0.0,0.0,0.0,0.0,0.0,0.0,0.0,0.0,0.0,0.0,0.0,0.0,0.0,0.0,0.0,0.0,0.0,0.0,0.0,0.0,0.0,0.0,0.0,0.0,0.0,0.0,0.0,0.0,0.0,0.0,0.0,0.0,0.0,0.0,0.0,0.0,0.0,0.0,0.0,0.0,0.0,0.0,0.0,0.0,0.0,0.0,0.0,0.0,0.0,0.0,0.0,0.0,0.0,0.0,0.0,0.0,0.0,0.0,0.0,0.0,0.0,0.0,0.0,0.0,0.0,0.0,-1.4384,-1.537,-1.6911,-1.8917,-1.6786,-1.575,0.0,0.0,0.0,0.0,0.0,0.0,0.0,0.0,0.0,0.0,0.0,0.0,0.0,0.0,0.0,0.0,0.0,0.0,0.0,0.0,0.0,0.0,0.0,0.0,0.0,0.0,0.0,0.0,0.0,0.0,0.0,0.0,0.0,0.0,0.0,0.0,0.0,0.0,0.0,0.0,0.0,0.0,0.0,0.0,0.0,0.0,0.0,0.0,0.0,0.0,0.0,0.0,0.0,0.0,0.0,0.0,0.0,0.0,0.0,0.0,0.0,0.0,0.0,0.0,0.0,0.0,0.0,0.0,0.0,0.0,0.0,0.0,0.0,0.0,0.0,0.0,0.0,0.0,0.0,0.0,0.0,0.0,0.0,0.0,0.0,0.0,0.0,0.0,0.0,0.0,0.0,0.0,0.0,0.0,0.0,0.0,0.0,0.0,0.0,0.0,0.0,0.0,0.0,0.0,0.0,0.0,0.0,0.0,0.0,-1.4592,0.0,-1.7967,0.0,-1.6984,-1.5735,0.0,0.0,0.0,0.0,0.0,0.0,0.0,0.0,0.0,0.0,0.0,0.0,0.0,0.0,0.0,0.0,0.0,0.0,0.0,0.0,0.0,0.0,0.0,0.0,0.0,0.0,0.0,0.0,0.0,0.0,0.0,0.0,0.0,0.0,0.0,0.0,0.0,0.0,0.0,0.0,0.0,0.0,0.0,0.0,0.0,0.0,0.0,0.0,0.0,0.0,0.0,0.0,0.0,0.0,0.0,0.0,0.0,0.0,0.0,0.0,0.0,0.0,0.0,0.0,0.0,0.0,0.0,0.0,0.0,0.0,0.0,0.0,0.0,0.0,0.0,0.0,0.0,0.0,0.0,0.0,0.0,0.0,0.0,0.0,0.0,0.0,0.0,0.0,0.0,0.0,0.0,0.0,0.0,0.0,0.0,0.0,0.0,0.0,0.0,0.0,0.0,0.0,0.0,0.0,0.0,0.0,0.0,0.0,-1.4111,-1.7939,-1.9227,-1.9552,-1.9032,-1.7525,-1.5775,0.0,0.0,0.0,0.0,0.0,0.0,0.0,0.0,0.0,0.0,0.0,0.0,0.0,0.0,0.0,0.0,0.0,0.0,0.0,0.0,0.0,0.0,0.0,0.0,0.0,0.0,0.0,0.0,0.0,0.0,0.0,0.0,0.0,0.0,0.0,0.0,0.0,0.0,0.0,0.0,0.0,0.0,0.0,0.0,0.0,0.0,0.0,0.0,0.0,0.0,0.0,0.0,0.0,0.0,0.0,0.0,0.0,0.0,0.0,0.0,0.0,0.0,0.0,0.0,0.0,0.0,0.0,0.0,0.0,0.0,0.0,0.0,0.0,0.0,0.0,0.0,0.0,0.0,0.0,0.0,0.0,0.0,0.0,0.0,0.0,0.0,0.0,0.0,0.0,0.0,0.0,0.0,0.0,0.0,0.0,0.0,0.0,0.0,0.0,0.0,0.0,0.0,0.0,0.0,0.0,0.0,0.0,0.0,0.0,-1.6667,-1.8045,-1.9356,-2.0502,-1.7708,-1.6312,0.0,0.0,0.0,0.0,0.0,0.0,0.0,0.0,0.0,0.0,0.0,0.0,0.0,0.0,0.0,0.0,0.0,0.0,0.0,0.0,0.0,0.0,0.0,0.0,0.0,0.0,0.0,0.0,0.0,0.0,0.0,0.0,0.0,0.0,0.0,0.0,0.0,0.0,0.0,0.0,0.0,0.0,0.0,0.0,0.0,0.0,0.0,0.0,0.0,0.0,0.0,0.0,0.0,0.0,0.0,0.0,0.0,0.0,0.0,0.0,0.0,0.0,0.0,0.0,0.0,0.0,0.0,0.0,0.0,0.0,0.0,0.0,0.0,0.0,0.0,0.0,0.0,0.0,0.0,0.0,0.0,0.0,0.0,0.0,0.0,0.0,0.0,0.0,0.0,0.0,0.0,0.0,0.0,0.0,0.0,0.0,0.0,0.0,0.0,0.0,0.0,0.0,0.0,0.0,0.0,0.0,0.0,0.0,0.0,-1.7777,-1.9188,-2.043,-2.138,-1.8528,-1.7099,-1.7207,0.0,0.0,0.0,0.0,0.0,0.0,0.0,0.0,0.0,0.0,0.0,0.0,0.0,0.0,0.0,0.0,0.0,0.0,0.0,0.0,0.0,0.0,0.0,0.0,0.0,0.0,0.0,0.0,0.0,0.0,0.0,0.0,0.0,0.0,0.0,0.0,0.0,0.0,0.0,0.0,0.0,0.0,0.0,0.0,0.0,0.0,0.0,0.0,0.0,0.0,0.0,0.0,0.0,0.0,0.0,0.0,0.0,0.0,0.0,0.0,0.0,0.0,0.0,0.0,0.0,0.0,0.0,0.0,0.0,0.0,0.0,0.0,0.0,0.0,0.0,0.0,0.0,0.0,0.0,0.0,0.0,0.0,0.0,0.0,0.0,0.0,0.0,0.0,0.0,0.0,0.0,0.0,0.0,0.0,0.0,0.0,0.0,0.0,0.0,0.0,0.0,0.0,0.0,0.0,0.0,0.0,0.0,0.0,-2.0646,-2.2234,-2.257,-2.162,-1.9925,-1.8085,0.0,0.0,0.0,0.0,0.0,0.0,0.0,0.0,0.0,0.0,0.0,0.0,0.0,0.0,0.0,0.0,0.0,0.0,0.0,0.0,0.0,0.0,0.0,0.0,0.0,0.0,0.0,0.0,0.0,0.0,0.0,0.0,0.0,0.0,0.0,0.0,0.0,0.0,0.0,0.0,0.0,0.0,0.0,0.0,0.0,0.0,0.0,0.0,0.0,0.0,0.0,0.0,0.0,0.0,0.0,0.0,0.0,0.0,0.0,0.0,0.0,0.0,0.0,0.0,0.0,0.0,0.0,0.0,0.0,0.0,0.0,0.0,0.0,0.0,0.0,0.0,0.0,0.0,0.0,0.0,0.0,0.0,0.0,0.0,0.0,0.0,0.0,0.0,0.0,0.0,0.0,0.0,0.0,0.0,0.0,0.0,0.0,0.0,0.0,0.0,0.0,0.0,0.0,0.0,0.0,0.0,0.0,0.0,0.0,-2.1199,-2.3099,-2.3989,-2.3652,-2.1031,-1.9131,0.0,0.0,0.0,0.0,0.0,0.0,0.0,0.0,0.0,0.0,0.0,0.0,0.0,0.0,0.0,0.0,0.0,0.0,0.0,0.0,0.0,0.0,0.0,0.0,0.0,0.0,0.0,0.0,0.0,0.0,0.0,0.0,0.0,0.0,0.0,0.0,0.0,0.0,0.0,0.0,0.0,0.0,0.0,0.0,0.0,0.0,0.0,0.0,0.0,0.0,0.0,0.0,0.0,0.0,0.0,0.0,0.0,0.0,0.0,0.0,0.0,0.0,0.0,0.0,0.0,0.0,0.0,0.0,0.0,0.0,0.0,0.0,0.0,0.0,0.0,0.0,0.0,0.0,0.0,0.0,0.0,0.0,0.0,0.0,0.0,0.0,0.0,0.0,0.0,0.0,0.0,0.0,0.0,0.0,0.0,0.0,0.0,0.0,0.0,0.0,0.0,0.0,0.0,0.0,0.0,0.0,0.0,0.0,-2.067,-2.2053,-2.3893,-2.482,-2.4808,-2.2438,-2.0454,0.0,0.0,0.0,0.0,0.0,0.0,0.0,0.0,0.0,0.0,0.0,0.0,0.0,0.0,0.0,0.0,0.0,0.0,0.0,0.0,0.0,0.0,0.0,0.0,0.0,0.0,0.0,0.0,0.0,0.0,0.0,0.0,0.0,0.0,0.0,0.0,0.0,0.0,0.0,0.0,0.0,0.0,0.0,0.0,0.0,0.0,0.0,0.0,0.0,0.0,0.0,0.0,0.0,0.0,0.0,0.0,0.0,0.0,0.0,0.0,0.0,0.0,0.0,0.0,0.0,0.0,0.0,0.0,0.0,0.0,0.0,0.0,0.0,0.0,0.0,0.0,0.0,0.0,0.0,0.0,0.0,0.0,0.0,0.0,0.0,0.0,0.0,0.0,0.0,0.0,0.0,0.0,0.0,0.0,0.0,0.0,0.0,0.0,0.0,0.0,0.0,0.0,0.0,0.0,0.0,0.0,0.0,0.0,-2.1921,-2.2967,-2.4506,-2.5312,-2.5264,-2.3797,-2.1783,0.0,0.0,0.0,0.0,0.0,0.0,0.0,0.0,0.0,0.0,0.0,0.0,0.0,0.0,0.0,0.0,0.0,0.0,0.0,0.0,0.0,0.0,0.0,0.0,0.0,0.0,0.0,0.0,0.0,0.0,0.0,0.0,0.0,0.0,0.0,0.0,0.0,0.0,0.0,0.0,0.0,0.0,0.0,0.0,0.0,0.0,0.0,0.0,0.0,0.0,0.0,0.0,0.0,0.0,0.0,0.0,0.0,0.0,0.0,0.0,0.0,0.0,0.0,0.0,0.0,0.0,0.0,0.0,0.0,0.0,0.0,0.0,0.0,0.0,0.0,0.0,0.0,0.0,0.0,0.0,0.0,0.0,0.0,0.0,0.0,0.0,0.0,0.0,0.0,0.0,0.0,0.0,0.0,0.0,0.0,0.0,0.0,0.0,0.0,0.0,0.0,0.0,0.0,0.0,0.0,0.0,0.0,0.0,-2.1921,-2.3011,-2.4506,-2.5312,-2.53,-2.3797,-2.1964,0.0,0.0,0.0,0.0,0.0,0.0,0.0,0.0,0.0,0.0,0.0,0.0,0.0,0.0,0.0,0.0,0.0,0.0,0.0,0.0,0.0,0.0,0.0,0.0,0.0,0.0,0.0,0.0,0.0,0.0,0.0,0.0,0.0,0.0,0.0,0.0,0.0,0.0,0.0,0.0,0.0,0.0,0.0,0.0,0.0,0.0,0.0,0.0,-1.9598,0.0,0.0,0.0,0.0,0.0,0.0,0.0,0.0,0.0,0.0,0.0,0.0,0.0,0.0,0.0,0.0,0.0,0.0,0.0,0.0,0.0,0.0,0.0,0.0,0.0,0.0,0.0,0.0,0.0,0.0,0.0,0.0,0.0,0.0,0.0,0.0,0.0,0.0,0.0,0.0,0.0,0.0,0.0,0.0,0.0,0.0,0.0,0.0,0.0,0.0,0.0,0.0,0.0,0.0,0.0,0.0,0.0,0.0,0.0,-2.2654,-2.3688,-2.4747,-2.5347,-2.5381,-2.4159,-2.2478,0.0,0.0,0.0,0.0,0.0,0.0,0.0,0.0,0.0,0.0,0.0,0.0,0.0,0.0,0.0,0.0,0.0,0.0,0.0,0.0,0.0,0.0,0.0,0.0,0.0,0.0,0.0,0.0,0.0,0.0,0.0,0.0,0.0,0.0,0.0,0.0,0.0,0.0,0.0,0.0,0.0,0.0,0.0,0.0,0.0,0.0,0.0,0.0,0.0,0.0,0.0,0.0,0.0,0.0,0.0,0.0,0.0,0.0,0.0,0.0,0.0,0.0,0.0,0.0,0.0,0.0,0.0,0.0,0.0,0.0,0.0,0.0,0.0,0.0,0.0,0.0,0.0,0.0,0.0,0.0,0.0,0.0,0.0,0.0,0.0,0.0,0.0,0.0,0.0,0.0,0.0,0.0,0.0,0.0,0.0,0.0,0.0,0.0,0.0,0.0,0.0,0.0,0.0,0.0,0.0,0.0,0.0,-2.1313,-2.3312,-2.4659,-2.513,-2.543,-2.5629,-2.4606,-2.3011,-2.0807,0.0,0.0,0.0,0.0,0.0,0.0,0.0,0.0,0.0,0.0,0.0,0.0,0.0,0.0,0.0,0.0,0.0,0.0,0.0,0.0,0.0,0.0,0.0,0.0,0.0,0.0,0.0,0.0,0.0,0.0,0.0,0.0,0.0,0.0,0.0,0.0,0.0,0.0,-1.7809,-1.9522,0.0,0.0,0.0,0.0,0.0,0.0,0.0,0.0,-2.1448,0.0,0.0,0.0,0.0,0.0,0.0,0.0,0.0,0.0,0.0,0.0,0.0,0.0,0.0,0.0,0.0,0.0,0.0,0.0,0.0,0.0,0.0,0.0,0.0,0.0,0.0,0.0,0.0,0.0,0.0,0.0,0.0,0.0,0.0,0.0,0.0,0.0,0.0,0.0,0.0,0.0,0.0,0.0,0.0,0.0,0.0,0.0,0.0,0.0,0.0,0.0,0.0,0.0,0.0,0.0,0.0,-2.1039,-2.1052,-2.2528,-2.5585,-2.5604,-2.5641,-2.5804,-2.482,-2.3059,-2.0557,0.0,0.0,0.0,0.0,0.0,0.0,0.0,0.0,0.0,0.0,0.0,0.0,0.0,0.0,0.0,0.0,0.0,0.0,0.0,0.0,0.0,0.0,0.0,0.0,0.0,0.0,0.0,0.0,0.0,0.0,0.0,0.0,0.0,0.0,0.0,0.0,0.0,0.0,0.0,-2.2396,-2.3107,0.0,0.0,0.0,0.0,0.0,0.0,0.0,0.0,-2.1994,0.0,0.0,0.0,0.0,0.0,0.0,0.0,0.0,0.0,0.0,0.0,0.0,0.0,0.0,0.0,0.0,0.0,0.0,0.0,0.0,0.0,0.0,0.0,0.0,0.0,0.0,0.0,0.0,0.0,0.0,0.0,0.0,0.0,0.0,0.0,0.0,0.0,0.0,0.0,0.0,0.0,0.0,0.0,0.0,0.0,0.0,0.0,0.0,0.0,0.0,0.0,0.0,0.0,0.0,0.0,-2.0351,-2.1823,-2.3631,-2.5789,-2.5793,-2.5693,-2.5546,-2.3979,-2.2149,0.0,0.0,0.0,0.0,0.0,0.0,0.0,0.0,0.0,0.0,0.0,0.0,0.0,0.0,0.0,0.0,0.0,0.0,0.0,0.0,0.0,0.0,0.0,0.0,0.0,0.0,0.0,0.0,0.0,0.0,0.0,0.0,0.0,0.0,0.0,0.0,0.0,0.0,0.0,0.0,-2.278,-2.3505,-2.3853,0.0,0.0,0.0,0.0,0.0,0.0,-2.2781,-2.2836,0.0,0.0,0.0,0.0,0.0,0.0,0.0,0.0,0.0,0.0,0.0,0.0,0.0,0.0,0.0,0.0,0.0,0.0,0.0,0.0,0.0,0.0,0.0,0.0,0.0,0.0,0.0,0.0,0.0,0.0,0.0,0.0,0.0,0.0,0.0,0.0,0.0,0.0,0.0,0.0,0.0,0.0,0.0,0.0,0.0,0.0,0.0,0.0,0.0,0.0,0.0,0.0,0.0,0.0,0.0,-1.9258,-2.2021,-2.4247,-2.5743,-2.5709,-2.5521,-2.5319,-2.3306,-2.1428,0.0,0.0,0.0,0.0,0.0,0.0,0.0,0.0,0.0,0.0,0.0,0.0,0.0,0.0,0.0,0.0,0.0,0.0,0.0,0.0,0.0,0.0,0.0,0.0,0.0,0.0,0.0,0.0,0.0,0.0,0.0,0.0,0.0,0.0,0.0,0.0,0.0,0.0,0.0,0.0,0.0,-2.4157,-2.4882,-2.4679,0.0,0.0,0.0,0.0,-2.3815,-2.4033,0.0,0.0,0.0,0.0,0.0,0.0,0.0,0.0,0.0,0.0,0.0,0.0,0.0,0.0,0.0,0.0,0.0,0.0,0.0,0.0,0.0,0.0,0.0,0.0,0.0,0.0,0.0,0.0,0.0,0.0,0.0,0.0,0.0,0.0,0.0,0.0,0.0,0.0,0.0,0.0,0.0,0.0,0.0,0.0,0.0,0.0,0.0,0.0,0.0,0.0,0.0,0.0,0.0,0.0,0.0,0.0,-1.8859,-2.0077,-2.2268,-2.5398,-2.5004,-2.4942,-2.5528,-2.3866,-2.1867,0.0,0.0,0.0,0.0,0.0,0.0,0.0,0.0,0.0,0.0,0.0,0.0,0.0,0.0,0.0,0.0,0.0,0.0,0.0,0.0,0.0,0.0,0.0,0.0,0.0,0.0,0.0,0.0,0.0,0.0,0.0,0.0,0.0,0.0,0.0,0.0,0.0,0.0,0.0,0.0,0.0,-2.6782,-2.5821,-2.6112,-2.6416,0.0,0.0,-2.5839,-2.697,-2.6738,0.0,0.0,0.0,0.0,0.0,0.0,0.0,0.0,0.0,0.0,0.0,0.0,0.0,0.0,0.0,0.0,0.0,0.0,0.0,0.0,0.0,0.0,0.0,0.0,0.0,0.0,0.0,0.0,0.0,0.0,0.0,0.0,0.0,0.0,0.0,0.0,0.0,0.0,0.0,0.0,0.0,0.0,0.0,0.0,0.0,0.0,0.0,0.0,0.0,0.0,0.0,0.0,0.0,0.0,0.0,-1.6709,-1.8896,-2.0837,-2.2912,-2.5059,-2.4836,-2.4673,-2.4682,-2.246,-2.0521,0.0,0.0,0.0,0.0,0.0,0.0,0.0,0.0,0.0,0.0,0.0,0.0,0.0,0.0,0.0,0.0,0.0,0.0,0.0,0.0,0.0,0.0,0.0,0.0,0.0,0.0,0.0,0.0,0.0,0.0,0.0,0.0,0.0,0.0,0.0,0.0,0.0,0.0,0.0,0.0,0.0,0.0,-2.6808,-2.7447,0.0,0.0,0.0,-2.7057,-2.7608,0.0,0.0,0.0,0.0,0.0,0.0,0.0,0.0,0.0,0.0,0.0,0.0,0.0,0.0,0.0,0.0,0.0,0.0,0.0,0.0,0.0,0.0,0.0,0.0,0.0,0.0,0.0,0.0,0.0,0.0,0.0,0.0,0.0,0.0,0.0,0.0,0.0,0.0,0.0,0.0,0.0,0.0,0.0,0.0,0.0,0.0,0.0,0.0,0.0,0.0,0.0,0.0,0.0,0.0,0.0,0.0,0.0,-1.8746,-2.135,-2.3308,-2.4569,-2.4437,-2.4173,-2.3753,-2.133,0.0,0.0,0.0,0.0,0.0,0.0,0.0,0.0,0.0,0.0,0.0,0.0,0.0,0.0,0.0,0.0,0.0,0.0,0.0,0.0,0.0,0.0,0.0,0.0,0.0,0.0,0.0,-1.2021,0.0,0.0,0.0,0.0,0.0,0.0,0.0,0.0,0.0,0.0,0.0,0.0,0.0,0.0,-2.6129,-2.7724,-2.8521,-2.8797,0.0,0.0,-2.8174,-2.8188,-2.781,-2.691,0.0,0.0,0.0,0.0,0.0,0.0,0.0,0.0,0.0,0.0,0.0,0.0,0.0,0.0,0.0,0.0,0.0,0.0,0.0,0.0,0.0,0.0,0.0,0.0,0.0,0.0,0.0,0.0,0.0,0.0,0.0,0.0,0.0,0.0,0.0,0.0,0.0,0.0,0.0,0.0,0.0,0.0,0.0,0.0,0.0,0.0,0.0,0.0,0.0,0.0,0.0,0.0,0.0,0.0,0.0,-1.8243,-2.0464,-2.241,-2.3966,-2.3496,-2.3208,-2.3133,-2.1546,-1.9939,0.0,0.0,0.0,0.0,0.0,0.0,0.0,0.0,0.0,0.0,0.0,0.0,0.0,0.0,0.0,0.0,0.0,0.0,0.0,0.0,0.0,0.0,0.0,0.0,0.0,0.0,0.0,0.0,0.0,0.0,0.0,0.0,0.0,0.0,0.0,0.0,0.0,0.0,0.0,0.0,0.0,-2.7795,-2.8521,-2.916,-2.9755,0.0,0.0,-2.9479,-2.9465,-2.9421,-2.8405,-2.5386,0.0,0.0,0.0,0.0,0.0,0.0,0.0,0.0,0.0,0.0,0.0,0.0,0.0,0.0,0.0,0.0,0.0,0.0,0.0,0.0,0.0,0.0,0.0,0.0,0.0,0.0,0.0,0.0,0.0,0.0,0.0,0.0,0.0,0.0,0.0,0.0,0.0,0.0,0.0,0.0,0.0,0.0,0.0,0.0,0.0,0.0,0.0,0.0,0.0,0.0,0.0,0.0,0.0,-1.6204,-1.8191,-2.0376,-2.2133,-2.3358,-2.3221,-2.2945,-2.2606,-2.1633,-2.0433,0.0,0.0,0.0,0.0,0.0,0.0,0.0,0.0,0.0,0.0,0.0,0.0,0.0,0.0,0.0,0.0,0.0,0.0,0.0,0.0,0.0,0.0,0.0,0.0,0.0,0.0,0.0,0.0,-1.4615,-1.5168,-1.5824,0.0,0.0,0.0,0.0,0.0,0.0,0.0,0.0,0.0,0.0,-2.765,-2.9058,-2.9798,0.0,0.0,-3.0394,-3.0205,-3.0205,-2.9189,-2.7739,-2.5763,-2.4573,0.0,0.0,0.0,0.0,0.0,0.0,0.0,0.0,0.0,0.0,0.0,0.0,0.0,0.0,0.0,0.0,0.0,0.0,0.0,0.0,0.0,0.0,0.0,0.0,0.0,0.0,0.0,0.0,0.0,0.0,0.0,0.0,0.0,0.0,0.0,0.0,0.0,0.0,0.0,0.0,0.0,0.0,0.0,0.0,0.0,0.0,0.0,0.0,0.0,0.0,0.0,0.0,-1.6153,-1.8191,-2.0376,-2.202,-2.307,-2.2945,-2.2682,-2.2287,-2.1559,-2.056,0.0,0.0,0.0,0.0,0.0,0.0,0.0,0.0,0.0,0.0,0.0,0.0,0.0,0.0,0.0,0.0,0.0,0.0,0.0,0.0,0.0,0.0,0.0,0.0,0.0,0.0,0.0,0.0,-1.536,-1.5737,-1.5955,0.0,0.0,0.0,0.0,0.0,0.0,0.0,0.0,0.0,0.0,-2.7969,-2.9668,-3.0292,-3.0612,-3.0612,-3.0612,-3.0467,-3.0104,-2.9044,-2.7768,-2.6315,0.0,0.0,0.0,0.0,0.0,0.0,0.0,0.0,0.0,0.0,0.0,0.0,0.0,0.0,0.0,0.0,0.0,0.0,0.0,0.0,0.0,0.0,0.0,0.0,0.0,0.0,0.0,0.0,0.0,0.0,-1.1336,0.0,0.0,0.0,0.0,0.0,0.0,0.0,0.0,0.0,0.0,0.0,0.0,0.0,0.0,0.0,0.0,0.0,0.0,0.0,0.0,0.0,0.0,-1.6509,-1.8191,-2.0376,-2.2008,-2.3032,-2.2581,-2.2328,-2.2265,-2.1224,-2.0217,-1.9343,0.0,0.0,0.0,0.0,0.0,0.0,0.0,0.0,0.0,0.0,0.0,0.0,0.0,0.0,0.0,0.0,0.0,0.0,0.0,0.0,0.0,0.0,0.0,0.0,0.0,0.0,-1.5477,-1.6112,-1.6213,0.0,0.0,0.0,0.0,0.0,0.0,0.0,0.0,0.0,0.0,-2.7881,-2.913,-3.038,-3.0598,-3.0612,-3.0612,-3.0612,-3.0191,-2.9014,-2.9189,-2.8956,0.0,0.0,0.0,0.0,0.0,0.0,0.0,0.0,0.0,0.0,0.0,0.0,0.0,0.0,0.0,0.0,0.0,0.0,0.0,0.0,0.0,0.0,0.0,0.0,0.0,0.0,0.0,-1.364,-1.3445,0.0,0.0,0.0,0.0,0.0,0.0,0.0,0.0,0.0,0.0,0.0,-1.8053,-1.8607,0.0,0.0,0.0,0.0,0.0,0.0,0.0,0.0,0.0,0.0,0.0,0.0,-1.6697,-1.8707,-2.0564,-2.2015,-2.3055,-2.2917,-2.2643,-2.2243,-2.2208,-2.1634,-2.046,0.0,0.0,0.0,0.0,0.0,0.0,0.0,0.0,0.0,0.0,0.0,0.0,0.0,0.0,0.0,0.0,0.0,0.0,0.0,0.0,0.0,0.0,0.0,0.0,0.0,-1.5271,0.0,0.0,0.0,0.0,0.0,0.0,0.0,0.0,0.0,0.0,0.0,-2.5633,-2.7766,-2.8768,-2.961,-3.0496,-3.0612,-3.0612,0.0,0.0,0.0,0.0,0.0,0.0,0.0,0.0,0.0,0.0,0.0,0.0,0.0,0.0,-2.808,-2.5464,-2.4458,-2.4111,-2.4393,0.0,0.0,0.0,0.0,0.0,0.0,0.0,0.0,0.0,0.0,0.0,0.0,0.0,0.0,-1.5742,0.0,-1.5284,0.0,0.0,0.0,0.0,0.0,0.0,0.0,0.0,-1.8661,-1.9672,-2.0425,-2.0723,-2.0551,0.0,-1.9734,-1.8344,0.0,0.0,0.0,0.0,0.0,0.0,0.0,0.0,-1.7187,-1.8983,-2.0841,-2.2236,-2.3072,-2.3126,-2.2924,-2.2481,-2.259,-2.2232,-2.1373,-1.974,-1.855,0.0,0.0,0.0,0.0,0.0,0.0,0.0,0.0,0.0,0.0,0.0,0.0,0.0,0.0,0.0,0.0,0.0,0.0,0.0,0.0,0.0,0.0,0.0,-1.5624,0.0,0.0,0.0,0.0,0.0,0.0,0.0,0.0,0.0,-2.4017,-2.5689,-2.7525,-2.9287,-2.9784,-3.022,-3.0981,0.0,0.0,0.0,0.0,0.0,0.0,0.0,-2.945,-2.974,-2.9275,-2.8864,-2.8739,-2.9894,-3.0686,-3.0089,0.0,0.0,-2.7906,-2.7075,-2.6917,-2.719,-2.7235,-2.717,-2.6996,-2.7335,-2.7515,0.0,0.0,0.0,0.0,0.0,0.0,0.0,0.0,-1.7022,-1.7505,0.0,-1.7195,0.0,0.0,0.0,0.0,0.0,-1.7977,0.0,0.0,-2.1618,-2.2525,-2.2696,-2.2365,-2.2163,-2.2151,-2.2222,-2.1443,-1.9748,-1.7174,0.0,0.0,0.0,0.0,0.0,0.0,-1.7978,-1.912,-2.125,-2.2622,-2.3089,-2.3178,-2.3134,-2.2982,-2.238,-2.2048,-2.1975,-2.0828,-1.9827,-1.913,-1.7316,0.0,0.0,0.0,0.0,0.0,0.0,0.0,0.0,0.0,0.0,0.0,0.0,0.0,0.0,0.0,0.0,0.0,0.0,0.0,0.0,-1.5454,0.0,0.0,0.0,0.0,0.0,0.0,0.0,0.0,0.0,0.0,-2.6465,-2.7912,-2.9487,-3.0925,0.0,0.0,0.0,0.0,-3.0963,-3.1714,-3.1678,-3.1555,-3.1555,-3.2048,-3.2271,-3.1874,0.0,0.0,-3.0483,-3.1353,-3.1679,-2.9878,-3.0662,-3.1496,-3.1406,-3.0342,-2.9774,-3.0283,-2.9475,-2.8966,-2.9487,-2.952,-2.9579,-1.7705,0.0,0.0,0.0,0.0,-1.7474,-1.867,-2.0579,-2.0647,-2.0363,-1.9913,-1.9585,0.0,0.0,0.0,0.0,0.0,0.0,-2.0067,-2.1745,-2.2293,-2.3009,-2.3821,-2.3864,-2.3654,-2.3257,-2.301,-2.2418,-2.1556,-2.0012,-1.8177,-1.6095,0.0,0.0,0.0,0.0,-1.9095,-2.0226,-2.1625,-2.2541,-2.3004,-2.307,-2.3002,-2.2924,-2.2748,-2.2635,-2.2635,-2.1866,-2.0944,-1.9856,-1.8825,0.0,0.0,0.0,0.0,0.0,0.0,0.0,0.0,0.0,0.0,0.0,0.0,0.0,0.0,0.0,0.0,0.0,0.0,0.0,-1.601,-1.6323,-1.7189,0.0,0.0,0.0,0.0,0.0,0.0,0.0,0.0,0.0,-3.0514,-3.0539,-3.0778,0.0,0.0,-3.225,-3.2031,-3.2161,-3.2381,-3.2603,0.0,0.0,0.0,-3.2395,-3.2322,-3.2619,-3.2948,-3.2982,-3.2464,-3.2422,-3.2243,-3.1676,-3.1555,-3.1496,-3.1481,-3.1227,-3.1017,-3.1137,-3.0898,-3.0733,-3.0898,-3.0943,-3.0943,-2.0176,-1.8701,-1.7808,-1.8347,-1.9691,-1.964,-2.0786,-2.2787,-2.2815,-2.257,-2.2118,-2.1957,-2.1031,-1.96,-1.9179,0.0,0.0,0.0,-2.1769,-2.3477,-2.3644,-2.4085,-2.4801,-2.4937,-2.4571,-2.3835,-2.3578,-2.3158,-2.2636,-2.197,-2.0589,-1.8555,0.0,0.0,-1.7865,-1.9058,-2.0138,-2.1033,-2.2324,-2.3007,-2.3002,-2.2965,-2.2963,-2.2909,-2.2888,-2.2772,-2.2548,-2.2193,-2.1409,-2.0161,-1.9464,-1.8056,0.0,0.0,0.0,0.0,0.0,0.0,0.0,0.0,0.0,0.0,0.0,-1.4571,0.0,0.0,0.0,0.0,-1.5131,-1.6398,-1.813,-1.876,0.0,0.0,0.0,0.0,0.0,0.0,0.0,-2.9448,-3.0567,-3.1674,-3.3095,-3.2795,-3.2584,-3.294,-3.301,-3.3009,-3.3014,0.0,-3.3111,-3.3439,-3.3406,-3.3478,-3.3714,-3.3431,-3.336,-3.3777,-3.404,-3.4031,-3.3809,-3.3483,-3.3215,-3.2931,-3.2587,-3.2198,-3.1944,-3.1899,-3.1795,-3.1555,-3.1496,-3.1496,-3.1496,-3.1496,-3.1496,-2.1982,-2.1807,-1.9795,-1.9956,-2.155,-2.131,-2.2219,-2.39,-2.3965,-2.4227,-2.4542,-2.4049,-2.3577,-2.3011,-2.2029,0.0,-2.2433,-2.305,-2.3977,-2.5194,-2.5385,-2.554,-2.5661,-2.5661,-2.5121,-2.413,-2.4079,-2.3766,-2.3183,-2.312,-2.2581,-2.1619,-2.0589,-1.9999,-1.9911,-2.0515,-2.1069,-2.1584,-2.3156,-2.369,-2.3015,-2.2989,-2.2917,-2.2801,-2.283,-2.2548,-2.1946,-2.1917,-2.1351,-2.0161,-1.9508,-1.8317,-1.6458,0.0,0.0,0.0,0.0,0.0,0.0,0.0,0.0,0.0,0.0,0.0,0.0,0.0,0.0,0.0,-1.8281,0.0,-2.0808,-2.2084,0.0,0.0,0.0,-2.5501,-2.7016,-2.8753,-3.0313,-3.1585,0.0,0.0,-3.4503,0.0,-3.4547,-3.4593,-3.3789,-3.3502,-3.4351,-3.3759,-3.3454,-3.4203,-3.4211,-3.4322,-3.4765,-3.4853,-3.4871,-3.508,-3.5374,-3.522,-3.4681,-3.4474,-3.4234,-3.3679,-3.3529,-3.326,-3.2632,-3.2437,-3.2273,-3.1615,-3.1496,-3.1496,-3.1496,-3.1496,-3.1496,-2.2842,-2.273,-2.1943,-2.201,-2.2765,-2.3345,-2.4194,-2.5185,-2.5469,-2.5384,-2.5083,-2.4566,-2.4061,-2.3601,-2.3348,-2.3594,-2.419,-2.4344,-2.4973,-2.5921,-2.5968,-2.6093,-2.6285,-2.6285,-2.5933,-2.5222,-2.4808,-2.433,-2.3791,-2.3308,-2.297,-2.2719,-2.2443,-2.1719,-2.0578,-2.143,-2.1983,-2.2108,-2.2912,-2.3228,-2.3016,-2.3423,-2.3209,-2.2251,-2.2222,-2.1917,-2.1264,-2.1235,-2.0886,-2.0146,-1.9943,-1.9217,-1.7777,-1.6631,0.0,0.0,0.0,0.0,0.0,0.0,0.0,0.0,0.0,-1.842,-1.5769,0.0,-1.9761,0.0,-2.1395,-2.2562,-2.2892,-2.3648,0.0,0.0,-2.7859,-2.8757,-3.1539,-3.1839,-3.2317,-3.3634,-3.4053,-3.4502,-3.519,-3.525,-3.5265,-3.525,-3.5051,-3.4827,-3.4562,-3.4784,-3.4974,-3.5126,-3.5123,-3.5195,-3.5329,-3.5374,-3.5344,-3.5439,-3.5472,-3.5444,-3.528,-3.4848,-3.4444,-3.4279,-3.3814,-3.329,-3.2647,-3.2497,-3.2258,-3.1675,-3.1496,-3.1496,-3.1496,-3.1496,-3.1496,-2.3101,-2.3071,-2.2847,-2.2903,-2.316,-2.3603,-2.45,-2.562,-2.5788,-2.5917,-2.5961,-2.5433,-2.4939,-2.4492,-2.456,-2.4786,-2.5156,-2.5352,-2.5697,-2.6213,-2.6305,-2.6396,-2.6487,-2.6487,-2.6197,-2.5598,-2.5297,-2.4757,-2.4004,-2.3647,-2.3358,-2.3108,-2.3095,-2.2644,-2.1832,-2.2343,-2.2791,-2.3112,-2.3629,-2.3998,-2.4249,-2.4013,-2.3412,-2.2432,-2.2388,-2.1844,-2.064,-2.0878,-2.0582,-1.9711,-1.9653,-1.9217,-1.8259,-1.7588,-1.666,0.0,0.0,0.0,0.0,0.0,0.0,0.0,0.0,0.0,0.0,0.0,-2.2128,0.0,-2.3969,-2.5181,-2.5779,-2.6921,-2.8536,-3.0672,-3.0821,-3.1614,-3.3755,-3.3604,-3.3784,-3.4816,-3.4968,-3.5085,-3.5444,-3.5489,-3.5489,-3.5489,-3.5489,-3.537,-3.504,-3.528,-3.5489,-3.5489,-3.5489,-3.5489,-3.5489,-3.5489,-3.5489,-3.5489,-3.5489,-3.5489,-3.5489,-3.519,-3.4936,-3.4906,-3.4637,-3.4188,-3.3529,-3.314,-3.2706,-3.2108,-3.1705,-3.1525,-3.1496,-3.1496,-3.1496,-2.3101,-2.3101,-2.3101,-2.3178,-2.325,-2.3287,-2.4167,-2.5631,-2.5796,-2.625,-2.6861,-2.6381,-2.5913,-2.542,-2.5597,-2.5631,-2.5641,-2.598,-2.6166,-2.6201,-2.6396,-2.6487,-2.6487,-2.6487,-2.6235,-2.5711,-2.5636,-2.5121,-2.4217,-2.4067,-2.371,-2.3233,-2.3145,-2.3095,-2.3095,-2.3095,-2.3424,-2.4089,-2.4628,-2.5166,-2.5676,-2.4607,-2.3673,-2.2931,-2.2743,-2.1866,-2.0204,-2.0596,-2.0364,-1.9304,-1.9304,-1.9072,-1.8477,-1.8448,-1.7885,0.0,-1.7182,0.0,0.0,0.0,0.0,0.0,0.0,0.0,0.0,-2.3804,-2.4582,-2.5068,-2.6393,-2.7709,-2.8876,-3.0569,-3.1929,-3.2691,-3.3275,-3.3873,-3.4517,-3.4638,-3.4846,-3.5429,-3.5489,-3.5489,-3.5489,-3.5489,-3.5489,-3.5489,-3.5489,-3.5474,-3.5489,-3.5489,-3.5489,-3.5489,-3.5489,-3.5489,-3.5489,-3.5489,-3.5489,-3.5489,-3.5489,-3.5489,-3.5489,-3.5489,-3.5474,-3.5474,-3.5429,-3.519,-3.4638,-3.3978,-3.338,-3.2632,-3.2034,-3.1645,-3.1525,-3.1496,-3.1496,-2.3101,-2.3101,-2.3101,-2.356,-2.4231,-2.4237,-2.4819,-2.5812,-2.6857,-2.7129,-2.6898,-2.6789,-2.6466,-2.5961,-2.5985,-2.5864,-2.5618,-2.584,-2.6027,-2.6213,-2.6396,-2.6487,-2.6487,-2.6487,-2.6436,-2.6298,-2.5824,-2.5498,-2.5272,-2.4418,-2.3941,-2.3816,-2.3333,-2.3095,-2.3095,0.0,0.0,0.0,-2.4687,-2.5025,-2.5069,-2.479,-2.4085,-2.2917,-2.1895,0.0,-2.0161,-2.0204,-2.0175,-1.9943,-2.0378,0.0,0.0,0.0,0.0,0.0,0.0,0.0,0.0,0.0,0.0,0.0,-2.3747,-2.3827,-2.4261,-2.6811,-2.8293,-2.7949,-2.9478,-3.0673,-3.0928,-3.175,-3.2796,-3.3963,-3.4249,-3.4547,-3.5205,-3.5295,-3.537,-3.5474,-3.5489,-3.5489,-3.5489,-3.5489,-3.5489,-3.5489,-3.5489,-3.5489,-3.5489,-3.5489,-3.5489,-3.5489,-3.5489,-3.5489,-3.5489,-3.5489,-3.5489,-3.5489,-3.5489,-3.5489,-3.5489,-3.5489,-3.5489,-3.5489,-3.5489,-3.5295,-3.4637,-3.4399,-3.3934,-3.2751,-3.2392,-3.2138,-3.1615,-3.1496,-3.1496,-2.3101,0.0,-2.3101,-2.3647,0.0,-2.4956,-2.5663,-2.6524,-2.7151,-2.7411,-2.7282,-2.7282,-2.6875,-2.6093,-2.6203,-2.5997,-2.5606,-2.591,-2.6097,-2.6213,-2.6396,-2.6487,-2.6487,-2.6487,-2.6487,-2.6474,-2.6197,-2.5908,-2.5586,-2.5059,-2.4519,-2.3991,-2.3703,-2.3384,-2.3108,-2.3095,-2.356,-2.4538,-2.5133,-2.5575,-2.58,-2.5481,-2.4679,-2.3432,0.0,0.0,0.0,0.0,0.0,0.0,0.0,0.0,0.0,0.0,0.0,-2.0602,-2.1493,-2.2075,-2.2097,-2.279,-2.3775,-2.5079,-2.6302,-2.6857,-2.6593,-2.8712,-3.0043,-3.0046,-3.0957,-3.1645,-3.1974,-3.2617,-3.3395,-3.4384,-3.4818,-3.5145,-3.5429,-3.5489,-3.5489,-3.5489,-3.5489,-3.5489,-3.5489,-3.5489,-3.5489,-3.5489,-3.5489,-3.5489,-3.5489,-3.5489,-3.5489,-3.5489,-3.5489,-3.5489,-3.5489,-3.5489,-3.5489,-3.5489,-3.5489,-3.5489,-3.5489,-3.5489,-3.5489,-3.5489,-3.5489,-3.5355,-3.507,-3.4743,-3.4279,-3.3589,-3.2946,-3.2437,-3.2034,-3.1735,-3.1496,-2.3101,-2.3101,-2.3101,-2.3647,-2.4573,-2.5295,-2.6216,-2.7214,0.0,0.0,0.0,-2.7873,-2.732,-2.6394,-2.6444,-2.619,-2.5716,-2.5994,-2.6131,-2.6166,-2.6396,-2.6487,-2.6487,-2.6487,-2.6487,-2.6487,-2.6487,-2.6248,-2.5749,-2.5649,-2.5109,-2.4217,-2.4054,-2.3672,-2.3133,-2.3095,-2.3738,-2.4951,-2.5495,-2.6098,-2.6738,-2.6126,-2.5324,-2.4239,-2.4007,-2.3136,-2.1583,-2.2033,-2.2077,-2.1554,-2.1612,-2.1627,-2.1554,-2.2606,-2.3178,-2.3142,-2.4172,-2.4868,-2.5038,-2.5121,-2.5526,-2.6312,-2.8219,-2.9205,-2.8801,-2.9953,-3.0898,-3.1466,-3.1496,-3.1824,-3.2602,-3.3155,-3.3814,-3.4608,-3.516,-3.5489,-3.5489,-3.5489,-3.5489,-3.5489,-3.5489,-3.5489,-3.5489,-3.5489,-3.5489,-3.5489,-3.5489,-3.5489,-3.5489,-3.5489,-3.5489,-3.5489,-3.5489,-3.5489,-3.5489,-3.5489,-3.5489,-3.5489,-3.5489,-3.5489,-3.5489,-3.5489,-3.5489,-3.5489,-3.5489,-3.5489,-3.5459,-3.507,-3.4608,-3.4384,-3.3455,-3.2602,-3.2318,-3.1884,-3.1511,-2.3101,-2.3101,-2.3101,-2.3647,-2.4488,-2.4627,-2.5673,-2.7214,-2.8018,-2.8343,-2.8402,-2.839,-2.8053,-2.7426,-2.7019,-2.6551,-2.6046,-2.5966,-2.5945,0.0,-2.6327,-2.6487,-2.6487,-2.6487,-2.6487,-2.6487,-2.6487,-2.6449,-2.6323,-2.5837,-2.5285,-2.4675,-2.423,-2.3703,-2.3145,-2.3095,-2.3738,-2.4951,-2.5077,-2.5674,-2.6738,-2.6126,-2.573,-2.5513,-2.4481,-2.3813,-2.3522,-2.3572,-2.3572,-2.3499,-2.3983,-2.4027,-2.358,-2.4128,-2.4302,-2.3833,-2.4404,-2.5056,-2.5604,-2.5773,-2.644,-2.7677,-2.8626,-2.9248,-2.949,-3.0614,-3.1391,-3.1496,-3.1496,-3.2019,-3.317,-3.344,-3.3993,-3.513,-3.5429,-3.5489,-3.5489,-3.5489,-3.5489,-3.5489,-3.5489,-3.5489,-3.5489,-3.5489,-3.5489,-3.5489,-3.5489,-3.5489,-3.5489,-3.5489,-3.5489,-3.5489,-3.5489,-3.5489,-3.5489,-3.5489,-3.5489,-3.5489,-3.5489,-3.5489,-3.5489,-3.5489,-3.5489,-3.5489,-3.5489,-3.5489,-3.5489,-3.5459,-3.4921,-3.4113,-3.3529,-3.3021,-3.2079,-3.1675,-3.1511,-2.3101,-2.3101,-2.3101,-2.3647,-2.4573,-2.5547,-2.667,-2.7886,-2.8311,-2.851,-2.851,-2.851,-2.821,-2.7705,-2.7138,-2.6635,-2.6069,-2.5849,-2.5711,-2.5758,-2.6141,-2.6339,-2.6327,-2.6465,-2.6487,-2.6487,-2.6487,-2.6487,-2.6461,-2.6223,-2.5682,-2.4788,-2.3935,-2.3371,-2.312,-2.3095,-2.356,-2.4481,-2.4838,-2.5591,-2.6753,-2.6489,-2.6155,-2.5818,-2.5222,-2.4762,-2.4442,-2.4442,-2.4428,-2.4399,-2.4689,-2.4733,-2.4471,-2.5009,-2.5226,-2.4965,-2.5531,-2.601,-2.63,-2.6407,-2.6878,-2.7905,-2.8605,-2.9232,-2.9826,-3.0729,-3.1292,-3.138,-3.138,-3.1975,-3.335,-3.3499,-3.4038,-3.537,-3.5489,-3.5489,-3.5489,-3.5489,-3.5489,-3.5489,-3.5489,-3.5489,-3.5489,-3.5489,-3.5489,-3.5489,-3.5489,-3.5489,-3.5489,-3.5489,-3.5489,-3.5489,-3.5489,-3.5489,-3.5489,-3.5489,-3.5489,-3.5489,-3.5489,-3.5489,-3.5489,-3.5489,-3.5489,-3.5489,-3.5489,-3.5489,-3.5489,-3.5489,-3.519,-3.4816,-3.3903,-3.3245,-3.2691,-3.2064,-3.1525,-2.3101,-2.3101,-2.3101,-2.3637,-2.4627,-2.6216,-2.7389,-2.8179,-2.8391,-2.851,-2.851,-2.851,-2.8282,-2.7822,-2.7186,-2.6657,-2.6274,-2.5803,-2.5606,-2.5641,-2.5945,-2.6166,-2.6201,-2.6361,-2.6465,-2.6487,-2.6487,-2.6487,-2.6487,-2.6487,-2.5996,-2.4983,-2.3847,-2.3283,-2.3296,-2.317,-2.3424,-2.4073,-2.458,-2.5398,-2.6541,-2.6727,-2.6559,-2.6094,-2.601,-2.5803,-2.5367,-2.5313,-2.5299,-2.5259,-2.5299,-2.5338,-2.5328,-2.5763,-2.601,-2.6079,-2.653,-2.6794,-2.6794,-2.6924,-2.7312,-2.8031,-2.8702,-2.9373,-3.0147,-3.069,-3.1102,-3.1263,-3.1322,-3.1871,-3.3109,-3.3469,-3.4023,-3.5262,-3.5457,-3.5489,-3.5489,-3.5489,-3.5489,-3.5489,-3.5489,-3.5489,-3.5489,-3.5489,-3.5489,-3.5489,-3.5489,-3.5489,-3.5489,-3.5489,-3.5489,-3.5489,-3.5489,-3.5489,-3.5489,-3.5489,-3.5489,-3.5489,-3.5489,-3.5489,-3.5489,-3.5489,-3.5489,-3.5489,-3.5489,-3.5489,-3.5489,-3.5489,-3.531,-3.4876,-3.4038,-3.338,-3.2871,-3.2153,-3.1525,-2.3101,-2.3101,-2.3101,-2.3647,-2.4573,-2.5537,-2.6464,-2.7389,-2.8139,-2.851,-2.851,-2.851,-2.8486,-2.8266,-2.7342,-2.6837,-2.6743,-2.5972,-2.5606,-2.5606,-2.584,-2.6027,-2.6166,-2.6201,-2.6292,-2.6499,-2.6487,-2.6487,-2.6487,-2.6474,-2.616,-2.546,-2.4456,-2.3916,-2.3879,-2.3371,-2.3437,-2.4102,-2.4147,-2.478,-2.5921,-2.65,-2.675,-2.6733,-2.6692,-2.6663,-2.6533,-2.6646,-2.6605,-2.6605,-2.6576,-2.6591,-2.6591,-2.6689,-2.6678,-2.6704,-2.675,-2.6794,-2.6823,-2.7289,-2.7897,-2.8564,-2.9174,-2.9798,-3.0468,-3.0614,-3.0851,-3.1176,-3.1292,-3.1857,-3.3061,-3.3362,-3.3959,-3.51,-3.5407,-3.5489,-3.5489,-3.5489,-3.5489,-3.5489,-3.5489,-3.5489,-3.5489,-3.5489,-3.5489,-3.5489,-3.5489,-3.5489,-3.5489,-3.5489,-3.5489,-3.5489,-3.5489,-3.5489,-3.5489,-3.5489,-3.5489,-3.5489,-3.5489,-3.5489,-3.5489,-3.5489,-3.5489,-3.5489,-3.5489,-3.5489,-3.5489,-3.5459,-3.5085,-3.4322,-3.3694,-3.3125,-3.2079,-3.1615,-3.1496,-2.3101,-2.3101,-2.3101,-2.3647,-2.4498,-2.4872,-2.5872,-2.7214,-2.7551,-2.8007,-2.8471,-2.851,-2.851,-2.845,-2.7366,-2.6885,-2.6801,-2.5889,-2.543,-2.5418,-2.5618,-2.584,-2.6015,-2.6166,-2.6305,-2.6499,-2.6487,-2.6487,-2.6436,-2.6147,-2.5824,-2.5548,-2.4845,-2.4481,-2.4443,-2.3929,-2.3763,-2.4055,-2.4066,-2.4363,-2.4893,-2.577,-2.626,-2.6313,-2.6621,-2.6794,-2.6794,-2.6794,-2.6794,-2.6794,-2.6794,-2.6794,-2.6794,-2.6794,-2.6794,-2.6794,-2.6794,-2.698,-2.7316,-2.7565,-2.8145,-2.916,-2.945,-2.99,-3.0525,-3.0612,-3.0732,-3.094,-3.0984,-3.1559,-3.2861,-3.3145,-3.3741,-3.4884,-3.5294,-3.5359,-3.5504,-3.5489,-3.5489,-3.5489,-3.5489,-3.5489,-3.5489,-3.5489,-3.5489,-3.5489,-3.5489,-3.5489,-3.5489,-3.5489,-3.5489,-3.5489,-3.5489,-3.5489,-3.5489,-3.5489,-3.5489,-3.5489,-3.5489,-3.5489,-3.5489,-3.5489,-3.5489,-3.5489,-3.5489,-3.5489,-3.5489,-3.5459,-3.5175,-3.4158,-3.32,-3.2587,-3.1675,-3.1496,-3.1496,-2.3101,-2.3101,-2.3101,-2.3647,-2.4498,-2.4744,-2.5757,-2.7144,-2.7429,-2.7926,-2.8471,-2.851,-2.851,-2.8378,-2.751,-2.7042,-2.6777,-2.5949,-2.5444,-2.5324,-2.5453,-2.5606,-2.5828,-2.6027,-2.6236,-2.6396,-2.6465,-2.6487,-2.6449,-2.6097,-2.5837,-2.5762,-2.5297,-2.5034,-2.4983,-2.4494,-2.4142,-2.4041,-2.4038,-2.4007,-2.4011,-2.4865,-2.555,-2.5893,-2.6313,-2.6647,-2.6794,-2.6794,-2.6794,-2.6794,-2.6794,-2.6794,-2.6794,-2.6794,-2.6794,-2.6835,-2.6953,-2.7244,-2.7681,-2.8029,-2.8609,-2.9465,-2.974,-3.0074,-3.0496,-3.0612,-3.0642,-3.0717,-3.0732,-3.1348,-3.2643,-3.2972,-3.361,-3.4842,-3.5082,-3.518,-3.5294,-3.5374,-3.5407,-3.5392,-3.5457,-3.5489,-3.5489,-3.5489,-3.5489,-3.5489,-3.5489,-3.5489,-3.5489,-3.5489,-3.5489,-3.5489,-3.5489,-3.5489,-3.5489,-3.5489,-3.5489,-3.5489,-3.5489,-3.5489,-3.5489,-3.5489,-3.5489,-3.5489,-3.5489,-3.5474,-3.5429,-3.54,-3.4846,-3.4023,-3.3066,-3.2138,-3.1615,-3.1511,-3.1496,-2.3101,-2.3101,-2.3101,-2.3604,-2.4541,-2.5284,-2.6216,-2.7133,-2.7978,-2.8431,-2.8471,-2.851,-2.851,-2.8474,-2.7882,-2.7366,-2.6861,-2.6298,-2.5757,-2.5348,-2.5312,-2.5418,-2.5606,-2.5805,-2.6015,-2.6236,-2.6408,-2.6487,-2.6487,-2.6461,-2.6449,-2.6399,-2.5871,-2.5561,-2.5498,-2.5046,-2.4531,-2.4174,-2.4098,-2.3764,-2.3359,-2.3894,-2.4791,-2.5757,-2.5934,-2.6218,-2.6727,-2.6794,-2.6794,-2.6794,-2.6794,-2.6794,-2.6794,-2.6794,-2.6794,-2.6893,-2.7318,-2.7666,-2.7898,-2.8797,-2.9508,-2.9682,-3.0161,-3.0554,-3.0583,-3.0612,-3.0612,-3.0612,-3.0642,-3.1196,-3.2472,-3.2832,-3.3424,-3.4486,-3.4835,-3.4935,-3.4935,-3.5148,-3.5213,-3.5261,-3.5407,-3.5504,-3.5489,-3.5489,-3.5489,-3.5489,-3.5489,-3.5489,-3.5489,-3.5489,-3.5489,-3.5489,-3.5489,-3.5489,-3.5489,-3.5489,-3.5489,-3.5489,-3.5489,-3.5489,-3.5489,-3.5489,-3.5489,-3.5489,-3.5489,-3.5459,-3.5385,-3.4846,-3.3978,-3.3155,-3.2363,-3.163,-3.1525,-3.1511,-3.1496,-2.3101,-2.3101,-2.3101,-2.3309,-2.3604,-2.393,-2.4904,-2.6299,-2.6629,-2.7458,-2.8379,-2.851,-2.851,-2.851,-2.8318,-2.7753,-2.6898,-2.6346,-2.5817,-2.5348,-2.5312,-2.5418,-2.5606,-2.5676,-2.5875,-2.6166,-2.6283,-2.6361,-2.6487,-2.6487,-2.6487,-2.6474,-2.6298,-2.6172,-2.6084,-2.5598,-2.5197,-2.4996,-2.4707,-2.4243,-2.374,-2.3892,-2.4465,-2.5272,-2.5688,-2.6179,-2.6779,-2.6794,-2.6794,-2.6794,-2.6794,-2.6794,-2.6794,-2.6794,-2.6982,-2.736,-2.7579,-2.8058,-2.8826,-2.9334,-2.9784,-3.0205,-3.0452,-3.0612,-3.0612,-3.0612,-3.0612,-3.0612,-3.0612,-3.1209,-3.2213,-3.264,-3.3039,-3.3893,-3.4501,-3.4883,-3.5049,-3.518,-3.5261,-3.5374,-3.5472,-3.5489,-3.5489,-3.5489,-3.5489,-3.5489,-3.5489,-3.5489,-3.5489,-3.5489,-3.5489,-3.5489,-3.5489,-3.5489,-3.5489,-3.5489,-3.5489,-3.5489,-3.5489,-3.5489,-3.5489,-3.5489,-3.5489,-3.5385,-3.5415,-3.522,-3.5011,-3.4008,-3.314,-3.2676,-3.1869,-3.157,-3.1496,-3.1496,-3.1496,-2.3101,-2.3101,-2.3101,-2.3101,-2.3135,-2.343,-2.4402,-2.5788,-2.6121,-2.7092,-2.8299,-2.851,-2.851,-2.851,-2.851,-2.7933,-2.6934,-2.6526,-2.5985,-2.536,-2.5312,-2.5382,-2.5488,-2.5653,-2.5828,-2.6084,-2.6236,-2.6374,-2.6499,-2.6487,-2.6487,-2.6487,-2.6487,-2.6487,-2.6411,-2.6097,-2.5812,-2.5573,-2.5234,-2.4775,-2.433,-2.4268,-2.4674,-2.5457,-2.5935,-2.6341,-2.677,-2.6794,-2.6794,-2.6794,-2.6794,-2.6794,-2.6794,-2.6982,-2.7273,-2.7666,-2.8101,-2.8667,-2.945,-2.9784,-3.0118,-3.0554,-3.0612,-3.0612,-3.0612,-3.0612,-3.0612,-3.0612,-3.0627,-3.1061,-3.1917,-3.2382,-3.2925,-3.3817,-3.4453,-3.485,-3.5082,-3.5148,-3.5279,-3.5424,-3.5504,-3.5489,-3.5489,-3.5489,-3.5489,-3.5489,-3.5489,-3.5489,-3.5489,-3.5489,-3.5489,-3.5489,-3.5489,-3.5489,-3.5489,-3.5489,-3.5489,-3.5489,-3.5489,-3.5489,-3.5415,-3.5429,-3.534,-3.528,-3.5115,-3.4891,-3.4247,-3.3215,-3.2647,-3.2258,-3.1899,-3.1525,-3.1496,-3.1496,-3.1496,-2.3101,-2.3101,-2.3101,-2.3101,-2.3222,-2.3897,-2.4914,-2.583,-2.667,-2.751,-2.8431,-2.851,-2.851,-2.851,-2.851,-2.7945,-2.709,-2.6861,-2.6249,-2.5372,-2.5312,-2.5312,-2.5382,-2.5688,-2.5875,-2.5992,-2.6327,-2.6487,-2.6487,-2.6487,-2.6487,-2.6487,-2.6487,-2.6487,-2.6487,-2.6411,-2.6185,-2.5808,-2.5624,-2.5335,-2.4895,-2.482,-2.5306,-2.6378,-2.6532,-2.6628,-2.6765,-2.684,-2.6881,-2.6878,-2.6794,-2.6794,-2.6924,-2.7345,-2.771,-2.7985,-2.8884,-2.9494,-2.9682,-3.0205,-3.051,-3.0612,-3.0612,-3.0612,-3.0612,-3.0612,-3.0612,-3.0612,-3.0641,-3.0932,-3.1584,-3.2179,-3.3027,-3.4372,-3.4677,-3.4868,-3.4935,-3.5067,-3.5279,-3.5439,-3.5489,-3.5489,-3.5489,-3.5489,-3.5489,-3.5489,-3.5489,-3.5489,-3.5489,-3.5489,-3.5489,-3.5489,-3.5489,-3.5489,-3.5489,-3.5489,-3.5489,-3.5489,-3.5489,-3.5474,-3.528,-3.5205,-3.4861,-3.4726,-3.4487,-3.4233,-3.3679,-3.2736,-3.2213,-3.1854,-3.16,-3.1496,-3.1496,-3.1496,-3.1496,-2.3101,-2.3101,-2.3101,-2.3101,-2.3135,-2.343,-2.4349,-2.5746,-2.6163,-2.7092,-2.8299,-2.851,-2.851,-2.851,-2.8498,-2.8126,-2.7438,-2.7054,-2.6309,-2.5468,-2.5324,-2.5347,-2.55,-2.5641,-2.584,-2.6097,-2.6361,-2.6487,-2.6487,-2.6487,-2.6487,-2.6487,-2.6487,-2.6487,-2.6487,-2.6487,-2.6373,-2.6248,-2.6223,-2.5912,-2.541,-2.5347,-2.5582,-2.5949,-2.6008,-2.6193,-2.6625,-2.7142,-2.742,-2.7405,-2.7026,-2.6968,-2.7374,-2.7594,-2.8116,-2.8913,-2.9334,-2.9856,-3.0234,-3.0437,-3.0612,-3.0612,-3.0612,-3.0612,-3.0612,-3.0612,-3.0612,-3.0612,-3.0627,-3.0974,-3.1961,-3.2477,-3.3066,-3.3787,-3.4386,-3.4817,-3.4935,-3.5195,-3.5407,-3.5472,-3.5489,-3.5489,-3.5489,-3.5489,-3.5489,-3.5489,-3.5489,-3.5489,-3.5489,-3.5489,-3.5489,-3.5489,-3.5489,-3.5489,-3.5489,-3.5489,-3.5489,-3.5489,-3.5489,-3.528,-3.5085,-3.4906,-3.4547,-3.4113,-3.3858,-3.3484,-3.2916,-3.2378,-3.1884,-3.166,-3.154,-3.1496,-3.1496,-3.1496,-3.1496,-2.3101,-2.3101,-2.3101,-2.3101,-2.3101,-2.3101,-2.4155,-2.5652,-2.5777,-2.6835,-2.8259,-2.851,-2.851,-2.851,-2.851,-2.817,-2.7666,-2.7126,-2.6417,-2.5661,-2.536,-2.5382,-2.55,-2.5558,-2.5793,-2.6166,-2.6327,-2.643,-2.6487,-2.6487,-2.6487,-2.6487,-2.6487,-2.6487,-2.6487,-2.6487,-2.6487,-2.6487,-2.6474,-2.6323,-2.6,-2.5959,-2.607,-2.6317,-2.638,-2.6686,-2.729,-2.7555,-2.7669,-2.7653,-2.7501,-2.7708,-2.8057,-2.829,-2.8783,-2.9407,-2.9856,-3.0176,-3.0554,-3.0598,-3.0612,-3.0612,-3.0612,-3.0612,-3.0612,-3.0612,-3.0612,-3.0612,-3.0612,-3.0988,-3.1917,-3.2506,-3.2899,-3.3463,-3.427,-3.4787,-3.5016,-3.5213,-3.5392,-3.5457,-3.5489,-3.5489,-3.5489,-3.5489,-3.5489,-3.5489,-3.5489,-3.5489,-3.5489,-3.5489,-3.5489,-3.5489,-3.5489,-3.5489,-3.5489,-3.5489,-3.5489,-3.5489,-3.5489,-3.513,-3.4801,-3.4698,-3.4444,-3.3634,-3.3215,-3.2901,-3.2363,-3.1974,-3.1555,-3.1496,-3.1496,-3.1496,-3.1496,-3.1496,-3.1496,-2.3101,-2.3101,-2.3101,-2.3101,-2.3101,-2.3101,-2.4155,-2.561,-2.5777,-2.6823,-2.8219,-2.851,-2.851,-2.851,-2.851,-2.8258,-2.7741,-2.7138,-2.6645,-2.6105,-2.5624,-2.5335,-2.5382,-2.5558,-2.5828,-2.6131,-2.6201,-2.6305,-2.643,-2.6499,-2.6487,-2.6487,-2.6487,-2.6487,-2.6487,-2.6487,-2.6487,-2.6487,-2.6487,-2.6474,-2.6436,-2.6449,-2.6697,-2.7246,-2.7254,-2.7492,-2.783,-2.7823,-2.7693,-2.7688,-2.8196,-2.8578,-2.884,-2.9305,-2.9508,-2.9711,-3.0263,-3.0496,-3.0598,-3.0612,-3.0612,-3.0612,-3.0612,-3.0612,-3.0612,-3.0612,-3.0612,-3.0612,-3.0612,-3.0874,-3.1526,-3.2034,-3.2687,-3.3463,-3.4321,-3.4905,-3.518,-3.5261,-3.5359,-3.5457,-3.5489,-3.5489,-3.5489,-3.5489,-3.5489,-3.5489,-3.5489,-3.5489,-3.5489,-3.5489,-3.5489,-3.5489,-3.5489,-3.5489,-3.5489,-3.5489,-3.5489,-3.5429,-3.5295,-3.4786,-3.4247,-3.4038,-3.3739,-3.3006,-3.2602,-3.2258,-3.1974,-3.166,-3.1496,-3.1496,-3.1496,-3.1496,-3.1496,-3.1496,-3.1496,-2.3101,-2.3101,-2.3101,-2.3101,-2.3101,-2.3101,-2.4145,-2.5694,-2.5777,-2.6835,-2.8219,-2.851,-2.851,-2.851,-2.851,-2.8414,-2.8089,-2.7294,-2.6861,-2.6561,-2.5685,-2.5419,-2.5535,-2.5723,-2.5863,-2.598,-2.6131,-2.6236,-2.6305,-2.643,-2.6487,-2.6487,-2.6487,-2.6487,-2.6487,-2.6487,-2.6487,-2.6487,-2.6487,-2.6487,-2.6487,-2.6487,-2.6568,-2.6726,-2.6782,-2.6871,-2.7129,-2.7866,-2.8009,-2.7702,-2.8297,-2.8913,-2.9319,-2.9537,-2.9842,-3.0278,-3.0467,-3.0612,-3.0612,-3.0612,-3.0612,-3.0612,-3.0612,-3.0612,-3.0612,-3.0612,-3.0612,-3.0612,-3.0612,-3.0814,-3.138,-3.1683,-3.2309,-3.3376,-3.4354,-3.5049,-3.5279,-3.5424,-3.5439,-3.5504,-3.5489,-3.5489,-3.5489,-3.5489,-3.5489,-3.5489,-3.5489,-3.5489,-3.5489,-3.5489,-3.5489,-3.5489,-3.5489,-3.5489,-3.5489,-3.5489,-3.5459,-3.5385,-3.5011,-3.4307,-3.3604,-3.2946,-3.2467,-3.1869,-3.2004,-3.1809,-3.1705,-3.1511,-3.1496,-3.1496,-3.1496,-3.1496,-3.1496,-3.1496,-3.1496,-2.3101,-2.3101,-2.3101,-2.3101,-2.3101,-2.3101,-2.4145,-2.5568,-2.5819,-2.6835,-2.8207,-2.851,-2.851,-2.851,-2.851,-2.851,-2.8366,-2.7378,-2.691,-2.6705,-2.5769,-2.5395,-2.5465,-2.5606,-2.5723,-2.591,-2.6027,-2.6166,-2.6339,-2.643,-2.6487,-2.6487,-2.6487,-2.6487,-2.6487,-2.6487,-2.6487,-2.6487,-2.6487,-2.6487,-2.6487,-2.6487,-2.6487,-2.6487,-2.6487,-2.6589,-2.7007,-2.7953,-2.8329,-2.8258,-2.8924,-2.9653,-2.9958,-3.0031,-3.019,-3.0598,-3.0612,-3.0612,-3.0612,-3.0612,-3.0612,-3.0612,-3.0612,-3.0612,-3.0612,-3.0612,-3.0612,-3.0612,-3.0612,-3.0786,-3.1119,-3.1584,-3.2431,-3.3571,-3.442,-3.4986,-3.5261,-3.5279,-3.5407,-3.5472,-3.5489,-3.5489,-3.5489,-3.5489,-3.5489,-3.5489,-3.5489,-3.5489,-3.5489,-3.5489,-3.5489,-3.5489,-3.5489,-3.5489,-3.5459,-3.5444,-3.4996,-3.4921,-3.4322,-3.3679,-3.3066,-3.2198,-3.1884,-3.1585,-3.1525,-3.1496,-3.1496,-3.1496,-3.1496,-3.1496,-3.1496,-3.1496,-3.1496,-3.1496,-3.1496,-2.3144,-2.3266,-2.3135,-2.3101,-2.3101,-2.3135,-2.4145,-2.5568,-2.5777,-2.6823,-2.8219,-2.851,-2.851,-2.851,-2.851,-2.851,-2.8438,-2.7378,-2.6825,-2.6381,-2.5721,-2.5312,-2.5312,-2.5347,-2.55,-2.5758,-2.5875,-2.6084,-2.6292,-2.6418,-2.6487,-2.6487,-2.6487,-2.6487,-2.6487,-2.6487,-2.6487,-2.6487,-2.6487,-2.6487,-2.6487,-2.6487,-2.6487,-2.6487,-2.6487,-2.6714,-2.7263,-2.7966,-2.8309,-2.8382,-2.9794,-3.0406,-3.0554,-3.0583,-3.0583,-3.0598,-3.0612,-3.0612,-3.0612,-3.0612,-3.0612,-3.0612,-3.0612,-3.0612,-3.0612,-3.0612,-3.0612,-3.0612,-3.0612,-3.0641,-3.0801,-3.1671,-3.2555,-3.3436,-3.4224,-3.4758,-3.4879,-3.5055,-3.5279,-3.5472,-3.5489,-3.5489,-3.5489,-3.5489,-3.5489,-3.5489,-3.5489,-3.5489,-3.5489,-3.5489,-3.5489,-3.5489,-3.5489,-3.5489,-3.5444,-3.5385,-3.4756,-3.4262,-3.3469,-3.2841,-3.2512,-3.1929,-3.1675,-3.1496,-3.1496,-3.1496,-3.1496,-3.1496,-3.1496,-3.1496,-3.1496,-3.1496,-3.1496,-3.1496,-3.1496,-2.3527,-2.4166,-2.3387,-2.3101,-2.3101,-2.3135,-2.4145,-2.5788,-2.5819,-2.6876,-2.8219,-2.851,-2.851,-2.851,-2.851,-2.851,-2.833,-2.733,-2.6489,-2.5613,-2.548,-2.5312,-2.5312,-2.5312,-2.5347,-2.5535,-2.5758,-2.5945,-2.6084,-2.6314,-2.6487,-2.6499,-2.6465,-2.6487,-2.6487,-2.6487,-2.6487,-2.6487,-2.6487,-2.6487,-2.6487,-2.6487,-2.6487,-2.6487,-2.6487,-2.6568,-2.6782,-2.7351,-2.7703,-2.8195,-2.9439,-3.0507,-3.0538,-3.0552,-3.0568,-3.0612,-3.0612,-3.0612,-3.0612,-3.0612,-3.0612,-3.0612,-3.0612,-3.0612,-3.0612,-3.0612,-3.0612,-3.0612,-3.0612,-3.0612,-3.0685,-3.1417,-3.2048,-3.2627,-3.3551,-3.4315,-3.4453,-3.4966,-3.5394,-3.5457,-3.5489,-3.5489,-3.5489,-3.5489,-3.5489,-3.5489,-3.5489,-3.5489,-3.5489,-3.5489,-3.5489,-3.5489,-3.5295,-3.5235,-3.5085,-3.4831,-3.4098,-3.3559,-3.2826,-3.2258,-3.1944,-3.178,-3.157,-3.1496,-3.1496,-3.1496,-3.1496,-3.1496,-3.1496,-3.1496,-3.1496,-3.1496,-3.1496,-3.1496,-3.1496,-2.4659,-2.5031,-2.4573,-2.436,-2.4349,-2.4402,-2.5158,-2.6287,-2.6464,-2.7203,-2.8299,-2.851,-2.851,-2.851,-2.8498,-2.839,-2.7921,-2.7031,-2.6105,-2.5468,-2.5312,-2.5312,-2.5312,-2.5312,-2.5359,-2.5453,-2.5641,-2.5805,-2.5945,-2.6107,-2.6258,-2.6374,-2.6374,-2.6396,-2.6487,-2.6487,-2.6487,-2.6487,-2.6487,-2.6487,-2.6487,-2.6487,-2.6487,-2.6487,-2.6521,-2.6624,-2.7027,-2.7297,-2.7835,-2.8538,-2.9515,-3.0129,-3.0129,-3.016,-3.0282,-3.0538,-3.0612,-3.0612,-3.0612,-3.0612,-3.0612,-3.0612,-3.0612,-3.0612,-3.0612,-3.0612,-3.0612,-3.0612,-3.0612,-3.0612,-3.0641,-3.1209,-3.1622,-3.1978,-3.2807,-3.3556,-3.3921,-3.478,-3.5489,-3.5489,-3.5489,-3.5489,-3.5489,-3.5459,-3.5459,-3.5429,-3.5444,-3.5459,-3.5489,-3.5489,-3.5489,-3.5415,-3.5115,-3.4906,-3.4711,-3.4203,-3.332,-3.2826,-3.2318,-3.1929,-3.1675,-3.1585,-3.1511,-3.1496,-3.1496,-3.1496,-3.1496,-3.1496,-3.1496,-3.1496,-3.1496,-3.1496,-3.1496,-3.1496,-3.1496,-2.5861,-2.5997,-2.5872,-2.5777,-2.5777,-2.5735,-2.6246,-2.7092,-2.7174,-2.7592,-2.8391,-2.851,-2.851,-2.851,-2.851,-2.8146,-2.7414,-2.6659,-2.5841,-2.5372,-2.5312,-2.5312,-2.5312,-2.5312,-2.5359,-2.5535,-2.5606,-2.5723,-2.5805,-2.591,-2.605,-2.6131,-2.6201,-2.627,-2.6396,-2.6487,-2.6487,-2.6487,-2.6487,-2.6487,-2.6487,-2.6487,-2.6487,-2.6487,-2.6487,-2.6714,-2.7095,-2.7451,-2.8012,-2.917,-2.9359,-2.9484,-2.9623,-2.9777,-2.9976,-3.0582,-3.0612,-3.0612,-3.0612,-3.0612,-3.0612,-3.0612,-3.0612,-3.0612,-3.0612,-3.0612,-3.0612,-3.0612,-3.0612,-3.0612,-3.0641,-3.1081,-3.1462,-3.1759,-3.2304,-3.2827,-3.3311,-3.4394,-3.4966,-3.528,-3.5205,-3.5175,-3.531,-3.5355,-3.537,-3.5355,-3.5355,-3.531,-3.5295,-3.5205,-3.5026,-3.4891,-3.4517,-3.4083,-3.3858,-3.3709,-3.2811,-3.2317,-3.1854,-3.172,-3.1525,-3.1511,-3.1496,-3.1496,-3.1496,-3.1496,-3.1496,-3.1496,-3.1496,-3.1496,-3.1496,-3.1496,-3.1496,-3.1496,-3.1496,-2.6246,-2.6887,-2.6121,-2.5777,-2.5819,-2.5819,-2.6412,-2.7092,-2.7255,-2.7684,-2.8431,-2.851,-2.851,-2.851,-2.851,-2.7942,-2.7102,-2.6346,-2.5769,-2.5372,-2.5312,-2.5312,-2.5312,-2.5312,-2.5312,-2.5382,-2.55,-2.5606,-2.5688,-2.5793,-2.5875,-2.598,-2.6097,-2.6201,-2.6292,-2.6396,-2.6487,-2.6487,-2.6487,-2.6487,-2.6487,-2.6487,-2.6487,-2.6487,-2.6487,-2.6589,-2.6782,-2.7196,-2.7604,-2.7868,-2.8376,-2.8953,-2.9484,-2.9993,-3.0342,-3.0477,-3.0568,-3.0568,-3.0507,-3.0582,-3.0612,-3.0612,-3.0612,-3.0612,-3.0612,-3.0612,-3.0612,-3.0612,-3.0612,-3.0612,-3.0612,-3.0951,-3.1131,-3.1412,-3.1901,-3.2466,-3.2721,-3.3333,-3.4098,-3.4427,-3.4592,-3.4756,-3.4831,-3.4846,-3.4726,-3.4666,-3.4651,-3.4472,-3.4292,-3.4173,-3.4008,-3.3873,-3.3724,-3.3275,-3.2871,-3.2796,-3.2363,-3.1959,-3.163,-3.163,-3.1511,-3.1496,-3.1496,-3.1496,-3.1496,-3.1496,-3.1496,-3.1496,-3.1496,-3.1496,-3.1496,-3.1496,-3.1496,-3.1496,-3.1496,-2.7458,-2.7805,-2.7377,-2.7203,-2.7203,-2.7203,-2.7458,-2.7857,-2.7886,-2.8099,-2.8431,-2.851,-2.851,-2.851,-2.851,-2.7882,-2.6922,-2.6033,-2.5564,-2.5324,-2.5312,-2.5312,-2.5312,-2.5312,-2.5312,-2.5312,-2.5418,-2.5453,-2.5453,-2.5535,-2.5688,-2.5863,-2.6015,-2.6119,-2.6327,-2.6465,-2.6487,-2.6487,-2.6487,-2.6487,-2.6487,-2.6487,-2.6487,-2.6487,-2.6487,-2.6487,-2.6555,-2.6714,-2.7149,-2.7504,-2.7789,-2.8357,-2.9016,-2.9656,-3.0085,-3.016,-3.0417,-3.0403,-3.0251,-3.0357,-3.0612,-3.0612,-3.0612,-3.0612,-3.0612,-3.0612,-3.0612,-3.0612,-3.0612,-3.0612,-3.0612,-3.0762,-3.0836,-3.091,-3.1368,-3.1679,-3.1931,-3.2512,-3.3019,-3.3529,-3.3754,-3.3963,-3.4158,-3.4128,-3.4008,-3.4009,-3.3994,-3.3709,-3.3395,-3.3305,-3.3215,-3.32,-3.3125,-3.2691,-3.2317,-3.2153,-3.2093,-3.172,-3.1496,-3.1496,-3.1496,-3.1496,-3.1496,-3.1496,-3.1496,-3.1496,-3.1496,-3.1496,-3.1496,-3.1496,-3.1496,-3.1496,-3.1496,-3.1496,-3.1496,-2.851,-2.851,-2.851,-2.851,-2.851,-2.851,-2.8471,-2.851,-2.8471,-2.8471,-2.851,-2.851,-2.851,-2.8438,-2.8162,-2.7582,-2.6669,-2.5721,-2.5372,-2.5324,-2.5312,-2.5312,-2.5312,-2.5312,-2.5312,-2.5312,-2.5312,-2.5312,-2.5312,-2.5347,-2.55,-2.5688,-2.5828,-2.6037,-2.6292,-2.643,-2.6452,-2.6487,-2.6487,-2.6487,-2.6487,-2.6487,-2.6487,-2.6487,-2.6487,-2.6487,-2.6521,-2.6769,-2.7074,-2.7484,-2.7868,-2.8247,-2.8748,-2.9421,-2.9716,-2.9716,-3.0251,-3.019,-3.016,-3.0266,-3.0612,-3.0612,-3.0612,-3.0612,-3.0612,-3.0612,-3.0612,-3.0612,-3.0612,-3.0612,-3.0612,-3.0642,-3.0702,-3.0806,-3.0895,-3.1014,-3.1397,-3.1797,-3.2139,-3.2557,-3.2886,-3.326,-3.3574,-3.3425,-3.3305,-3.3305,-3.329,-3.3006,-3.2736,-3.2736,-3.2662,-3.2706,-3.2557,-3.2123,-3.1839,-3.1735,-3.1705,-3.1615,-3.1496,-3.1496,-3.1496,-3.1496,-3.1496,-3.1496,-3.1496,-3.1496,-3.1496,-3.1496,-3.1496,-3.1496,-3.1496,-3.1496,-3.1496,-3.1496,-3.1496,-2.851,-2.851,-2.851,-2.851,-2.851,-2.851,-2.851,-2.851,-2.851,-2.851,-2.851,-2.851,-2.8498,-2.8294,-2.7486,-2.6801,-2.6178,-2.5648,-2.5312,-2.5312,-2.5312,-2.5312,-2.5312,-2.5312,-2.5312,-2.5312,-2.5312,-2.5312,-2.5312,-2.5312,-2.5347,-2.5488,-2.5793,-2.5968,-2.6154,-2.6396,-2.6487,-2.6487,-2.6487,-2.6487,-2.6487,-2.6487,-2.6487,-2.6487,-2.6487,-2.6487,-2.6555,-2.6871,-2.7297,-2.7484,-2.8615,-2.9219,-2.9577,-3.0129,-3.0068,-3.0007,-3.016,-3.0582,-3.0387,-3.0507,-3.0612,-3.0612,-3.0612,-3.0612,-3.0612,-3.0612,-3.0612,-3.0612,-3.0612,-3.0612,-3.0642,-3.0702,-3.0836,-3.0955,-3.1029,-3.1205,-3.1454,-3.1485,-3.1781,-3.181,-3.2198,-3.2721,-3.314,-3.2856,-3.2617,-3.2632,-3.2572,-3.2317,-3.2123,-3.2153,-3.2138,-3.2153,-3.2153,-3.1795,-3.1675,-3.1525,-3.1496,-3.1496,-3.1496,-3.1496,-3.1496,-3.1496,-3.1496,-3.1496,-3.1496,-3.1496,-3.1496,-3.1496,-3.1496,-3.1496,-3.1496,-3.1496,-3.1496,-3.1496,-3.1496,-2.851,-2.851,-2.851,-2.851,-2.851,-2.851,-2.851,-2.851,-2.851,-2.851,-2.851,-2.851,-2.8326,-2.7945,-2.7198,-2.6609,-2.6069,-2.554,-2.5312,-2.5312,-2.5312,-2.5312,-2.5312,-2.5312,-2.5312,-2.5312,-2.5312,-2.5312,-2.5312,-2.5418,-2.5488,-2.5641,-2.591,-2.6154,-2.6154,-2.6396,-2.6499,-2.6487,-2.6487,-2.6487,-2.6487,-2.6487,-2.6487,-2.6487,-2.6487,-2.6487,-2.6589,-2.6714,-2.6952,-2.7007,-2.765,-2.7815,-2.8097,-2.8698,-2.9237,-2.9142,-3.0023,-3.0342,-3.0129,-3.0417,-3.0582,-3.0612,-3.0612,-3.0612,-3.0612,-3.0612,-3.0612,-3.0612,-3.0612,-3.0612,-3.0612,-3.0672,-3.0762,-3.091,-3.1087,-3.1234,-3.138,-3.1467,-3.157,-3.1511,-3.154,-3.2079,-3.2467,-3.2258,-3.2064,-3.2064,-3.2049,-3.1899,-3.1765,-3.1735,-3.1705,-3.1645,-3.1645,-3.1555,-3.1555,-3.1496,-3.1496,-3.1496,-3.1496,-3.1496,-3.1496,-3.1496,-3.1496,-3.1496,-3.1496,-3.1496,-3.1496,-3.1496,-3.1496,-3.1496,-3.1496,-3.1496,-3.1496,-3.1496,-3.1496,-2.851,-2.851,-2.851,-2.851,-2.851,-2.851,-2.851,-2.851,-2.851,-2.851,-2.8462,-2.8354,-2.7966,-2.745,-2.6935,-2.6358,-2.5853,-2.548,-2.5348,-2.5312,-2.5312,-2.5312,-2.5312,-2.5312,-2.5312,-2.5312,-2.5312,-2.5312,-2.5347,-2.5465,-2.5641,-2.577,-2.584,-2.6084,-2.6258,-2.6327,-2.6327,-2.6408,-2.6452,-2.6487,-2.6487,-2.6487,-2.6487,-2.6487,-2.6487,-2.6487,-2.6487,-2.6521,-2.6533,-2.6602,-2.6884,-2.7142,-2.725,-2.8357,-2.9016,-2.9174,-3.0023,-3.0417,-3.0251,-3.0342,-3.0568,-3.0612,-3.0612,-3.0612,-3.0612,-3.0612,-3.0612,-3.0612,-3.0612,-3.0612,-3.0612,-3.0612,-3.0702,-3.0836,-3.0955,-3.1117,-3.1263,-3.138,-3.1467,-3.1496,-3.1496,-3.1496,-3.1735,-3.163,-3.1555,-3.1525,-3.1496,-3.1496,-3.1496,-3.1496,-3.1496,-3.1496,-3.1496,-3.1496,-3.1496,-3.1496,-3.1496,-3.1496,-3.1496,-3.1496,-3.1496,-3.1496,-3.1496,-3.1496,-3.1496,-3.1496,-3.1496,-3.1496,-3.1496,-3.1496,-3.1496,-3.1496,-3.1496,-3.1496,-3.1496,-2.851,-2.851,-2.851,-2.851,-2.851,-2.851,-2.851,-2.851,-2.851,-2.8498,-2.8366,-2.7993,-2.7438,-2.6922,-2.6466,-2.5949,-2.5384,-2.5324,-2.5312,-2.5312,-2.5312,-2.5312,-2.5312,-2.5312,-2.5312,-2.5312,-2.5312,-2.5312,-2.5347,-2.5465,-2.5465,-2.543,-2.5688,-2.5805,-2.5945,-2.6062,-2.6166,-2.627,-2.6408,-2.6452,-2.6487,-2.6487,-2.6487,-2.6487,-2.6487,-2.6487,-2.6487,-2.6487,-2.6487,-2.6533,-2.6884,-2.7263,-2.7451,-2.8487,-2.9093,-2.9515,-3.0085,-3.0447,-3.0477,-3.0477,-3.0568,-3.0612,-3.0612,-3.0612,-3.0612,-3.0612,-3.0612,-3.0612,-3.0612,-3.0612,-3.0612,-3.0612,-3.0672,-3.0791,-3.0925,-3.1058,-3.1234,-3.1307,-3.1409,-3.1467,-3.1496,-3.1496,-3.1496,-3.1496,-3.1496,-3.1496,-3.1496,-3.1496,-3.1496,-3.1496,-3.1496,-3.1496,-3.1496,-3.1496,-3.1496,-3.1496,-3.1496,-3.1496,-3.1496,-3.1496,-3.1496,-3.1496,-3.1496,-3.1496,-3.1496,-3.1496,-3.1496,-3.1496,-3.1496,-3.1496,-3.1496,-3.1496,-3.1496,-3.1496,-3.1496,-2.851,-2.851,-2.851,-2.851,-2.851,-2.851,-2.851,-2.851,-2.851,-2.8306,-2.7993,-2.7426,-2.6898,-2.6478,-2.6238,-2.5805,-2.536,-2.5312,-2.5312,-2.5312,-2.5312,-2.5312,-2.5312,-2.5312,-2.5312,-2.5312,-2.5312,-2.5312,-2.5312,-2.543,-2.5382,-2.5418,-2.5571,-2.5758,-2.5875,-2.591,-2.6027,-2.6166,-2.6317,-2.6374,-2.6487,-2.6487,-2.6487,-2.6487,-2.6487,-2.6487,-2.6487,-2.6487,-2.6487,-2.6555,-2.6782,-2.7074,-2.7484,-2.8441,-2.903,-2.9515,-3.0129,-3.0477,-3.0568,-3.0568,-3.0612,-3.0612,-3.0612,-3.0612,-3.0612,-3.0612,-3.0612,-3.0612,-3.0612,-3.0612,-3.0612,-3.0612,-3.0642,-3.0791,-3.0925,-3.1058,-3.1205,-3.1322,-3.1409,-3.1467,-3.1496,-3.1496,-3.1496,-3.1496,-3.1496,-3.1496,-3.1496,-3.1496,-3.1496,-3.1496,-3.1496,-3.1496,-3.1496,-3.1496,-3.1496,-3.1496,-3.1496,-3.1496,-3.1496,-3.1496,-3.1496,-3.1496,-3.1496,-3.1496,-3.1496,-3.1496,-3.1496,-3.1496,-3.1496,-3.1496,-3.1496,-3.1496,-3.1496,-3.1496,-3.1496,-2.851,-2.851,-2.851,-2.851,-2.851,-2.851,-2.851,-2.8486,-2.833,-2.7981,-2.7414,-2.6885,-2.6453,-2.6142,-2.5877,-2.5697,-2.5372,-2.5312,-2.5312,-2.5312,-2.5312,-2.5312,-2.5312,-2.5312,-2.5312,-2.5312,-2.5312,-2.5312,-2.5312,-2.5312,-2.5312,-2.5382,-2.5558,-2.5676,-2.5828,-2.5945,-2.6062,-2.6179,-2.6283,-2.6339,-2.6499,-2.6487,-2.6487,-2.6487,-2.6487,-2.6487,-2.6487,-2.6487,-2.6487,-2.6487,-2.6589,-2.6794,-2.7263,-2.7835,-2.8422,-2.9062,-2.9732,-3.0251,-3.0312,-3.0507,-3.0582,-3.0612,-3.0612,-3.0612,-3.0612,-3.0612,-3.0612,-3.0612,-3.0612,-3.0612,-3.0612,-3.0642,-3.0702,-3.0836,-3.0984,-3.1132,-3.1234,-3.1351,-3.1409,-3.1482,-3.1511,-3.1496,-3.1496,-3.1496,-3.1496,-3.1496,-3.1496,-3.1496,-3.1496,-3.1496,-3.1496,-3.1496,-3.1496,-3.1496,-3.1496,-3.1496,-3.1496,-3.1496,-3.1496,-3.1496,-3.1496,-3.1496,-3.1496,-3.1496,-3.1496,-3.1496,-3.1496,-3.1496,-3.1496,-3.1496,-3.1496,-3.1496,-3.1496,-3.1496,-3.1496,-2.8435,-2.851,-2.8474,-2.8474,-2.8402,-2.8486,-2.8486,-2.833,-2.7873,-2.7354,-2.6861,-2.6358,-2.6105,-2.5925,-2.56,-2.5408,-2.5348,-2.5312,-2.5312,-2.5312,-2.5312,-2.5312,-2.5312,-2.5312,-2.5312,-2.5312,-2.5312,-2.5312,-2.5312,-2.5312,-2.5312,-2.5264,-2.5298,-2.538,-2.5629,-2.598,-2.6166,-2.6201,-2.6374,-2.6396,-2.6499,-2.6487,-2.6487,-2.6487,-2.6487,-2.6487,-2.6487,-2.6487,-2.6487,-2.6487,-2.6487,-2.6624,-2.6871,-2.7351,-2.7736,-2.7966,-2.8998,-2.9546,-2.9685,-3.0266,-3.0538,-3.0612,-3.0612,-3.0612,-3.0612,-3.0612,-3.0612,-3.0612,-3.0612,-3.0612,-3.0642,-3.0702,-3.0732,-3.0791,-3.0955,-3.1117,-3.122,-3.1322,-3.1395,-3.1482,-3.1496,-3.1496,-3.1496,-3.1496,-3.1496,-3.1496,-3.1496,-3.1496,-3.1496,-3.1496,-3.1496,-3.1496,-3.1496,-3.1496,-3.1496,-3.1496,-3.1496,-3.1496,-3.1496,-3.1496,-3.1496,-3.1496,-3.1496,-3.1496,-3.1496,-3.1496,-3.1496,-3.1496,-3.1496,-3.1496,-3.1496,-3.1496,-3.1496,-3.1376,-3.1212,-2.7583,-2.7296,-2.7759,-2.775,-2.751,-2.7798,-2.7942,-2.7798,-2.7091,-2.6538,-2.6261,-2.5805,-2.5576,-2.5492,-2.5456,-2.5312,-2.5312,-2.5312,-2.5312,-2.5312,-2.5312,-2.5312,-2.5312,-2.5312,-2.5312,-2.5312,-2.5312,-2.5312,-2.5312,-2.5312,-2.5312,-2.5276,-2.4963,-2.5034,-2.5321,-2.5606,-2.5688,-2.5945,-2.6084,-2.6211,-2.6452,-2.6487,-2.6487,-2.6487,-2.6487,-2.6487,-2.6474,-2.6474,-2.6411,-2.6424,-2.6411,-2.6582,-2.6888,-2.7378,-2.7637,-2.7966,-2.8857,-2.9093,-2.9577,-3.019,-3.0582,-3.0583,-3.0598,-3.0598,-3.0612,-3.0612,-3.0612,-3.0612,-3.0612,-3.0612,-3.0642,-3.0642,-3.0672,-3.0687,-3.0791,-3.0984,-3.1102,-3.1234,-3.1351,-3.1438,-3.1496,-3.1496,-3.1496,-3.1496,-3.1496,-3.1496,-3.1496,-3.1496,-3.1496,-3.1496,-3.1496,-3.1496,-3.1496,-3.1496,-3.1496,-3.1496,-3.1496,-3.1496,-3.1496,-3.1496,-3.1496,-3.1496,-3.1496,-3.1496,-3.1496,-3.1496,-3.1466,-3.1466,-3.1496,-3.1496,-3.1301,-3.1122,-3.1002,-3.0806,-3.0567,-2.6969,-2.6745,-2.7232,-2.7222,-2.697,-2.727,-2.7356,-2.7067,-2.6394,-2.6009,-2.5769,-2.5456,-2.5324,-2.5324,-2.5312,-2.5312,-2.5312,-2.5312,-2.5312,-2.5312,-2.5312,-2.5312,-2.5312,-2.5312,-2.5312,-2.5312,-2.5312,-2.5312,-2.5312,-2.5312,-2.5192,-2.4915,-2.4542,-2.4526,-2.4778,-2.5073,-2.5528,-2.5904,-2.6154,-2.6292,-2.6452,-2.6487,-2.6487,-2.6487,-2.6487,-2.6487,-2.6436,-2.6348,-2.6197,-2.6197,-2.6265,-2.6375,-2.6758,-2.71,-2.7465,-2.7966,-2.873,-2.9188,-2.9917,-3.0282,-3.048,-3.0205,-3.0452,-3.0583,-3.0612,-3.0612,-3.0612,-3.0612,-3.0583,-3.0598,-3.0598,-3.0598,-3.0672,-3.0687,-3.0851,-3.1014,-3.1161,-3.1292,-3.1351,-3.1467,-3.1496,-3.1496,-3.1496,-3.1496,-3.1496,-3.1496,-3.1496,-3.1496,-3.1496,-3.1496,-3.1496,-3.1496,-3.1496,-3.1496,-3.1496,-3.1496,-3.1496,-3.1496,-3.1496,-3.1496,-3.1496,-3.1496,-3.1496,-3.1496,-3.1496,-3.1481,-3.1436,-3.1391,-3.1182,-3.0957,-3.0733,-3.0612,-3.0492,-3.0313,-3.0103,-2.6699,-2.6837,-2.6861,-2.6849,-2.6825,-2.6777,-2.6513,-2.6105,-2.6069,-2.5769,-2.5324,-2.5348,-2.5312,-2.5312,-2.5312,-2.5312,-2.5312,-2.5312,-2.5312,-2.5312,-2.5312,-2.5312,-2.5312,-2.5312,-2.5312,-2.5312,-2.5312,-2.5312,-2.5312,-2.5312,-2.5071,-2.465,-2.4227,-2.4189,-2.442,-2.464,-2.5237,-2.5726,-2.6037,-2.6224,-2.6449,-2.6399,-2.6323,-2.6273,-2.6223,-2.6172,-2.6047,-2.5824,-2.5636,-2.5586,-2.5619,-2.5607,-2.577,-2.6147,-2.6764,-2.7584,-2.868,-2.9393,-2.9866,-3.0018,-3.0059,-2.9726,-3.0045,-3.038,-3.038,-3.0205,-3.0205,-3.0322,-3.035,-3.0496,-3.0583,-3.0687,-3.0791,-3.091,-3.1058,-3.1176,-3.1292,-3.138,-3.1409,-3.1467,-3.1482,-3.1511,-3.1496,-3.1496,-3.1496,-3.1496,-3.1496,-3.1496,-3.1496,-3.1496,-3.1496,-3.1496,-3.1496,-3.1496,-3.1496,-3.1496,-3.1496,-3.1496,-3.1496,-3.1496,-3.1496,-3.1496,-3.1496,-3.1496,-3.1496,-3.1421,-3.1182,-3.0898,-3.0627,-3.0402,-3.0133,-2.9924,-2.9774,-2.9939,-2.9834,-2.5775,-2.5696,-2.6104,-2.6117,-2.5769,-2.5757,-2.5685,-2.554,-2.554,-2.542,-2.5312,-2.5312,-2.5312,-2.5312,-2.5312,-2.5312,-2.5312,-2.5312,-2.5312,-2.5312,-2.5312,-2.5312,-2.5312,-2.5312,-2.5312,-2.5312,-2.5312,-2.5312,-2.53,-2.53,-2.5252,-2.5011,-2.4107,-2.4032,-2.3978,-2.3976,-2.4623,-2.5231,-2.5576,-2.5936,-2.6138,-2.6047,-2.5959,-2.5845,-2.5561,-2.5485,-2.5347,-2.5197,-2.5046,-2.5046,-2.5046,-2.5046,-2.5051,-2.5548,-2.6147,-2.6765,-2.7577,-2.8209,-2.8474,-2.893,-2.914,-2.9016,-2.9189,-2.9203,-2.9246,-2.9363,-2.9508,-2.9755,-3.0016,-3.0132,-3.0336,-3.0483,-3.0644,-3.0836,-3.0925,-3.094,-3.1087,-3.1263,-3.1322,-3.1438,-3.1438,-3.1511,-3.1496,-3.1496,-3.1496,-3.1496,-3.1496,-3.1496,-3.1496,-3.1496,-3.1496,-3.1496,-3.1496,-3.1496,-3.1496,-3.1496,-3.1496,-3.1496,-3.1496,-3.1496,-3.1496,-3.1496,-3.1496,-3.1496,-3.1496,-3.1167,-3.0776,-3.0507,-3.0253,-2.9744,-2.943,-2.922,-2.9116,-2.9295,-2.9205,-2.5217,-2.5183,-2.5577,-2.56,-2.5348,-2.5312,-2.5312,-2.5312,-2.5312,-2.5312,-2.5312,-2.5312,-2.5312,-2.5312,-2.5312,-2.5312,-2.5312,-2.5312,-2.5312,-2.5312,-2.5312,-2.5312,-2.5312,-2.5312,-2.5312,-2.5312,-2.5312,-2.5312,-2.5228,-2.5023,-2.4915,-2.453,-2.3809,-2.3637,-2.347,-2.3227,-2.3558,-2.4292,-2.4901,-2.5299,-2.5428,-2.5465,-2.536,-2.5222,-2.4863,-2.4788,-2.4732,-2.4625,-2.4474,-2.4494,-2.4494,-2.4494,-2.4645,-2.521,-2.5735,-2.6401,-2.7213,-2.7662,-2.7994,-2.843,-2.8455,-2.8352,-2.8303,-2.8158,-2.8317,-2.8476,-2.8826,-2.9203,-2.9493,-2.974,-2.9987,-3.0234,-3.0438,-3.0643,-3.0616,-3.0573,-3.0822,-3.1087,-3.1234,-3.138,-3.1438,-3.1467,-3.1496,-3.1496,-3.1496,-3.1496,-3.1496,-3.1496,-3.1496,-3.1496,-3.1496,-3.1496,-3.1496,-3.1496,-3.1496,-3.1496,-3.1496,-3.1496,-3.1496,-3.1496,-3.1496,-3.1496,-3.1481,-3.1496,-3.1496,-3.1047,-3.0522,-3.0208,-2.9894,-2.9352,-2.8783,-2.8513,-2.8457,-2.8697,-2.8442,-2.4897,-2.5111,-2.5253,-2.5336,-2.5312,-2.5312,-2.5312,-2.5312,-2.5312,-2.5312,-2.5312,-2.5312,-2.5312,-2.5312,-2.5312,-2.5312,-2.5312,-2.5312,-2.5312,-2.5312,-2.5312,-2.5312,-2.5312,-2.5312,-2.5216,-2.524,-2.518,-2.5023,-2.4963,-2.4699,-2.4254,-2.3782,-2.3348,-2.3103,-2.2877,-2.2618,-2.2889,-2.3394,-2.4003,-2.4462,-2.4688,-2.4716,-2.4725,-2.4713,-2.4612,-2.455,-2.4481,-2.4255,-2.3929,-2.3929,-2.3929,-2.3929,-2.4406,-2.4841,-2.5381,-2.5965,-2.672,-2.7105,-2.7397,-2.7838,-2.7909,-2.78,-2.7608,-2.7447,-2.7534,-2.7779,-2.8144,-2.855,-2.8812,-2.9188,-2.9464,-2.9798,-3.0045,-3.0338,-3.047,-3.0587,-3.0852,-3.1117,-3.1292,-3.1409,-3.1467,-3.1496,-3.1496,-3.1496,-3.1496,-3.1496,-3.1496,-3.1496,-3.1496,-3.1496,-3.1496,-3.1496,-3.1496,-3.1496,-3.1496,-3.1496,-3.1496,-3.1496,-3.1496,-3.1496,-3.1496,-3.1481,-3.1466,-3.1301,-3.1107,-3.0733,-3.0298,-2.9849,-2.928,-2.8693,-2.8169,-2.7794,-2.7839,-2.8143,-2.8068,-2.4778,-2.5111,-2.5241,-2.5312,-2.5312,-2.5312,-2.5312,-2.5312,-2.5312,-2.5312,-2.5312,-2.5312,-2.5312,-2.5312,-2.5312,-2.5312,-2.5312,-2.5312,-2.5312,-2.5312,-2.5312,-2.524,-2.5276,-2.5192,-2.5047,-2.4807,-2.4662,-2.4554,-2.4314,-2.4073,-2.3917,-2.3734,-2.3264,-2.2898,-2.2725,-2.2471,-2.2473,-2.2748,-2.3082,-2.3795,-2.4357,-2.4133,-2.4035,-2.3992,-2.3941,-2.3672,-2.3572,-2.3471,-2.3333,-2.3308,-2.3308,-2.3534,-2.401,-2.4292,-2.4646,-2.5109,-2.5752,-2.6149,-2.6466,-2.6847,-2.7044,-2.7111,-2.6987,-2.6939,-2.6968,-2.7157,-2.7447,-2.7839,-2.8216,-2.8592,-2.8911,-2.9275,-2.9639,-2.9944,-3.028,-3.0558,-3.0896,-3.1146,-3.1351,-3.1409,-3.1467,-3.1496,-3.1496,-3.1496,-3.1496,-3.1496,-3.1496,-3.1496,-3.1496,-3.1496,-3.1496,-3.1496,-3.1496,-3.1496,-3.1496,-3.1496,-3.1496,-3.1496,-3.1496,-3.1496,-3.1496,-3.1481,-3.1421,-3.0956,-3.0612,-3.0283,-2.9819,-2.9131,-2.8547,-2.8109,-2.7884,-2.7645,-2.7585,-2.7839,-2.7779,-2.3669,-2.3961,-2.454,-2.4649,-2.4613,-2.5051,-2.5312,-2.5312,-2.5312,-2.5312,-2.5312,-2.5312,-2.5312,-2.5312,-2.5312,-2.5312,-2.5312,-2.5312,-2.5312,-2.5312,-2.524,-2.5072,-2.5071,-2.4939,-2.459,-2.4302,-2.4206,-2.4025,-2.3758,-2.3782,-2.3758,-2.3457,-2.3083,-2.2847,-2.271,-2.2361,-2.2247,-2.2321,-2.2525,-2.3077,-2.3903,-2.3642,-2.3461,-2.3434,-2.3308,-2.3095,-2.3095,-2.3095,-2.3108,-2.3108,-2.3133,-2.3221,-2.3527,-2.362,-2.3753,-2.4102,-2.4558,-2.4977,-2.5239,-2.5611,-2.612,-2.6305,-2.6394,-2.6342,-2.6808,-2.6997,-2.7012,-2.7374,-2.7768,-2.8171,-2.8215,-2.8492,-2.884,-2.9187,-2.9592,-2.9956,-3.0645,-3.1292,-3.1409,-3.1467,-3.1496,-3.1496,-3.1496,-3.1496,-3.1496,-3.1496,-3.1496,-3.1481,-3.1481,-3.1496,-3.1496,-3.1496,-3.1496,-3.1496,-3.1496,-3.1496,-3.1496,-3.1496,-3.1496,-3.1496,-3.1496,-3.1481,-3.1331,-3.0776,-3.0268,-2.9879,-2.9355,-2.8667,-2.8218,-2.7869,-2.772,-2.76,-2.7585,-2.7585,-2.76,-2.2444,-2.2672,-2.3693,-2.3989,-2.3816,-2.4826,-2.5312,-2.5312,-2.5312,-2.5312,-2.5312,-2.5312,-2.5312,-2.5312,-2.5312,-2.5312,-2.5312,-2.5312,-2.5312,-2.5155,-2.5155,-2.4819,-2.4542,-2.4398,-2.4073,-2.3761,-2.3556,-2.3541,-2.3408,-2.3384,-2.3204,-2.2951,-2.2818,-2.2666,-2.233,-2.2216,-2.2247,-2.2359,-2.2512,-2.2635,-2.2885,-2.3017,-2.311,-2.3115,-2.3095,-2.3095,-2.3095,-2.3095,-2.3095,-2.3095,-2.3095,-2.3145,-2.3183,-2.3246,-2.3221,-2.3485,-2.3991,-2.4269,-2.4414,-2.4887,-2.5341,-2.5646,-2.5743,-2.6056,-2.65,-2.6715,-2.6703,-2.6997,-2.7418,-2.7578,-2.7636,-2.7839,-2.8215,-2.8647,-2.9078,-2.9659,-3.0567,-3.1349,-3.1393,-3.1451,-3.1451,-3.1451,-3.1331,-3.1331,-3.1361,-3.1376,-3.1421,-3.1451,-3.1466,-3.1481,-3.1496,-3.1496,-3.1496,-3.1496,-3.1496,-3.1496,-3.1496,-3.1496,-3.1496,-3.1496,-3.1436,-3.1256,-3.0943,-3.0462,-2.9983,-2.9415,-2.8936,-2.8364,-2.7959,-2.7675,-2.763,-2.7585,-2.7585,-2.7585,-2.7585,-2.2267,-2.311,-2.4058,-2.4315,-2.4349,-2.4966,-2.5312,-2.5312,-2.5276,-2.5312,-2.5312,-2.5312,-2.5312,-2.5312,-2.5312,-2.5312,-2.53,-2.5276,-2.4928,-2.4688,-2.4699,-2.435,-2.4001,-2.3806,-2.3577,-2.3252,-2.2847,-2.257,-2.2799,-2.271,-2.2498,-2.2402,-2.2378,-2.2318,-2.2282,-2.2216,-2.2247,-2.2389,-2.2543,-2.2708,-2.283,-2.2969,-2.3017,-2.3047,-2.3095,-2.3095,-2.3095,-2.3095,-2.3095,-2.3095,-2.3095,-2.3095,-2.3095,-2.3095,-2.3095,-2.3185,-2.3691,-2.3868,-2.4118,-2.4538,-2.5021,-2.5245,-2.5425,-2.5688,-2.6042,-2.6286,-2.6435,-2.6794,-2.7096,-2.7149,-2.7251,-2.7547,-2.7895,-2.8506,-2.9022,-2.9959,-3.0902,-3.1168,-3.1256,-3.1256,-3.1256,-3.1017,-3.0702,-3.0731,-3.0761,-3.0763,-3.0823,-3.0928,-3.1466,-3.1496,-3.1481,-3.1481,-3.1481,-3.1496,-3.1496,-3.1496,-3.1496,-3.1496,-3.1421,-3.1301,-3.1122,-3.0853,-3.0507,-2.9909,-2.931,-2.8727,-2.8289,-2.8004,-2.7854,-2.763,-2.7615,-2.7585,-2.7585,-2.7585,-2.7585]}]]